Date StartTime U_cm/s V_cm/s W_cm/s Ustd_cm/s Vstd_cm/s Wstd_cm/s Uvar_(cm/s)^2 Vvar_(cm/s)^2 Wvar_(cm/s)^2 KE_(m/s)^2 TurbulentKE_(m/s)^2 HorizWindSpeed_cm/s FrictionSpeec_cm/s DragCoef SpeedOfSound_m/s SonicTemperature_C Pressure_mb 
10/07/2013  00:00:00     -161.485       58.934      -22.245       32.615       36.060       26.706     1063.735     1300.305      713.236        1.656        0.154      171.903       13.768        0.006      340.433       14.449      863.835
10/07/2013  00:01:00     -111.424      143.860      -28.218       40.160       55.292       27.831     1612.798     3057.178      774.586        1.967        0.272      181.964       18.478        0.010      340.498       14.558      863.816
10/07/2013  00:02:00     -109.913       -6.658      -17.769       38.556       44.334       22.574     1486.568     1965.539      509.579        0.820        0.198      110.114       18.263        0.028      340.485       14.539      863.786
10/07/2013  00:03:00      -79.854       21.422      -15.970       43.856       47.094       25.578     1923.354     2217.819      654.232        0.594        0.240       82.678       16.966        0.042      340.424       14.435      863.770
10/07/2013  00:04:00      -48.858       54.422       -2.006       53.425       29.554       28.752     2854.263      873.435      826.686        0.495        0.228       73.136       24.889        0.116      340.381       14.361      863.754
10/07/2013  00:05:00      -89.892      100.684      -20.883       39.217       38.037       21.506     1537.975     1446.807      462.527        1.105        0.172      134.973       21.554        0.026      340.419       14.428      863.736
10/07/2013  00:06:00      -80.271       55.183       -8.728       32.807       54.051       28.518     1076.283     2921.540      813.274        0.719        0.241       97.410       25.281        0.067      340.471       14.513      863.739
10/07/2013  00:07:00      -69.902      -18.279      -14.510       13.366       27.285       11.756      178.645      744.447      138.209        0.325        0.053       72.252        4.487        0.004      340.390       14.379      863.749
10/07/2013  00:08:00     -105.872      -53.763       -6.959       22.110       25.249       14.978      488.865      637.525      224.343        0.775        0.068      118.740        7.331        0.004      340.312       14.245      863.756
10/07/2013  00:09:00     -122.983      -18.852      -14.098       32.667       30.871       17.612     1067.104      953.020      310.176        0.900        0.117      124.420       17.447        0.020      340.311       14.244      863.769
10/07/2013  00:10:00     -102.124      -53.341       -6.722       66.828       28.092       22.327     4466.037      789.176      498.516        0.954        0.288      115.216       20.058        0.030      340.290       14.210      863.768
10/07/2013  00:11:00     -155.549      -62.742      -17.300       36.922       31.228       20.491     1363.238      975.219      419.883        1.559        0.138      167.726       16.809        0.010      340.276       14.185      863.755
10/07/2013  00:12:00      -87.050      -39.292       -0.359       54.418       28.392       20.373     2961.343      806.093      415.050        0.665        0.209       95.507       19.407        0.041      340.158       13.985      863.735
10/07/2013  00:13:00     -121.297      -40.837       -6.781       39.124       34.170       22.172     1530.722     1167.615      491.583        0.981        0.159      127.987       22.773        0.032      340.095       13.878      863.738
10/07/2013  00:14:00     -120.538      -62.420       -4.647       34.462       35.046       19.864     1187.624     1228.241      394.566        1.063        0.141      135.741       15.689        0.013      340.065       13.829      863.732
10/07/2013  00:15:00      -79.553      -37.984        5.629       48.547       36.555       24.498     2356.776     1336.253      600.138        0.605        0.215       88.156       27.076        0.094      339.937       13.614      863.718
10/07/2013  00:16:00      -85.488      -32.461       -0.387       42.336       30.205       18.699     1792.296      912.352      349.656        0.571        0.153       91.444       16.740        0.034      339.979       13.683      863.716
10/07/2013  00:17:00      -67.639      -55.847        4.138       50.329       40.193       21.251     2533.004     1615.496      451.594        0.615        0.230       87.715       19.300        0.048      339.960       13.651      863.708
10/07/2013  00:18:00      -71.844      -48.575        0.076       35.968       21.241       15.185     1293.695      451.173      230.593        0.475        0.099       86.724       13.562        0.024      339.900       13.550      863.688
10/07/2013  00:19:00      -29.565      -28.458        3.146       26.353       16.038       12.396      694.506      257.230      153.666        0.140        0.055       41.036        6.170        0.023      339.901       13.553      863.671
10/07/2013  00:20:00      -38.260       -4.985       -0.157       23.477       16.771        9.732      551.171      281.277       94.714        0.121        0.046       38.583        5.085        0.017      339.861       13.484      863.656
10/07/2013  00:21:00      -76.622      -28.400       -5.196       35.816       18.546       15.059     1282.766      343.943      226.771        0.428        0.093       81.716       17.883        0.048      339.771       13.333      863.653
10/07/2013  00:22:00      -56.200      -53.571       -8.210       43.408       37.489       16.875     1884.279     1405.456      284.765        0.483        0.179       77.642       12.782        0.027      339.642       13.117      863.649
10/07/2013  00:23:00      -53.717      -65.815        0.011       40.385       30.985       26.843     1630.939      960.090      720.559        0.526        0.166       84.953       26.980        0.101      339.588       13.023      863.672
10/07/2013  00:24:00     -108.646      -97.282        5.253       85.163       71.609       37.038     7252.715     5127.828     1371.779        1.752        0.688      145.835       47.581        0.106      339.574       12.999      863.697
10/07/2013  00:25:00     -180.262     -152.299      -12.683       55.043       46.760       29.381     3029.783     2186.540      863.242        3.096        0.304      235.986       27.570        0.014      339.730       13.260      863.685
10/07/2013  00:26:00     -116.127     -103.397        2.825       40.716       45.125       28.206     1657.773     2036.237      795.607        1.434        0.224      155.487       19.974        0.017      339.624       13.084      863.642
10/07/2013  00:27:00      -98.632      -58.497       -1.269       36.004       32.677       24.862     1296.310     1067.808      618.140        0.807        0.149      114.674       20.288        0.031      339.597       13.038      863.598
10/07/2013  00:28:00      -85.249      -77.248       -3.701       25.578       23.584       19.857      654.219      556.207      394.316        0.743        0.080      115.042       17.070        0.022      339.574       13.001      863.561
10/07/2013  00:29:00      -71.948      -54.354       -2.727       38.383       29.413       22.904     1473.230      865.116      524.592        0.550        0.143       90.171       22.469        0.062      339.513       12.898      863.531
10/07/2013  00:30:00      -52.127      -44.189        1.639       42.190       30.086       21.881     1779.980      905.194      478.773        0.392        0.158       68.336       23.834        0.122      339.508       12.890      863.522
10/07/2013  00:31:00     -123.018      -62.219       -5.659       62.261       31.992       21.872     3876.490     1023.489      478.377        1.221        0.269      137.857       27.143        0.039      339.433       12.763      863.520
10/07/2013  00:32:00     -109.812        6.646      -11.128       47.154       42.077       25.021     2223.502     1770.445      626.033        0.842        0.231      110.013       20.390        0.034      339.164       12.310      863.501
10/07/2013  00:33:00      -47.833        2.927        2.514       34.821       24.873       21.006     1212.469      618.689      441.267        0.229        0.114       47.922       17.599        0.135      339.139       12.267      863.488
10/07/2013  00:34:00      -41.806      -27.249        6.344       55.561       25.297       21.815     3087.012      639.938      475.893        0.337        0.210       49.902       27.083        0.295      339.424       12.748      863.506
10/07/2013  00:35:00      -45.037      -36.874       -8.520       42.112       25.891       18.544     1773.424      670.319      343.886        0.312        0.139       58.207       17.426        0.090      339.413       12.730      863.559
10/07/2013  00:36:00      -99.775      -51.775       -8.080       34.648       41.645       16.994     1200.466     1734.346      288.780        0.796        0.161      112.409        7.053        0.004      339.231       12.423      863.605
10/07/2013  00:37:00      -62.246       10.072       -1.891       33.860       28.495       16.979     1146.494      811.955      288.285        0.311        0.112       63.056       14.793        0.055      339.126       12.245      863.602
10/07/2013  00:38:00      -74.470        9.038       -3.437       28.681       28.715       17.213      822.628      824.548      296.297        0.379        0.097       75.017       15.604        0.043      339.102       12.205      863.566
10/07/2013  00:39:00      -53.079      -18.784        3.202       22.081       19.247       13.789      487.560      370.441      190.129        0.211        0.052       56.305        5.236        0.009      339.208       12.384      863.520
10/07/2013  00:40:00       -8.361      -33.522       12.332       40.015       20.788       16.630     1601.223      432.126      276.569        0.183        0.115       34.549       21.750        0.396      339.333       12.595      863.514
10/07/2013  00:41:00      -18.660      -24.048        6.983       30.399       15.256       18.204      924.123      232.742      331.371        0.123        0.074       30.438       18.601        0.373      339.309       12.553      863.581
10/07/2013  00:42:00      -42.728      -51.575       -2.991       41.628       19.843       21.579     1732.871      393.762      465.643        0.354        0.130       66.975       21.655        0.105      339.345       12.615      863.665
10/07/2013  00:43:00      -44.937      -40.520        2.853       18.907       21.730       14.636      357.458      472.194      214.205        0.236        0.052       60.508       13.887        0.053      339.481       12.844      863.676
10/07/2013  00:44:00       -9.714        5.202        3.092        8.004       18.669        6.791       64.057      348.540       46.120        0.029        0.023       11.019        2.832        0.066      339.469       12.824      863.645
10/07/2013  00:45:00      -13.851       36.629       -0.096       13.315       16.469        5.953      177.281      271.217       35.439        0.101        0.024       39.160        5.792        0.022      339.457       12.802      863.608
10/07/2013  00:46:00      -16.485       37.899       -5.300       12.346       25.555        9.050      152.416      653.061       81.903        0.131        0.044       41.329       12.355        0.089      339.438       12.771      863.609
10/07/2013  00:47:00      -52.640      -19.634       -3.890       23.083       13.420       12.337      532.811      180.109      152.205        0.202        0.043       56.183        6.233        0.012      339.488       12.855      863.630
10/07/2013  00:48:00      -19.014      -22.981        0.307       28.689       19.415       17.249      823.067      376.929      297.520        0.119        0.075       29.827       14.284        0.229      339.094       12.191      863.664
10/07/2013  00:49:00      -45.016      -41.055       -2.011       27.350       15.697       11.784      748.007      246.384      138.866        0.242        0.057       60.926       11.996        0.039      339.104       12.208      863.692
10/07/2013  00:50:00      -72.181      -33.275        1.225       19.829       18.109       11.625      393.190      327.919      135.132        0.359        0.043       79.482        8.432        0.011      339.315       12.563      863.675
10/07/2013  00:51:00      -87.760      -41.644       -2.609       21.865       27.763       12.102      478.098      770.759      146.466        0.542        0.070       97.140        8.794        0.008      339.200       12.369      863.658
10/07/2013  00:52:00     -103.564      -51.143        4.383       27.098       21.781       16.401      734.321      474.402      269.001        0.742        0.074      115.504       14.894        0.017      339.149       12.286      863.638
10/07/2013  00:53:00     -107.655      -21.685       -5.036       22.848       28.103       12.827      522.032      789.751      164.544        0.678        0.074      109.818       12.207        0.012      339.128       12.248      863.640
10/07/2013  00:54:00      -96.444       -4.859       -7.960       37.880       24.200       14.642     1434.858      585.640      214.389        0.581        0.112       96.566       14.925        0.024      339.081       12.171      863.630
10/07/2013  00:55:00      -97.482       13.913      -13.747       43.590       25.616       17.565     1900.071      656.171      308.535        0.637        0.143       98.470       15.441        0.025      339.173       12.326      863.626
10/07/2013  00:56:00     -105.854        7.330       -8.445       42.464       36.090       13.859     1803.157     1302.489      192.061        0.731        0.165      106.107       17.942        0.029      339.387       12.686      863.646
10/07/2013  00:57:00      -71.184      -34.071        4.510       42.269       28.428       30.687     1786.657      808.175      941.668        0.489        0.177       78.918       27.502        0.121      339.239       12.436      863.658
10/07/2013  00:58:00     -110.079       24.804       -9.026       28.160       27.031       17.919      792.968      730.672      321.098        0.733        0.092      112.839       13.705        0.015      339.230       12.420      863.649
10/07/2013  00:59:00      -46.411       -0.463       -2.565       14.718       18.663       12.363      216.618      348.319      152.849        0.144        0.036       46.413        8.042        0.030      339.183       12.342      863.639
10/07/2013  01:00:00      -58.287      -15.332       -3.607       13.488       16.745       11.116      181.920      280.385      123.574        0.212        0.029       60.270        5.857        0.009      339.114       12.226      863.643
10/07/2013  01:01:00      -26.704      -19.517       -0.299       33.068       15.663       19.321     1093.489      245.332      373.289        0.140        0.086       33.076       19.977        0.365      339.085       12.176      863.660
10/07/2013  01:02:00      -37.582      -37.143        2.145       22.283       15.231       16.911      496.516      231.990      285.975        0.191        0.051       52.839       11.731        0.049      339.012       12.053      863.692
10/07/2013  01:03:00      -75.254      -43.170       -9.683       30.340       14.071        8.477      920.545      197.990       71.861        0.441        0.060       86.757        6.726        0.006      339.092       12.188      863.710
10/07/2013  01:04:00     -117.515      -26.659      -20.420       13.793       11.458        8.962      190.259      131.282       80.324        0.767        0.020      120.501        2.700        0.001      339.160       12.304      863.722
10/07/2013  01:05:00     -145.471      -29.198      -13.804       16.892       17.959       12.055      285.326      322.514      145.312        1.148        0.038      148.372        4.547        0.001      339.048       12.116      863.731
10/07/2013  01:06:00     -131.164      -49.180       -6.170       24.648       20.327       19.882      607.519      413.172      395.283        1.054        0.071      140.081       17.809        0.016      338.995       12.027      863.727
10/07/2013  01:07:00      -73.335      -21.432        3.545       32.201       18.120       16.113     1036.916      328.335      259.617        0.374        0.081       76.402       16.854        0.049      338.882       11.836      863.721
10/07/2013  01:08:00      -85.503      -17.124       -2.324       33.345       18.036       14.786     1111.877      325.305      218.632        0.463        0.083       87.201       16.807        0.037      338.907       11.877      863.711
10/07/2013  01:09:00      -90.456      -18.030       -7.162       42.886       27.588       19.878     1839.186      761.098      395.151        0.578        0.150       92.235       22.433        0.059      338.848       11.778      863.702
10/07/2013  01:10:00     -102.956      -24.247       -3.333       35.486       29.061       20.895     1259.256      844.550      436.603        0.687        0.127      105.773       18.511        0.031      339.114       12.225      863.712
10/07/2013  01:11:00     -103.949      -56.505       -4.667       34.359       15.348       17.229     1180.512      235.549      296.837        0.787        0.086      118.314       14.485        0.015      338.892       11.852      863.732
10/07/2013  01:12:00      -95.943      -24.699       -6.024       18.637       14.964       10.012      347.341      223.921      100.233        0.526        0.034       99.071        7.748        0.006      338.911       11.885      863.722
10/07/2013  01:13:00      -49.550       -2.726       -2.117       22.383       17.394        9.447      500.989      302.549       89.241        0.168        0.045       49.625        6.160        0.015      338.885       11.840      863.695
10/07/2013  01:14:00      -32.371       23.097       -6.052       28.705       24.232       17.170      823.987      587.177      294.823        0.166        0.085       39.766       20.002        0.253      339.000       12.034      863.673
10/07/2013  01:15:00      -65.610      -22.667       -6.014       31.156       28.752       14.722      970.711      826.682      216.731        0.343        0.101       69.415       16.317        0.055      339.054       12.124      863.669
10/07/2013  01:16:00     -114.786      -46.611      -12.586       29.026       20.652       15.706      842.519      426.509      246.680        0.851        0.076      123.888       12.076        0.010      338.984       12.007      863.673
10/07/2013  01:17:00      -75.902      -10.797       -7.323       29.990       21.604       16.547      899.416      466.744      273.805        0.379        0.082       76.666       16.238        0.045      338.975       11.992      863.661
10/07/2013  01:18:00      -34.791      -18.883      -10.328       13.637       17.389        8.601      185.978      302.387       73.970        0.112        0.028       39.585        5.799        0.021      339.128       12.248      863.643
10/07/2013  01:19:00      -38.402      -16.420      -10.665       12.787       16.769       10.863      163.503      281.188      118.012        0.121        0.028       41.765        7.397        0.031      339.342       12.608      863.624
10/07/2013  01:20:00      -58.727      -23.090      -13.065       15.971       18.049       12.391      255.088      325.767      153.533        0.244        0.037       63.104        4.505        0.005      339.284       12.512      863.613
10/07/2013  01:21:00      -82.950      -25.934      -15.901       18.972       14.945       10.875      359.933      223.349      118.266        0.425        0.035       86.910       11.225        0.017      339.139       12.269      863.609
10/07/2013  01:22:00     -104.145        9.963      -17.335       24.033       14.572       12.538      577.596      212.353      157.208        0.610        0.047      104.621        6.900        0.004      339.176       12.330      863.610
10/07/2013  01:23:00     -111.507       -9.257      -16.143       24.317       24.796       15.164      591.311      614.855      229.942        0.711        0.072      111.890       11.865        0.011      339.220       12.405      863.618
10/07/2013  01:24:00     -138.968       12.169      -11.763       41.427       35.153       22.972     1716.229     1235.766      527.710        1.154        0.174      139.500       18.991        0.019      339.281       12.507      863.632
10/07/2013  01:25:00     -123.949      -25.558      -14.319       30.832       30.235       19.660      950.629      914.145      386.524        0.924        0.113      126.556       15.578        0.015      339.336       12.599      863.669
10/07/2013  01:26:00      -99.760      -46.422       -9.678       17.866       19.101       16.668      319.212      364.854      277.822        0.658        0.048      110.032        9.546        0.008      339.108       12.215      863.696
10/07/2013  01:27:00     -135.295      -23.155      -20.484       25.092       19.373       10.929      629.625      375.311      119.441        1.019        0.056      137.262        3.133        0.001      339.103       12.207      863.685
10/07/2013  01:28:00     -173.700        5.021      -16.723       12.088       21.906        9.225      146.109      479.888       85.095        1.559        0.036      173.772        8.157        0.002      339.231       12.422      863.663
10/07/2013  01:29:00     -130.631       49.944       -9.080       56.838       21.617       24.483     3230.569      467.278      599.407        1.197        0.215      139.852       20.886        0.022      339.423       12.746      863.631
10/07/2013  01:30:00      -85.424       62.980      -15.461       35.962       26.746       19.252     1293.246      715.345      370.635        0.694        0.119      106.131       18.269        0.030      339.596       13.038      863.601
10/07/2013  01:31:00      -71.972       67.885      -18.458       22.947       29.129       16.308      526.557      848.505      265.945        0.588        0.082       98.936       12.917        0.017      339.657       13.141      863.583
10/07/2013  01:32:00      -75.895       34.909      -15.633       24.516       28.682       15.024      601.015      822.663      225.709        0.444        0.082       83.538       17.980        0.046      339.539       12.942      863.593
10/07/2013  01:33:00      -58.249       57.225      -16.958       19.803       38.935       12.388      392.152     1515.909      153.462        0.451        0.103       81.656       13.612        0.028      339.651       13.132      863.607
10/07/2013  01:34:00      -34.281      103.135      -16.424       24.409       26.581       10.257      595.776      706.527      105.213        0.674        0.070      108.684        3.070        0.001      339.901       13.553      863.589
10/07/2013  01:35:00        4.743      113.053      -14.830       20.316       22.992       13.452      412.745      528.616      180.956        0.707        0.056      113.152       12.735        0.013      339.908       13.563      863.570
10/07/2013  01:36:00       15.952       72.134      -11.028       17.133       24.380       12.025      293.547      594.375      144.608        0.331        0.052       73.877       11.146        0.023      339.794       13.371      863.561
10/07/2013  01:37:00       40.607       28.796        2.051       15.677       17.917       15.861      245.767      321.017      251.570        0.165        0.041       49.781       12.851        0.067      339.499       12.875      863.560
10/07/2013  01:38:00       62.056       14.432        9.073       20.360       15.483       17.883      414.514      239.711      319.800        0.256        0.049       63.712       13.409        0.044      339.216       12.397      863.553
10/07/2013  01:39:00       34.384       10.330       11.692       26.532       19.385       21.387      703.956      375.762      457.398        0.148        0.077       35.902       17.620        0.241      339.149       12.283      863.548
10/07/2013  01:40:00       13.003        6.528        2.199       11.095       15.739        7.410      123.091      247.719       54.911        0.032        0.021       14.550        6.393        0.193      339.207       12.382      863.561
10/07/2013  01:41:00      -24.738       -5.040       -8.729       28.757       13.803       10.901      826.982      190.536      118.835        0.092        0.057       25.246       13.597        0.290      339.465       12.818      863.574
10/07/2013  01:42:00      -47.229      -22.786       -7.501       27.417       13.158       11.520      751.700      173.137      132.718        0.193        0.053       52.439       10.967        0.044      339.079       12.167      863.597
10/07/2013  01:43:00       13.448      -47.234      -10.035        8.071        9.552        8.538       65.139       91.239       72.890        0.137        0.011       49.111        5.647        0.013      339.132       12.256      863.598
10/07/2013  01:44:00       56.942     -104.198      -38.417       27.173       38.339       13.892      738.359     1469.858      192.974        0.899        0.120      118.742       16.529        0.019      338.978       11.996      863.593
10/07/2013  01:45:00       82.697     -102.227      -19.244       55.862       32.843       25.673     3120.520     1078.693      659.111        1.126        0.243      131.488       18.191        0.019      338.976       11.995      863.607
10/07/2013  01:46:00      -29.677      -32.922       -6.368       42.059       27.121       16.958     1768.991      735.573      287.571        0.240        0.140       44.323       19.962        0.203      339.176       12.329      863.596
10/07/2013  01:47:00      -80.473      -40.925       -7.684       14.035       18.031       10.299      196.994      325.132      106.059        0.442        0.031       90.281        3.137        0.001      339.075       12.160      863.576
10/07/2013  01:48:00      -53.745      -44.275        3.073       31.357       23.358       18.076      983.278      545.600      326.749        0.336        0.093       69.633       17.609        0.064      338.997       12.029      863.587
10/07/2013  01:49:00      -59.949      -60.665        6.701       37.658       31.230       25.356     1418.094      975.288      642.936        0.518        0.152       85.289       20.740        0.059      338.977       11.994      863.587
10/07/2013  01:50:00      -70.898      -22.752        6.411       30.551       25.618       20.587      933.334      656.286      423.805        0.380        0.101       74.459       16.580        0.050      338.956       11.960      863.554
10/07/2013  01:51:00     -106.137       -5.806      -12.219       27.051       21.734       18.137      731.769      472.367      328.942        0.649        0.077      106.296       13.076        0.015      338.926       11.909      863.528
10/07/2013  01:52:00      -80.925        7.439      -13.829       15.961       11.594        9.024      254.750      134.430       81.424        0.363        0.024       81.266        4.255        0.003      339.159       12.300      863.508
10/07/2013  01:53:00      -95.924      -20.406       -9.326       32.662       20.393       11.196     1066.798      415.854      125.347        0.566        0.080       98.070        6.567        0.004      339.021       12.069      863.504
10/07/2013  01:54:00     -135.738      -40.344      -14.132       29.410       20.438       18.799      864.977      417.710      353.384        1.094        0.082      141.606       19.032        0.018      338.899       11.863      863.528
10/07/2013  01:55:00     -104.770      -20.602       -7.257       44.677       36.848       21.621     1996.067     1357.797      467.447        0.764        0.191      106.776       16.619        0.024      338.823       11.737      863.533
10/07/2013  01:56:00      -61.553      -10.686       -0.086       43.657       24.029       18.498     1905.945      577.409      342.166        0.336        0.141       62.473       18.089        0.084      338.787       11.675      863.518
10/07/2013  01:57:00      -14.568      -26.963       15.211       29.941       23.510       16.275      896.480      552.733      264.880        0.144        0.086       30.647       15.222        0.247      338.878       11.829      863.489
10/07/2013  01:58:00        2.217      -46.920        0.048       13.678       32.768       13.738      187.098     1073.718      188.738        0.183        0.072       46.972        9.079        0.037      338.900       11.865      863.485
10/07/2013  01:59:00       22.990      -52.480      -24.416       27.852       38.209       17.777      775.759     1459.951      316.036        0.321        0.128       57.294       14.004        0.060      338.935       11.924      863.493
10/07/2013  02:00:00       47.141      -62.108      -10.824       32.014       44.857       29.812     1024.871     2012.145      888.783        0.506        0.196       77.972       31.669        0.165      338.739       11.595      863.500
10/07/2013  02:01:00       -7.294      -17.566       -4.131       38.298       12.253        8.134     1466.716      150.127       66.160        0.103        0.084       19.020       13.307        0.490      338.980       12.001      863.489
10/07/2013  02:02:00     -109.944       15.249      -13.792       18.003       17.221        8.175      324.115      296.561       66.836        0.660        0.034      110.996        7.488        0.005      338.797       11.693      863.467
10/07/2013  02:03:00      -99.256        2.814      -12.350       16.358       19.963        8.248      267.570      398.512       68.035        0.537        0.037       99.296        7.056        0.005      338.931       11.918      863.437
10/07/2013  02:04:00      -90.912      -28.866      -10.118       17.206       11.150       10.846      296.049      124.320      117.625        0.487        0.027       95.385       11.428        0.014      338.959       11.964      863.413
10/07/2013  02:05:00        7.496      -40.870       -5.635       34.234       12.884       12.499     1171.963      165.994      156.227        0.163        0.075       41.552        5.945        0.020      338.944       11.940      863.414
10/07/2013  02:06:00      -15.758      -14.705       -0.124       12.110       11.346        8.955      146.658      128.730       80.189        0.041        0.018       21.553        4.346        0.041      338.837       11.758      863.429
10/07/2013  02:07:00      -40.687       -0.777        4.653       20.928       15.695       12.794      437.986      246.333      163.676        0.126        0.042       40.695       11.745        0.083      338.704       11.538      863.458
10/07/2013  02:08:00      -95.849       13.271       -3.485       27.122       22.985       13.773      735.579      528.326      189.690        0.541        0.073       96.763       10.498        0.012      338.576       11.322      863.471
10/07/2013  02:09:00      -88.003       28.091       -9.887       20.846       19.239       13.302      434.568      370.142      176.938        0.481        0.049       92.377        9.881        0.011      338.682       11.498      863.450
10/07/2013  02:10:00      -71.649       26.245       -7.241       19.226       24.786       15.942      369.646      614.332      254.136        0.356        0.062       76.305       14.235        0.035      338.833       11.753      863.438
10/07/2013  02:11:00      -75.215       11.708      -11.538       18.508       21.358       11.838      342.531      456.156      140.146        0.343        0.047       76.121        7.177        0.009      338.692       11.514      863.437
10/07/2013  02:12:00      -96.006       38.249      -14.905       23.065       17.899       16.269      532.002      320.358      264.669        0.601        0.056      103.345       13.181        0.016      338.681       11.499      863.427
10/07/2013  02:13:00     -124.043       21.289      -11.329       30.268       18.355       13.808      916.162      336.908      190.674        0.871        0.072      125.856       12.110        0.009      338.623       11.399      863.403
10/07/2013  02:14:00     -103.076      -52.632       -6.439       31.928       34.383       22.577     1019.418     1182.168      509.708        0.807        0.136      115.736       17.946        0.024      338.477       11.154      863.386
10/07/2013  02:15:00     -113.921      -31.141       -2.681       40.080       24.287       16.003     1606.413      589.850      256.105        0.820        0.123      118.101       16.175        0.019      338.411       11.043      863.384
10/07/2013  02:16:00      -49.727       -1.393        0.902       36.200       26.612       16.157     1310.464      708.200      261.063        0.238        0.114       49.746       16.169        0.106      338.399       11.025      863.404
10/07/2013  02:17:00       -4.026        4.223       11.798       27.544       17.671       14.374      758.681      312.275      206.625        0.073        0.064        5.835       13.820        5.610      338.387       11.004      863.408
10/07/2013  02:18:00       15.591        9.711       15.132       20.147       17.406       16.148      405.903      302.966      260.755        0.077        0.048       18.368       11.168        0.370      338.470       11.145      863.392
10/07/2013  02:19:00       11.324      -63.693       -1.408       15.698       39.415       10.661      246.441     1553.561      113.661        0.305        0.096       64.692       15.481        0.057      338.656       11.455      863.388
10/07/2013  02:20:00      -48.000      -76.532       -5.616       59.256       48.922       23.380     3511.311     2393.401      546.643        0.732        0.323       90.339       21.682        0.058      338.699       11.528      863.396
10/07/2013  02:21:00      -55.598      -27.977        4.026       52.643       33.114       25.413     2771.270     1096.516      645.800        0.420        0.226       62.240       31.462        0.256      338.565       11.303      863.412
10/07/2013  02:22:00     -130.326      -15.461       -9.714       36.008       49.497       23.882     1296.605     2449.923      570.359        1.082        0.216      131.240        8.685        0.004      338.514       11.218      863.418
10/07/2013  02:23:00     -110.670      -50.398       -5.396       29.092       24.878       18.103      846.322      618.903      327.736        0.830        0.090      121.605       11.087        0.008      338.405       11.035      863.402
10/07/2013  02:24:00      -49.096      -93.232       -1.073       23.734       20.823       16.108      563.292      433.611      259.471        0.618        0.063      105.369       16.307        0.024      338.697       11.526      863.376
10/07/2013  02:25:00      -85.623      -96.552       -3.346       33.978       38.067       18.631     1154.499     1449.124      347.124        0.981        0.148      129.049       16.220        0.016      339.295       12.531      863.349
10/07/2013  02:26:00     -126.530      -49.916       -4.977       36.409       27.523       20.620     1325.603      757.535      425.178        1.052        0.125      136.019       13.767        0.010      338.776       11.657      863.331
10/07/2013  02:27:00      -92.572       -4.845       -1.267       45.604       24.042       17.758     2079.686      578.024      315.345        0.578        0.149       92.699       19.801        0.046      338.755       11.622      863.315
10/07/2013  02:28:00     -147.673       -1.060      -10.226       28.310       20.650       13.894      801.460      426.440      193.030        1.167        0.071      147.677       14.546        0.010      339.069       12.150      863.291
10/07/2013  02:29:00     -113.791       29.556       -9.687       39.781       24.751       14.677     1582.497      612.630      215.428        0.816        0.121      117.567        9.940        0.007      339.026       12.077      863.269
10/07/2013  02:30:00      -58.131        6.024       -1.726       34.197       20.865       21.180     1169.442      435.328      448.611        0.274        0.103       58.443       16.732        0.082      339.065       12.143      863.255
10/07/2013  02:31:00      -67.165      -27.056       -0.686       27.351       26.743       15.613      748.082      715.186      243.773        0.347        0.085       72.410       14.757        0.042      339.118       12.231      863.251
10/07/2013  02:32:00      -75.534      -33.740        1.725       15.646       14.899       10.528      244.790      221.969      110.844        0.371        0.029       82.727        9.063        0.012      339.023       12.072      863.233
10/07/2013  02:33:00      -39.341      -23.228        2.567       22.623       15.509        9.751      511.789      240.517       95.079        0.147        0.042       45.687        7.506        0.027      338.893       11.853      863.214
10/07/2013  02:34:00       -4.789      -29.488       -0.423       15.541       18.915        7.890      241.526      357.780       62.250        0.078        0.033       29.875        8.440        0.080      338.918       11.896      863.206
10/07/2013  02:35:00       -1.415      -22.544       -4.753       13.592       11.234        7.836      184.730      126.196       61.407        0.045        0.019       22.588        6.594        0.085      339.011       12.051      863.218
10/07/2013  02:36:00      -22.604      -25.749        6.270       18.697       15.751        7.960      349.568      248.090       63.361        0.094        0.033       34.263        6.187        0.033      339.033       12.090      863.247
10/07/2013  02:37:00      -84.261       -5.671       -3.471       30.803       20.940       14.139      948.827      438.498      199.925        0.437        0.079       84.452       13.181        0.024      338.827       11.742      863.258
10/07/2013  02:38:00      -90.797       17.420      -10.573       37.820       35.153       20.695     1430.367     1235.739      428.270        0.588        0.155       92.453       16.153        0.031      338.560       11.293      863.254
10/07/2013  02:39:00      -88.912       11.038      -11.210       15.090       22.740       14.339      227.713      517.102      205.618        0.455        0.048       89.594        8.931        0.010      338.700       11.530      863.233
10/07/2013  02:40:00      -48.972      -28.539        1.344       23.732       16.071       10.730      563.216      258.269      115.128        0.208        0.047       56.681       11.501        0.041      338.869       11.811      863.218
10/07/2013  02:41:00      -60.699      -28.655       -5.307       25.849        9.145        8.255      668.155       83.631       68.139        0.268        0.041       67.123       11.545        0.030      338.912       11.885      863.231
10/07/2013  02:42:00      -76.220       27.592       -6.426       26.374       25.168       14.411      695.575      633.450      207.672        0.407        0.077       81.060        7.924        0.010      338.627       11.407      863.257
10/07/2013  02:43:00      -99.199       22.645      -10.750       38.081       22.743       23.989     1450.196      517.244      575.462        0.651        0.127      101.751       18.823        0.034      338.426       11.070      863.252
10/07/2013  02:44:00     -123.850       26.293      -12.347       32.195       28.856       19.314     1036.496      832.677      373.023        0.921        0.112      126.611       11.458        0.008      338.607       11.374      863.235
10/07/2013  02:45:00      -92.701       14.609       -9.173       28.581       26.627       16.698      816.899      709.012      278.813        0.535        0.090       93.845        8.792        0.009      338.748       11.609      863.229
10/07/2013  02:46:00      -54.170      -18.792       -2.741       28.119       21.910       14.476      790.697      480.060      209.554        0.239        0.074       57.337       10.598        0.034      338.620       11.396      863.218
10/07/2013  02:47:00     -101.317      -26.148      -11.620       24.853       21.992       14.467      617.674      483.629      209.304        0.620        0.066      104.636       11.216        0.011      338.431       11.079      863.207
10/07/2013  02:48:00     -140.939       -4.948      -15.301       27.628       17.542       16.308      763.297      307.734      265.945        1.073        0.067      141.026       14.757        0.011      338.390       11.008      863.182
10/07/2013  02:49:00     -167.072       -8.666      -16.624       16.429       16.861       13.843      269.914      284.303      191.634        1.451        0.037      167.297        6.074        0.001      338.397       11.021      863.170
10/07/2013  02:50:00     -153.258       -9.018      -21.060       19.950       25.713       15.313      398.010      661.178      234.500        1.265        0.065      153.524       11.060        0.005      338.394       11.016      863.161
10/07/2013  02:51:00     -109.513      -42.981       -9.953       16.534       18.090       17.165      273.364      327.265      294.635        0.742        0.045      117.646       10.102        0.007      338.436       11.086      863.163
10/07/2013  02:52:00      -97.783      -31.234       -3.298       34.794       22.707       15.273     1210.652      515.630      233.273        0.625        0.098      102.650       10.162        0.010      338.447       11.104      863.156
10/07/2013  02:53:00     -120.810      -31.092       -5.373       27.108       21.467       14.975      734.864      460.814      224.255        0.851        0.071      124.747       14.149        0.013      338.417       11.053      863.151
10/07/2013  02:54:00     -107.662      -10.722      -13.120       35.351       32.990       20.780     1249.705     1088.345      431.802        0.732        0.138      108.195       16.473        0.023      338.433       11.081      863.143
10/07/2013  02:55:00      -43.682      -14.752       -0.350       26.135       27.689       18.480      683.039      766.703      341.521        0.196        0.090       46.106       15.162        0.108      338.533       11.249      863.124
10/07/2013  02:56:00      -31.933      -25.576        6.404       29.013       20.823       15.777      841.753      433.578      248.908        0.162        0.076       40.913       13.826        0.114      338.495       11.186      863.104
10/07/2013  02:57:00      -92.995      -57.152       -3.787       26.028       21.869       15.949      677.453      478.266      254.362        0.667        0.071      109.153        9.838        0.008      338.460       11.126      863.116
10/07/2013  02:58:00     -115.227      -71.563       -7.860       49.041       30.330       18.819     2405.045      919.939      354.173        1.107        0.184      135.641       15.924        0.014      338.508       11.206      863.145
10/07/2013  02:59:00     -108.067      -37.927       -3.075       41.789       21.473       16.675     1746.302      461.080      278.048        0.781        0.124      114.529       20.728        0.033      338.467       11.136      863.174
10/07/2013  03:00:00      -72.394      -16.042        3.481       29.444       20.309       13.693      866.969      412.465      187.485        0.349        0.073       74.150       10.278        0.019      338.496       11.184      863.176
10/07/2013  03:01:00      -80.277      -33.184       -5.610       23.101       18.598       12.158      533.648      345.895      147.806        0.430        0.051       86.865       13.390        0.024      338.454       11.116      863.158
10/07/2013  03:02:00      -71.725      -48.166        0.279       22.488       20.540       15.468      505.697      421.896      239.253        0.432        0.058       86.397       11.771        0.019      338.391       11.011      863.137
10/07/2013  03:03:00      -88.588      -35.786       -2.429       37.573       15.802       14.632     1411.701      249.690      214.082        0.550        0.094       95.544       15.527        0.026      338.435       11.083      863.118
10/07/2013  03:04:00     -124.960      -20.092      -17.056       16.504       11.101       11.262      272.384      123.229      126.842        0.842        0.026      126.565        8.316        0.004      338.424       11.067      863.106
10/07/2013  03:05:00     -127.366       -9.790      -16.863       10.349       13.140       11.217      107.103      172.667      125.815        0.850        0.020      127.741        7.290        0.003      338.396       11.018      863.115
10/07/2013  03:06:00     -113.881      -28.748       -6.989       27.072       25.885       15.819      732.918      670.025      250.225        0.775        0.083      117.454       15.032        0.016      338.360       10.961      863.132
10/07/2013  03:07:00     -109.822      -52.797       -1.848       25.923       26.894       18.651      671.989      723.297      347.851        0.830        0.087      121.854       15.654        0.017      338.234       10.747      863.163
10/07/2013  03:08:00     -128.129      -46.186       -8.632       31.925       23.560       18.731     1019.236      555.091      350.853        1.027        0.096      136.199       19.709        0.021      338.157       10.617      863.173
10/07/2013  03:09:00      -67.321      -25.135       -3.610       26.325       26.420       18.908      693.031      698.007      357.509        0.346        0.087       71.860       16.310        0.052      338.143       10.594      863.160
10/07/2013  03:10:00      -51.515       -0.303      -12.630       10.759       16.459        9.019      115.753      270.906       81.340        0.164        0.023       51.516        9.827        0.036      338.227       10.736      863.145
10/07/2013  03:11:00     -101.864      -29.072       -9.591       36.253       28.860       16.789     1314.264      832.888      281.878        0.687        0.121      105.931       15.338        0.021      338.251       10.775      863.159
10/07/2013  03:12:00     -132.698      -29.657       -8.987       44.619       35.083       23.646     1990.857     1230.818      559.154        1.117        0.189      135.971       19.832        0.021      338.088       10.501      863.169
10/07/2013  03:13:00      -90.038      -38.194      -10.456       28.567       27.212       19.114      816.078      740.469      365.359        0.580        0.096       97.804        6.223        0.004      338.077       10.485      863.160
10/07/2013  03:14:00      -86.847      -37.042      -16.293       35.942       19.525       12.936     1291.858      381.211      167.347        0.551        0.092       94.417        9.079        0.009      338.096       10.516      863.155
10/07/2013  03:15:00      -36.382      -20.027       -4.776       39.456       16.098       14.556     1556.807      259.140      211.866        0.189        0.101       41.530        8.086        0.038      338.102       10.526      863.161
10/07/2013  03:16:00      -39.599      -43.527      -18.251       21.883       18.922       14.914      478.872      358.048      222.424        0.243        0.053       58.844        6.364        0.012      338.135       10.582      863.158
10/07/2013  03:17:00      -77.916      -26.534      -13.650       15.845       21.419        9.059      251.049      458.787       82.070        0.388        0.040       82.310        4.845        0.003      338.324       10.898      863.136
10/07/2013  03:18:00      -85.418      -28.864      -13.878       19.244       12.635       10.834      370.339      159.634      117.375        0.448        0.032       90.163        9.743        0.012      338.210       10.707      863.112
10/07/2013  03:19:00     -102.771      -32.865      -14.106       14.090       15.281       11.218      198.525      233.514      125.839        0.620        0.028      107.898        9.130        0.007      338.206       10.698      863.091
10/07/2013  03:20:00     -109.719      -43.734      -17.979       25.442       20.022       13.672      647.301      400.879      186.925        0.775        0.062      118.114       11.970        0.010      338.223       10.730      863.081
10/07/2013  03:21:00     -129.965      -42.369      -19.802       22.207       17.056       12.168      493.141      290.896      148.067        1.000        0.047      136.697       11.973        0.008      338.196       10.682      863.088
10/07/2013  03:22:00     -130.613      -50.346      -16.936       10.849       12.591        8.450      117.705      158.545       71.397        1.011        0.017      139.980        6.296        0.002      338.172       10.643      863.103
10/07/2013  03:23:00     -118.371      -42.373      -15.874        9.657        9.509        8.452       93.263       90.415       71.442        0.816        0.013      125.726        5.401        0.002      338.250       10.774      863.097
10/07/2013  03:24:00     -120.503      -24.325      -20.050       12.133        9.587        9.515      147.215       91.915       90.534        0.792        0.016      122.934        6.782        0.003      338.301       10.860      863.073
10/07/2013  03:25:00     -100.066      -24.860      -17.284       17.421       13.483       12.075      303.490      181.798      145.812        0.578        0.032      103.108        9.088        0.008      338.323       10.896      863.050
10/07/2013  03:26:00     -122.803      -45.829      -14.919       22.281       13.558       11.749      496.427      183.815      138.033        0.911        0.041      131.076        7.343        0.003      338.357       10.953      863.030
10/07/2013  03:27:00     -169.813      -56.489      -18.661       16.281       30.636       14.607      265.069      938.556      213.365        1.690        0.071      178.962       10.331        0.003      338.227       10.734      863.006
10/07/2013  03:28:00     -145.927      -46.617      -26.355       11.552       19.262        9.368      133.450      371.009       87.755        1.238        0.030      153.192        5.712        0.001      338.081       10.489      862.996
10/07/2013  03:29:00     -143.079     -132.356       -3.766      102.008       71.297       39.991    10405.729     5083.301     1599.303        2.754        0.854      194.910       48.946        0.063      337.997       10.348      863.006
10/07/2013  03:30:00     -220.713     -125.310       -0.333       85.582       78.660       38.054     7324.200     6187.387     1448.143        3.969        0.748      253.805       39.694        0.024      338.097       10.514      863.013
10/07/2013  03:31:00     -117.465       14.692       -5.123       46.949       36.593       29.390     2204.217     1339.058      863.743        0.922        0.220      118.380       26.912        0.052      338.111       10.541      862.977
10/07/2013  03:32:00      -72.305       23.118       -8.932       39.519       25.845       20.124     1561.748      667.942      404.985        0.424        0.132       75.911       22.606        0.089      338.059       10.454      862.951
10/07/2013  03:33:00     -129.711      -31.944        2.861       72.782       52.093       31.839     5297.286     2713.644     1013.738        1.344        0.451      133.586       32.861        0.061      338.042       10.425      862.962
10/07/2013  03:34:00      -71.383      -43.680       10.353       76.012       36.344       28.429     5777.779     1320.879      808.230        0.751        0.395       83.686       32.736        0.153      338.077       10.483      863.011
10/07/2013  03:35:00      -92.242      -12.002       -0.456       57.132       29.530       22.867     3264.051      872.045      522.911        0.665        0.233       93.020       25.207        0.073      338.051       10.440      863.050
10/07/2013  03:36:00      -93.858      -20.365        2.611       52.435       35.395       22.838     2749.433     1252.829      521.591        0.688        0.226       96.042       21.451        0.050      338.096       10.516      863.058
10/07/2013  03:37:00      -88.249      -35.429       -4.238       26.350       26.944       19.313      694.339      726.002      372.986        0.543        0.090       95.095       15.761        0.027      338.092       10.508      863.042
10/07/2013  03:38:00      -83.870      -21.552        0.907       30.577       24.946       20.042      934.971      622.323      401.686        0.473        0.098       86.595       18.090        0.044      338.030       10.404      863.046
10/07/2013  03:39:00      -57.700      -32.589        0.051       19.853       23.535       16.521      394.153      553.913      272.942        0.281        0.061       66.267       13.501        0.042      338.057       10.451      863.054
10/07/2013  03:40:00      -91.297      -26.887       -6.442       21.350       16.645       10.261      455.805      277.048      105.298        0.497        0.042       95.174        5.653        0.004      338.526       11.236      863.046
10/07/2013  03:41:00     -123.240        2.321      -12.550       38.771       16.766       12.734     1503.204      281.101      162.166        0.865        0.097      123.262       14.907        0.015      338.600       11.363      863.027
10/07/2013  03:42:00     -137.205      -16.272       -0.590       35.531       26.403       18.619     1262.448      697.111      346.661        1.070        0.115      138.166       20.000        0.021      338.468       11.139      863.007
10/07/2013  03:43:00      -78.026      -17.703        6.117       41.091       26.696       23.540     1688.465      712.694      554.117        0.470        0.148       80.009       21.973        0.075      338.397       11.021      863.000
10/07/2013  03:44:00      -32.209        4.842        8.711       32.285       28.803       22.236     1042.332      829.631      494.426        0.175        0.118       32.571       19.977        0.376      338.270       10.807      863.010
10/07/2013  03:45:00      -28.284       18.641       -2.915       26.565       23.237       21.205      705.716      539.953      449.664        0.143        0.085       33.874       21.634        0.408      338.276       10.817      863.012
10/07/2013  03:46:00       -4.040       18.885       10.162       13.056        9.402       12.952      170.462       88.393      167.764        0.045        0.021       19.313        6.349        0.108      338.223       10.728      862.982
10/07/2013  03:47:00       63.778       52.611        5.422       26.855       25.922       22.084      721.211      671.971      487.702        0.437        0.094       82.677       18.449        0.050      338.120       10.555      862.946
10/07/2013  03:48:00      123.964       49.918       -8.786       29.052       33.612       22.603      844.022     1129.744      510.878        1.021        0.124      133.637       12.838        0.009      337.885       10.161      862.910
10/07/2013  03:49:00      148.164       75.081        8.443       32.822       27.570       25.703     1077.314      760.105      660.630        1.508        0.125      166.102       15.703        0.009      337.794       10.009      862.881
10/07/2013  03:50:00      106.696       40.230        1.450       34.357       32.851       26.379     1180.380     1079.183      695.850        0.798        0.148      114.028       21.337        0.035      337.791       10.004      862.868
10/07/2013  03:51:00       72.573       32.459       -1.847       16.397       17.334       11.860      268.864      300.471      140.660        0.352        0.035       79.501        5.704        0.005      337.680        9.816      862.867
10/07/2013  03:52:00       58.065       23.607       12.268       12.288       12.043       11.577      150.984      145.040      134.018        0.225        0.022       62.681        7.020        0.013      337.703        9.856      862.862
10/07/2013  03:53:00       23.836       -3.070       13.173       17.735       26.127       17.933      314.516      682.645      321.593        0.103        0.066       24.033       16.976        0.499      337.772        9.973      862.887
10/07/2013  03:54:00       16.422      -17.930        3.110       14.410       26.527       11.967      207.634      703.664      143.202        0.083        0.053       24.314       13.767        0.321      337.855       10.111      862.877
10/07/2013  03:55:00      -14.066      -46.196       -6.651       33.379       19.577        7.532     1114.157      383.260       56.731        0.196        0.078       48.290        8.966        0.034      338.016       10.380      862.881
10/07/2013  03:56:00       -4.154        6.143       13.648       18.263       17.317       12.775      333.541      299.863      163.206        0.052        0.040        7.416        6.360        0.735      337.979       10.319      862.885
10/07/2013  03:57:00        6.683      -36.595       -1.297       13.334       18.227       17.107      177.794      332.207      292.636        0.109        0.040       37.201       13.169        0.125      337.971       10.306      862.889
10/07/2013  03:58:00       14.106       20.268       21.662       10.992       14.800       11.963      120.831      219.030      143.123        0.078        0.024       24.694       10.280        0.173      337.906       10.196      862.877
10/07/2013  03:59:00       -0.307      -10.996       11.043       12.920       19.251        9.878      166.939      370.612       97.576        0.044        0.032       11.000       11.553        1.103      337.918       10.216      862.882
10/07/2013  04:00:00       -9.921      -16.534       -0.639       17.068       14.536        9.802      291.325      211.288       96.087        0.049        0.030       19.282        5.249        0.074      337.958       10.283      862.918
10/07/2013  04:01:00       -6.133       15.493       12.693       12.474       16.692        9.702      155.603      278.638       94.135        0.048        0.026       16.663       10.066        0.365      337.856       10.111      862.923
10/07/2013  04:02:00        3.862       23.498        8.400       11.445       14.317       11.711      130.996      204.983      137.144        0.056        0.024       23.813        9.293        0.152      337.861       10.120      862.926
10/07/2013  04:03:00       22.951       48.061       -1.000       12.884       14.224       11.706      165.997      202.316      137.039        0.167        0.025       53.260       10.407        0.038      337.801       10.021      862.913
10/07/2013  04:04:00       17.102       36.756       -6.774       12.453       12.962        6.288      155.066      168.011       39.544        0.103        0.018       40.540        5.412        0.018      337.795       10.010      862.895
10/07/2013  04:05:00      -38.537       37.608      -11.248       39.482       17.706        8.859     1558.802      313.514       78.490        0.249        0.098       53.846       11.516        0.046      337.861       10.121      862.890
10/07/2013  04:06:00      -72.082       50.716       -6.083       34.388       31.036       19.131     1182.563      963.259      365.982        0.516        0.126       88.136       19.595        0.049      337.787        9.998      862.867
10/07/2013  04:07:00      -54.297      104.926      -16.071       20.963       15.175       11.698      439.440      230.279      136.854        0.751        0.040      118.142       11.201        0.009      338.063       10.462      862.831
10/07/2013  04:08:00       -8.260      144.734      -19.680       16.388       33.122       14.661      268.571     1097.094      214.946        1.149        0.079      144.969       15.242        0.011      337.923       10.224      862.817
10/07/2013  04:09:00       11.227      150.174      -24.119       15.266       25.023       13.913      233.054      626.159      193.581        1.216        0.053      150.593        9.488        0.004      337.796       10.011      862.806
10/07/2013  04:10:00       19.555      122.036      -23.453       20.076       27.017       17.601      403.032      729.914      309.780        0.863        0.072      123.593       17.009        0.019      337.720        9.885      862.789
10/07/2013  04:11:00       -4.678      121.403      -18.262       16.716       19.048       13.866      279.428      362.830      192.259        0.796        0.042      121.493        7.340        0.004      337.709        9.866      862.783
10/07/2013  04:12:00       17.987      122.884      -17.241       22.734       21.190       13.184      516.819      449.034      173.826        0.843        0.057      124.193       14.329        0.013      337.701        9.852      862.775
10/07/2013  04:13:00       30.064      102.201      -13.567       20.809       32.514       18.615      433.020     1057.181      346.534        0.668        0.092      106.532       15.284        0.021      337.623        9.722      862.772
10/07/2013  04:14:00       26.128       81.287       -8.286       26.348       36.621       15.866      694.192     1341.117      251.718        0.482        0.114       85.383       12.629        0.022      337.644        9.756      862.790
10/07/2013  04:15:00       60.633       41.103        1.753       20.198       15.324       16.640      407.959      234.819      276.880        0.314        0.046       73.251        9.607        0.017      337.613        9.706      862.785
10/07/2013  04:16:00       51.847       32.338        3.916       17.272       12.920       15.301      298.315      166.927      234.129        0.222        0.035       61.105       11.372        0.035      337.648        9.764      862.781
10/07/2013  04:17:00        2.151        8.839       17.151       10.128       15.294        9.362      102.585      233.897       87.650        0.040        0.021        9.097        5.441        0.358      337.584        9.656      862.799
10/07/2013  04:18:00        2.758       -2.251       25.712       11.867       23.170       16.043      140.827      536.840      257.380        0.080        0.047        3.560        9.942        7.800      337.625        9.726      862.820
10/07/2013  04:19:00       -4.984       12.178       30.792        7.065       18.101       13.414       49.918      327.656      179.940        0.084        0.028       13.159        6.762        0.264      337.598        9.680      862.810
10/07/2013  04:20:00       -3.784       22.200       31.529       10.170       14.527       15.075      103.430      211.036      227.241        0.102        0.027       22.520       12.569        0.311      337.581        9.651      862.793
10/07/2013  04:21:00       12.583       -1.776        7.534       16.302       10.165        9.970      265.746      103.322       99.404        0.034        0.023       12.708        8.964        0.498      337.655        9.774      862.784
10/07/2013  04:22:00       21.170        6.020        3.927        9.218        6.818        5.650       84.975       46.483       31.924        0.033        0.008       22.009        4.943        0.050      337.820       10.052      862.798
10/07/2013  04:23:00       17.803       -3.153        6.799       15.493       15.823       12.219      240.024      250.367      149.310        0.051        0.032       18.080        6.112        0.114      337.846       10.095      862.818
10/07/2013  04:24:00       -1.568       13.957       41.966       12.872       29.312       11.969      165.681      859.183      143.260        0.156        0.058       14.045       14.028        0.998      337.832       10.073      862.819
10/07/2013  04:25:00        9.696       25.026       45.607       19.887       30.446       12.894      395.481      926.953      166.245        0.214        0.074       26.839       14.922        0.309      337.726        9.895      862.828
10/07/2013  04:26:00       53.639       43.024       40.913       22.153       19.720       18.326      490.745      388.885      335.826        0.381        0.061       68.762        7.503        0.012      337.769        9.967      862.839
10/07/2013  04:27:00       33.305       27.444       16.111       26.007       18.900       11.558      676.381      357.195      133.584        0.164        0.058       43.156        6.853        0.025      337.718        9.882      862.860
10/07/2013  04:28:00       -6.901      -30.111       -4.000       20.046       16.841       12.395      401.838      283.636      153.648        0.090        0.042       30.891        9.419        0.093      337.769        9.967      862.884
10/07/2013  04:29:00      -84.202        8.996      -10.943       21.183       12.017       13.594      448.717      144.415      184.786        0.403        0.039       84.681       12.417        0.022      337.825       10.060      862.888
10/07/2013  04:30:00      -99.959        1.253       -6.608       28.955       26.215       12.552      838.407      687.242      157.561        0.586        0.084       99.966       12.056        0.015      337.788        9.998      862.881
10/07/2013  04:31:00      -23.428      -34.569       -0.922       21.954       16.198        8.799      481.963      262.381       77.419        0.128        0.041       41.760        6.448        0.024      337.675        9.809      862.889
10/07/2013  04:32:00      -51.744      -34.711       -3.490       23.399       22.012        8.956      547.512      484.517       80.204        0.250        0.056       62.308       10.768        0.030      337.815       10.044      862.901
10/07/2013  04:33:00      -37.931      -25.336       -0.008       26.295       17.991       11.962      691.435      323.692      143.079        0.162        0.058       45.614       12.717        0.078      337.710        9.867      862.892
10/07/2013  04:34:00      -25.914      -24.464        0.335       28.718       12.884       14.410      824.709      166.006      207.638        0.123        0.060       35.638       13.079        0.135      337.738        9.916      862.858
10/07/2013  04:35:00      -36.159      -20.738        1.207       18.081       10.652        6.922      326.924      113.469       47.914        0.111        0.024       41.684        8.263        0.039      337.826       10.064      862.819
10/07/2013  04:36:00      -59.147        4.054       -8.501        9.138       11.190        6.093       83.512      125.222       37.122        0.192        0.012       59.286        4.232        0.005      337.872       10.137      862.780
10/07/2013  04:37:00      -60.320      -17.081      -13.842        8.431        8.196        5.998       71.082       67.167       35.978        0.215        0.009       62.692        4.232        0.005      337.919       10.217      862.748
10/07/2013  04:38:00      -48.685        1.282       -9.548        5.117        5.166        4.644       26.185       26.683       21.563        0.127        0.004       48.702        2.827        0.003      337.954       10.279      862.739
10/07/2013  04:39:00      -33.845       -3.491       -9.386        6.706        4.455        4.320       44.970       19.848       18.662        0.066        0.004       34.024        1.785        0.003      337.960       10.289      862.734
10/07/2013  04:40:00      -60.928      -22.898      -10.579       15.660       11.494        7.502      245.242      132.105       56.274        0.239        0.022       65.088        5.813        0.008      337.971       10.305      862.722
10/07/2013  04:41:00       -9.032      -14.732        2.476       27.913       15.154       11.734      779.109      229.647      137.682        0.073        0.057       17.280       11.800        0.466      337.843       10.090      862.700
10/07/2013  04:42:00       -3.278       15.279       -1.116       12.261        6.698        5.234      150.335       44.862       27.397        0.023        0.011       15.627        6.154        0.155      337.782        9.987      862.692
10/07/2013  04:43:00      -11.221        2.663        2.028        5.671       10.312        6.352       32.155      106.339       40.344        0.016        0.009       11.533        6.283        0.297      337.792       10.004      862.698
10/07/2013  04:44:00      -12.168       -5.319        2.660        7.256        6.645        5.930       52.655       44.151       35.169        0.016        0.007       13.280        4.717        0.126      337.796       10.011      862.716
10/07/2013  04:45:00       -8.772        0.097        1.078        6.292        5.078        3.084       39.594       25.782        9.513        0.008        0.004        8.772        2.188        0.062      337.774        9.974      862.727
10/07/2013  04:46:00       -4.227        4.423        5.708        6.924        6.252        6.564       47.936       39.083       43.091        0.010        0.007        6.118        6.069        0.984      337.778        9.980      862.734
10/07/2013  04:47:00        1.851        6.796        5.272        9.518       11.742        5.494       90.597      137.870       30.187        0.017        0.013        7.044        6.049        0.737      337.637        9.745      862.748
10/07/2013  04:48:00      -43.157      -13.351       -4.351       36.869       13.558       10.449     1359.338      183.821      109.183        0.186        0.083       45.175       13.725        0.092      337.569        9.631      862.755
10/07/2013  04:49:00     -125.394      -21.952      -16.467       14.421       17.141       13.083      207.966      293.829      171.157        0.857        0.034      127.301        6.362        0.002      337.470        9.464      862.761
10/07/2013  04:50:00     -106.152      -26.945       -6.932       24.451       21.222       13.841      597.859      450.371      191.570        0.664        0.062      109.518       11.222        0.010      337.464        9.456      862.773
10/07/2013  04:51:00     -100.730      -26.338       -6.451       19.504       16.277       16.177      380.413      264.926      261.704        0.589        0.045      104.117       13.770        0.017      337.505        9.526      862.794
10/07/2013  04:52:00      -68.577      -39.188       -2.701       41.994       25.632       18.292     1763.470      656.991      334.604        0.450        0.138       78.984       23.429        0.088      337.572        9.637      862.816
10/07/2013  04:53:00     -117.112      -61.741      -12.443       14.773       12.800       10.463      218.249      163.851      109.483        0.909        0.025      132.390        7.899        0.004      337.500        9.517      862.829
10/07/2013  04:54:00     -126.865      -44.956      -16.070       18.864       20.611       18.513      355.841      424.824      342.714        0.975        0.056      134.595       15.065        0.013      337.502        9.520      862.836
10/07/2013  04:55:00     -115.420      -39.921      -17.183       19.403       17.831       14.210      376.481      317.944      201.938        0.805        0.045      122.129        1.733        0.000      337.484        9.489      862.824
10/07/2013  04:56:00      -93.842      -24.180       -5.849       27.124       21.542       18.171      735.713      464.065      330.183        0.548        0.076       96.907       18.896        0.038      337.474        9.472      862.786
10/07/2013  04:57:00     -100.170      -11.162      -17.746       18.329       19.587       16.903      335.956      383.663      285.697        0.574        0.050      100.790       11.742        0.014      337.488        9.495      862.731
10/07/2013  04:58:00     -136.158      -23.093      -16.948       20.118       19.655       13.308      404.749      386.321      177.104        1.016        0.048      138.103       11.491        0.007      337.534        9.573      862.686
10/07/2013  04:59:00     -135.777      -39.696      -14.817       27.492       23.182       14.885      755.822      537.405      221.573        1.087        0.076      141.461       13.191        0.009      337.525        9.557      862.663
10/07/2013  05:00:00     -165.037      -43.575      -20.388       14.414       19.222       15.051      207.758      369.482      226.547        1.518        0.040      170.692        9.608        0.003      337.491        9.500      862.663
10/07/2013  05:01:00     -139.920      -24.670      -19.848       21.102       15.377        8.967      445.274      236.440       80.413        1.067        0.038      142.079        5.349        0.001      337.433        9.405      862.672
10/07/2013  05:02:00      -92.097      -27.823      -13.632       17.466       22.303       14.230      305.075      497.425      202.500        0.522        0.050       96.208        8.337        0.008      337.374        9.306      862.673
10/07/2013  05:03:00      -84.362      -37.527       -7.602       27.032       21.797       19.208      730.733      475.094      368.966        0.508        0.079       92.332       17.908        0.038      337.417        9.374      862.664
10/07/2013  05:04:00     -101.927      -19.830       -5.483       27.727       21.394       18.436      768.778      457.685      339.897        0.619        0.078      103.838       14.674        0.020      337.460        9.447      862.658
10/07/2013  05:05:00      -91.321      -21.901       -3.104       36.250       28.479       17.440     1314.038      811.041      304.166        0.563        0.121       93.910       15.045        0.026      337.325        9.222      862.662
10/07/2013  05:06:00      -10.233      -17.778       10.430       21.381       18.527       15.285      457.139      343.268      233.619        0.078        0.052       20.512        8.265        0.162      337.280        9.150      862.688
10/07/2013  05:07:00       -8.055       -5.266        9.662       29.535       16.677       14.474      872.294      278.135      209.490        0.077        0.068        9.624       13.753        2.042      337.361        9.282      862.719
10/07/2013  05:08:00      -73.520      -42.681      -14.245       37.972       31.595       23.761     1441.887      998.256      564.565        0.522        0.150       85.011       17.766        0.044      337.355        9.272      862.722
10/07/2013  05:09:00     -124.395      -65.308      -10.845       19.067       23.241       11.996      363.544      540.127      143.907        1.045        0.052      140.497        6.396        0.002      337.237        9.077      862.721
10/07/2013  05:10:00     -124.278      -59.340       -6.220       29.988       19.343       18.267      899.299      374.146      333.674        1.031        0.080      137.718       12.882        0.009      337.137        8.909      862.723
10/07/2013  05:11:00     -122.214      -56.294       -3.000       43.630       37.044       19.537     1903.618     1372.240      381.691        1.089        0.183      134.555       12.182        0.008      337.247        9.093      862.721
10/07/2013  05:12:00     -127.270       -1.908       -3.943       60.478       29.795       22.469     3657.540      887.748      504.841        1.063        0.253      127.284       26.534        0.043      337.186        8.990      862.698
10/07/2013  05:13:00     -131.076       22.572      -10.963       38.095       30.927       20.445     1451.223      956.497      417.979        1.032        0.141      133.005       18.040        0.018      337.290        9.163      862.669
10/07/2013  05:14:00      -88.918       -9.513       -4.493       28.854       20.772       19.865      832.543      431.469      394.627        0.484        0.083       89.426       18.887        0.045      337.251        9.100      862.641
10/07/2013  05:15:00      -87.681      -41.381      -13.457       20.532       24.634       15.668      421.569      606.857      245.485        0.543        0.064       96.955        5.645        0.003      337.324        9.222      862.641
10/07/2013  05:16:00     -109.352       -4.264       -9.211       72.534       39.318       30.293     5261.242     1545.933      917.670        0.989        0.386      109.435       34.959        0.102      337.136        8.906      862.664
10/07/2013  05:17:00     -139.082       -8.595      -16.046       53.081       42.870       31.652     2817.559     1837.873     1001.860        1.267        0.283      139.347       31.291        0.050      337.084        8.819      862.686
10/07/2013  05:18:00      -80.737        3.017       -7.327       40.746       36.969       19.961     1660.245     1366.726      398.431        0.500        0.171       80.794       10.618        0.017      337.110        8.863      862.690
10/07/2013  05:19:00      -87.378        2.254       -9.726       32.956       33.106       20.491     1086.120     1095.998      419.892        0.517        0.130       87.407       15.197        0.030      337.345        9.258      862.683
10/07/2013  05:20:00      -63.886      -36.363       -9.696       39.262       33.555       18.958     1541.506     1125.942      359.404        0.426        0.151       73.510       16.257        0.049      337.388        9.328      862.681
10/07/2013  05:21:00     -111.164       11.484      -14.885       27.947       38.104       18.871      781.017     1451.912      356.111        0.765        0.129      111.756       12.315        0.012      337.338        9.246      862.665
10/07/2013  05:22:00      -62.909       -7.608       -8.688       38.369       27.678       17.333     1472.188      766.069      300.448        0.331        0.127       63.368       12.405        0.038      337.342        9.251      862.670
10/07/2013  05:23:00      -56.184      -11.365       -8.609       32.386       17.224       12.349     1048.834      296.668      152.488        0.243        0.075       57.321       12.942        0.051      337.393        9.336      862.695
10/07/2013  05:24:00      -76.767      -40.008      -13.131       23.668       31.350       14.846      560.168      982.803      220.410        0.471        0.088       86.567        8.831        0.010      337.285        9.156      862.722
10/07/2013  05:25:00      -95.413      -42.112       -7.227       28.260       23.980       19.666      798.600      575.030      386.754        0.634        0.088      104.293       10.415        0.010      337.192        9.001      862.731
10/07/2013  05:26:00      -97.325      -31.435      -13.884       26.099       22.140       15.431      681.177      490.200      238.107        0.603        0.070      102.276        7.800        0.006      337.213        9.036      862.728
10/07/2013  05:27:00     -112.723      -30.011      -12.088       16.826       16.463       12.621      283.129      271.046      159.284        0.723        0.036      116.650        8.948        0.006      337.235        9.074      862.721
10/07/2013  05:28:00     -132.900      -34.129       -7.879       21.480       25.493       16.618      461.402      649.877      276.146        1.014        0.069      137.213       10.467        0.006      337.208        9.028      862.711
10/07/2013  05:29:00     -133.892      -63.456      -11.855       42.823       38.462       21.985     1833.811     1479.363      483.341        1.294        0.190      148.168       14.874        0.010      337.213        9.035      862.706
10/07/2013  05:30:00     -149.266      -43.567      -12.552       32.528       38.120       21.189     1058.083     1453.162      448.987        1.365        0.148      155.494       14.315        0.008      337.188        8.995      862.703
10/07/2013  05:31:00     -149.825      -35.333       -9.338       39.087       36.735       23.311     1527.758     1349.424      543.389        1.360        0.171      153.934       22.641        0.022      337.156        8.939      862.704
10/07/2013  05:32:00     -128.940      -19.479       -8.742       30.118       24.626       20.220      907.070      606.454      408.840        0.950        0.096      130.404       18.061        0.019      337.150        8.932      862.696
10/07/2013  05:33:00     -125.568       -0.286      -11.292       41.322       28.883       24.079     1707.543      834.227      579.780        0.951        0.156      125.568       22.836        0.033      337.103        8.852      862.679
10/07/2013  05:34:00     -125.239      -27.541       -5.065       30.229       34.226       18.699      913.772     1171.390      349.668        0.945        0.122      128.232       14.634        0.013      337.164        8.954      862.663
10/07/2013  05:35:00     -168.920      -48.778      -17.893       25.658       23.375       13.117      658.308      546.409      172.049        1.630        0.069      175.822        8.464        0.002      337.290        9.166      862.675
10/07/2013  05:36:00     -168.704      -15.223      -10.947       51.611       38.152       23.507     2663.706     1455.570      552.596        1.674        0.234      169.389       22.041        0.017      337.241        9.083      862.684
10/07/2013  05:37:00     -204.411       46.308      -24.003       39.729       52.740       30.987     1578.354     2781.501      960.222        2.491        0.266      209.591       17.169        0.007      337.363        9.285      862.684
10/07/2013  05:38:00     -163.804       45.116      -23.290       47.902       54.292       28.603     2294.589     2947.607      818.111        1.773        0.303      169.904       24.117        0.020      337.334        9.236      862.665
10/07/2013  05:39:00     -140.037       12.115      -15.037       46.205       51.195       26.299     2134.891     2620.880      691.656        1.271        0.272      140.561       26.249        0.035      337.388        9.328      862.639
10/07/2013  05:40:00      -92.421      -24.019       -7.447       52.072       39.780       25.062     2711.522     1582.464      628.088        0.705        0.246       95.491       25.266        0.070      337.373        9.304      862.644
10/07/2013  05:41:00     -104.654      -40.587       -8.652       39.517       39.173       24.928     1561.592     1534.488      621.417        0.820        0.186      112.249       12.684        0.013      337.271        9.133      862.648
10/07/2013  05:42:00     -148.898        5.392       -3.484       46.032       39.999       25.985     2118.964     1599.902      675.227        1.330        0.220      148.995       25.459        0.029      337.273        9.135      862.658
10/07/2013  05:43:00     -120.621        7.910       -0.231       42.848       36.006       28.165     1835.929     1296.464      793.250        0.927        0.196      120.880       25.727        0.045      337.246        9.092      862.661
10/07/2013  05:44:00      -24.312       27.478        4.623       24.849       28.435       21.295      617.461      808.547      453.487        0.162        0.094       36.689       18.318        0.249      337.362        9.284      862.662
10/07/2013  05:45:00      -12.982        7.240       -6.250       12.672       14.204        6.033      160.581      201.745       36.400        0.033        0.020       14.864        6.300        0.180      337.438        9.411      862.670
10/07/2013  05:46:00      -31.579      -25.790       -4.509       27.084       20.377        9.943      733.522      415.218       98.863        0.146        0.062       40.772        2.828        0.005      337.493        9.502      862.676
10/07/2013  05:47:00      -22.776      -18.215       -3.404       17.190       13.240       13.315      295.485      175.291      177.297        0.075        0.032       29.163       11.361        0.152      337.457        9.443      862.676
10/07/2013  05:48:00       -1.078      -14.090       11.202       10.679       10.686        8.625      114.047      114.198       74.399        0.031        0.015       14.132        4.865        0.119      337.422        9.384      862.682
10/07/2013  05:49:00        4.088      -13.076        6.466       10.765       14.750       18.061      115.880      217.550      326.184        0.044        0.033       13.700       13.894        1.028      337.431        9.400      862.684
10/07/2013  05:50:00        5.440       -9.036       37.542       15.700       24.599       18.670      246.501      605.096      348.566        0.136        0.060       10.547       13.087        1.540      337.333        9.235      862.668
10/07/2013  05:51:00       60.894      -84.198      -18.008       36.894       34.673       28.362     1361.181     1202.216      804.421        0.724        0.168      103.910       24.135        0.054      337.429        9.394      862.654
10/07/2013  05:52:00      -77.873      -25.180       -2.489       52.356       23.975       17.010     2741.161      574.785      289.351        0.515        0.180       81.842       10.095        0.015      337.558        9.613      862.646
10/07/2013  05:53:00     -131.877      -40.905      -10.246       24.816       22.767       12.441      615.845      518.354      154.790        1.023        0.064      138.075        8.402        0.004      337.485        9.491      862.635
10/07/2013  05:54:00      -92.195      -44.392        3.569       37.106       25.753       17.218     1376.877      663.241      296.468        0.641        0.117      102.326       12.963        0.016      337.389        9.331      862.625
10/07/2013  05:55:00       -2.767      -26.554        6.877       32.182       18.659       13.057     1035.702      348.157      170.486        0.116        0.078       26.698       12.416        0.216      337.472        9.468      862.620
10/07/2013  05:56:00        0.133      -58.716        4.609       20.783       14.725       16.910      431.943      216.815      285.959        0.220        0.047       58.717        7.831        0.018      337.518        9.545      862.611
10/07/2013  05:57:00      -11.206      -51.669        1.028       14.001       12.391       15.045      196.037      153.541      226.367        0.169        0.029       52.870        8.572        0.026      337.458        9.444      862.605
10/07/2013  05:58:00      -17.515      -27.154       -5.881       13.092       11.075        9.464      171.391      122.651       89.567        0.073        0.019       32.313        7.784        0.058      337.587        9.663      862.593
10/07/2013  05:59:00      -85.076      -23.323       -5.875       26.934       17.614       14.726      725.452      310.254      216.840        0.453        0.063       88.215       11.149        0.016      337.627        9.728      862.590
10/07/2013  06:00:00     -100.166      -46.026        1.217       34.653       30.506       17.785     1200.801      930.605      316.290        0.730        0.122      110.234       17.021        0.024      337.549        9.598      862.592
10/07/2013  06:01:00      -60.321      -44.525       11.027       45.513       29.138       20.549     2071.441      849.035      422.274        0.454        0.167       74.974       20.454        0.074      337.570        9.634      862.597
10/07/2013  06:02:00        6.895      -58.201      -17.983       27.246       34.438       19.124      742.339     1185.961      365.718        0.303        0.115       58.608       14.387        0.060      337.576        9.643      862.607
10/07/2013  06:03:00      -60.040      -52.890        0.334       30.666       24.939       22.554      940.379      621.943      508.684        0.424        0.104       80.013       12.617        0.025      337.750        9.934      862.614
10/07/2013  06:04:00      -39.180      -48.545        8.517       39.964       35.097       20.432     1597.082     1231.785      417.460        0.360        0.162       62.384       23.039        0.136      337.880       10.154      862.618
10/07/2013  06:05:00      -49.863      -52.388       10.900       45.083       37.368       23.291     2032.497     1396.341      542.449        0.466        0.199       72.324       23.100        0.102      337.852       10.106      862.618
10/07/2013  06:06:00     -100.151      -44.557        1.541       37.342       28.102       19.195     1394.428      789.729      368.458        0.728        0.128      109.616       15.945        0.021      337.811       10.038      862.603
10/07/2013  06:07:00      -75.523      -47.627        3.008       66.896       26.494       15.943     4475.119      701.911      254.174        0.671        0.272       89.287       20.180        0.051      337.587        9.662      862.612
10/07/2013  06:08:00       15.850        2.774       27.388       28.022       60.300       35.924      785.241     3636.129     1290.501        0.336        0.286       16.091       38.239        5.647      337.467        9.460      862.647
10/07/2013  06:09:00       94.797       52.440       30.395       57.831       42.979       41.068     3344.394     1847.159     1686.615        0.977        0.344      108.335       27.787        0.066      337.161        8.948      862.658
10/07/2013  06:10:00       55.049        2.045       -1.309       32.459       22.644       15.901     1053.608      512.765      252.827        0.243        0.091       55.087       13.010        0.056      337.170        8.962      862.668
10/07/2013  06:11:00       24.711       31.746       39.834       24.246       26.644       22.190      587.868      709.912      492.394        0.250        0.090       40.230       21.667        0.290      337.195        9.006      862.655
10/07/2013  06:12:00       51.296       42.058       21.615       16.684       22.650       24.603      278.360      513.029      605.290        0.313        0.070       66.334       17.722        0.071      337.113        8.866      862.617
10/07/2013  06:13:00       37.663       35.628        8.971       22.314       19.162       14.419      497.916      367.165      207.907        0.192        0.054       51.845        5.512        0.011      337.038        8.740      862.590
10/07/2013  06:14:00        9.620       33.898       -9.008       21.787        8.526        7.056      474.689       72.698       49.792        0.096        0.030       35.237        8.739        0.062      337.214        9.039      862.572
10/07/2013  06:15:00       -2.977       37.175       -1.316        8.152       10.070        6.466       66.456      101.395       41.807        0.080        0.010       37.294        2.532        0.005      337.321        9.217      862.559
10/07/2013  06:16:00       -4.155       34.597       -2.144       11.158       13.100        7.493      124.504      171.608       56.149        0.079        0.018       34.845        7.480        0.046      337.340        9.248      862.562
10/07/2013  06:17:00      -46.708       23.254       -6.931       23.758       10.233        8.225      564.434      104.718       67.645        0.175        0.037       52.177        7.378        0.020      337.253        9.102      862.574
10/07/2013  06:18:00      -57.123       -6.772      -11.660       14.810       17.927        7.197      219.347      321.382       51.801        0.202        0.030       57.523        5.702        0.010      337.054        8.768      862.580
10/07/2013  06:19:00      -68.279      -40.415       -1.809       31.126       12.239       13.646      968.821      149.781      186.215        0.380        0.065       79.344       14.288        0.032      337.138        8.910      862.588
10/07/2013  06:20:00      -84.058      -38.759       -5.709       19.581       17.554       12.132      383.412      308.142      147.193        0.472        0.042       92.564       11.007        0.014      337.182        8.984      862.589
10/07/2013  06:21:00     -106.120        4.000      -15.627       22.508       15.754       15.225      506.590      248.195      231.809        0.625        0.049      106.196       14.053        0.018      337.089        8.827      862.602
10/07/2013  06:22:00     -139.484        9.256      -21.080       19.234       18.006       14.592      369.963      324.228      212.913        1.045        0.045      139.791        7.048        0.003      337.060        8.778      862.611
10/07/2013  06:23:00      -77.109       32.666      -12.256       40.326       31.077       25.499     1626.196      965.765      650.218        0.520        0.162       83.742       21.452        0.066      337.064        8.785      862.602
10/07/2013  06:24:00      -83.954       41.978      -10.790       27.868       27.293       20.004      776.623      744.916      400.140        0.542        0.096       93.864       16.977        0.033      337.167        8.959      862.587
10/07/2013  06:25:00      -94.930       12.315       -9.092       24.847       19.644       14.324      617.358      385.885      205.164        0.523        0.060       95.726       10.728        0.013      337.220        9.048      862.587
10/07/2013  06:26:00      -49.901        6.972       -0.167       37.232       16.977       11.185     1386.246      288.209      125.096        0.217        0.090       50.386       11.879        0.056      337.131        8.899      862.582
10/07/2013  06:27:00      -26.391      -15.063        5.936       34.481       29.780       18.350     1188.931      886.876      336.714        0.169        0.121       30.387       20.678        0.463      337.213        9.038      862.600
10/07/2013  06:28:00       -9.340      -37.717       -9.917       14.105       23.893       16.441      198.958      570.897      270.310        0.132        0.052       38.856        7.351        0.036      337.260        9.116      862.615
10/07/2013  06:29:00      -64.623      -21.873      -12.567       23.884       23.748       13.647      570.463      563.958      186.235        0.307        0.066       68.224       16.274        0.057      337.203        9.021      862.625
10/07/2013  06:30:00     -114.083       -3.917      -12.560       36.900       18.306       17.756     1361.576      335.110      315.280        0.760        0.101      114.150       20.564        0.032      337.099        8.845      862.621
10/07/2013  06:31:00     -120.104       28.255      -13.741       23.432       15.793       12.062      549.036      249.428      145.488        0.818        0.047      123.383       12.047        0.010      336.993        8.667      862.627
10/07/2013  06:32:00     -115.862       -1.599      -11.042       38.158       35.363       23.206     1456.020     1250.563      538.536        0.840        0.162      115.873       23.602        0.041      336.910        8.527      862.642
10/07/2013  06:33:00     -100.317       -2.564      -16.637       56.720       39.094       19.622     3217.130     1528.339      385.014        0.774        0.257      100.349       17.965        0.032      336.891        8.497      862.654
10/07/2013  06:34:00      -34.566      -43.895        9.407       38.797       31.850       24.121     1505.213     1014.449      581.822        0.316        0.155       55.871       25.552        0.209      336.909        8.528      862.663
10/07/2013  06:35:00      -30.404      -24.762        5.270       33.316       19.402       18.110     1109.979      376.446      327.980        0.169        0.091       39.212       15.642        0.159      336.933        8.567      862.676
10/07/2013  06:36:00       -3.382      -27.421       -7.747       12.435       17.507       13.285      154.640      306.499      176.491        0.073        0.032       27.629        9.689        0.123      337.059        8.776      862.680
10/07/2013  06:37:00      -15.427      -14.796       -0.286       13.452        8.079       10.636      180.960       65.262      113.127        0.041        0.018       21.375        5.280        0.061      337.033        8.732      862.679
10/07/2013  06:38:00      -68.401      -18.512      -10.064       14.075       10.312        9.538      198.118      106.342       90.980        0.276        0.020       70.861        6.591        0.009      336.966        8.621      862.676
10/07/2013  06:39:00      -57.494       -6.148       -3.700        9.981       14.772        7.784       99.618      218.202       60.594        0.187        0.019       57.822        3.787        0.004      336.949        8.593      862.670
10/07/2013  06:40:00      -39.486      -11.322       -3.054       11.615        8.213        6.380      134.917       67.447       40.705        0.097        0.012       41.077        4.526        0.012      336.922        8.549      862.664
10/07/2013  06:41:00      -17.192       -7.290       -0.122       16.569       12.092       10.191      274.540      146.207      103.857        0.044        0.026       18.673        7.142        0.146      336.945        8.586      862.665
10/07/2013  06:42:00       15.120       15.467        9.877       14.364       19.881       13.956      206.314      395.246      194.768        0.068        0.040       21.630       13.380        0.383      336.874        8.468      862.645
10/07/2013  06:43:00       17.432       63.952       -9.296       13.586        9.274        6.742      184.571       86.010       45.457        0.240        0.016       66.285        6.539        0.010      336.994        8.669      862.620
10/07/2013  06:44:00        3.758       55.674      -12.947       11.121        7.220        4.593      123.668       52.134       21.091        0.174        0.010       55.801        3.307        0.004      337.016        8.707      862.610
10/07/2013  06:45:00      -20.878       34.815       -5.569       10.531       16.719        9.718      110.897      279.514       94.431        0.108        0.024       40.595        7.940        0.038      337.100        8.847      862.627
10/07/2013  06:46:00      -36.387       -1.672       -4.737        9.850       13.347        7.289       97.021      178.150       53.124        0.084        0.016       36.426        6.336        0.030      336.790        8.328      862.660
10/07/2013  06:47:00      -21.862      -36.319       -1.359       16.968        8.634       10.799      287.911       74.542      116.624        0.114        0.024       42.391        8.338        0.039      336.858        8.442      862.682
10/07/2013  06:48:00      -27.054      -23.002        2.602       26.145       13.165       14.273      683.544      173.324      203.714        0.116        0.053       35.511       12.734        0.129      336.867        8.456      862.706
10/07/2013  06:49:00      -81.008      -37.228       -2.956       16.732       14.072       11.009      279.947      198.018      121.187        0.428        0.030       89.153        4.569        0.003      336.751        8.263      862.704
10/07/2013  06:50:00      -94.959      -32.419      -11.698       25.911       11.615       11.857      671.359      134.898      140.597        0.558        0.047      100.340       12.979        0.017      336.756        8.272      862.687
10/07/2013  06:51:00      -85.641      -15.064      -14.681       20.094       17.004       13.429      403.785      289.129      180.332        0.432        0.044       86.956       10.712        0.015      336.756        8.272      862.668
10/07/2013  06:52:00     -130.481      -41.711      -11.443       27.045       22.848       14.735      731.408      522.042      217.119        1.018        0.074      136.986       11.776        0.007      336.722        8.216      862.654
10/07/2013  06:53:00     -111.054       -7.080       -8.613       20.806       28.407       14.635      432.877      806.964      214.179        0.696        0.073      111.280       12.326        0.012      336.624        8.052      862.640
10/07/2013  06:54:00     -101.582        6.726       -8.372       24.337       15.559       16.805      592.279      242.069      282.399        0.578        0.056      101.805       11.733        0.013      336.563        7.950      862.631
10/07/2013  06:55:00      -41.385       -2.319       -0.335       30.473       20.265       14.618      928.616      410.682      213.684        0.164        0.078       41.450       16.903        0.166      336.600        8.012      862.630
10/07/2013  06:56:00      -36.837      -10.404       -8.736       15.441       12.675        7.847      238.413      160.667       61.572        0.100        0.023       38.278        3.468        0.008      336.698        8.175      862.636
10/07/2013  06:57:00      -51.402      -20.567      -11.598       10.289       13.075        8.577      105.867      170.949       73.559        0.177        0.018       55.364        8.450        0.023      336.790        8.328      862.644
10/07/2013  06:58:00      -50.167      -24.014      -13.612       12.701       10.150        9.581      161.317      103.015       91.789        0.182        0.018       55.618        6.478        0.014      336.866        8.455      862.661
10/07/2013  06:59:00      -70.426      -30.974      -10.618       23.174       13.640       10.837      537.031      186.056      117.438        0.344        0.042       76.937        4.927        0.004      336.790        8.329      862.682
10/07/2013  07:00:00      -91.335      -26.454      -19.009       14.319       15.900        8.874      205.024      252.820       78.745        0.497        0.027       95.089        4.705        0.002      336.569        7.960      862.705
10/07/2013  07:01:00      -62.538      -21.176       -8.651       13.155       13.904        9.690      173.060      193.325       93.887        0.245        0.023       66.026        6.454        0.010      336.625        8.053      862.714
10/07/2013  07:02:00      -67.347      -49.922       -9.812       21.708       19.670       13.989      471.236      386.895      195.688        0.409        0.053       83.833        9.175        0.012      336.602        8.015      862.705
10/07/2013  07:03:00      -65.524      -59.003      -16.160       37.833       14.435       14.976     1431.308      208.360      224.275        0.495        0.093       88.174        8.055        0.008      336.605        8.021      862.696
10/07/2013  07:04:00     -109.144      -46.784      -13.163       20.789       19.347        9.889      432.186      374.293       97.791        0.759        0.045      118.748        7.726        0.004      336.559        7.944      862.695
10/07/2013  07:05:00     -129.275      -45.284       -9.444       21.533       23.198       14.494      463.679      538.156      210.087        1.003        0.061      136.977       14.274        0.011      336.534        7.903      862.686
10/07/2013  07:06:00     -128.581      -22.952       -8.955       28.557       22.336       18.198      815.502      498.902      331.185        0.939        0.082      130.613       15.212        0.014      336.472        7.798      862.689
10/07/2013  07:07:00     -118.850      -60.204       -9.886       33.749       22.169       12.864     1139.019      491.477      165.484        0.982        0.090      133.229        5.790        0.002      336.502        7.848      862.698
10/07/2013  07:08:00      -65.299      -40.804       -8.868       37.779       25.137       19.342     1427.255      631.892      374.117        0.422        0.122       76.999       21.083        0.075      336.522        7.880      862.708
10/07/2013  07:09:00      -96.813      -18.252      -10.647       26.241       21.849       11.946      688.583      477.371      142.712        0.556        0.065       98.519        8.163        0.007      336.410        7.693      862.713
10/07/2013  07:10:00      -89.733       -4.844       -8.328       21.618       21.062       14.400      467.330      443.589      207.373        0.463        0.056       89.864       11.127        0.015      336.370        7.627      862.714
10/07/2013  07:11:00      -51.872      -24.576       -5.834       15.245       18.278       11.943      232.411      334.083      142.629        0.202        0.035       57.399        8.504        0.022      336.494        7.834      862.706
10/07/2013  07:12:00      -40.531      -25.336       -2.545       24.892       16.684       16.237      619.593      278.365      263.633        0.173        0.058       47.798       16.715        0.122      336.572        7.964      862.711
10/07/2013  07:13:00      -57.811      -35.361       -9.076       16.374        8.423        8.274      268.119       70.940       68.452        0.254        0.020       67.768        3.254        0.002      336.510        7.860      862.708
10/07/2013  07:14:00      -51.581      -17.607       -6.352       14.881        8.029        6.137      221.434       64.463       37.664        0.167        0.016       54.503        3.940        0.005      336.566        7.954      862.700
10/07/2013  07:15:00      -71.954      -23.176      -13.688       14.687       14.046        8.777      215.712      197.287       77.036        0.320        0.025       75.594        6.260        0.007      336.650        8.093      862.710
10/07/2013  07:16:00      -82.394      -20.967       -7.380       10.078       11.276        8.568      101.573      127.145       73.416        0.379        0.015       85.020        4.061        0.002      336.637        8.072      862.729
10/07/2013  07:17:00      -81.595      -32.143       -6.532       11.675       12.128        5.892      136.307      147.088       34.716        0.403        0.016       87.698        3.015        0.001      336.614        8.034      862.737
10/07/2013  07:18:00        3.561      -16.714       -0.688       23.006       18.176       10.801      529.257      330.353      116.657        0.063        0.049       17.090        2.031        0.014      336.653        8.101      862.734
10/07/2013  07:19:00       -6.756        1.831       -3.320        9.155        6.895        6.733       83.812       47.538       45.333        0.012        0.009        6.999        6.307        0.812      336.726        8.223      862.727
10/07/2013  07:20:00      -47.573        4.103       -8.624       15.320        9.168        6.950      234.687       84.048       48.306        0.136        0.018       47.749        5.888        0.015      336.655        8.103      862.730
10/07/2013  07:21:00      -83.032        6.281      -12.218       12.233       10.455        6.854      149.654      109.300       46.978        0.369        0.015       83.270        2.686        0.001      336.611        8.029      862.735
10/07/2013  07:22:00      -67.287       -0.342       -4.610       13.108       15.919        7.465      171.808      253.407       55.730        0.251        0.024       67.287        6.464        0.009      336.687        8.157      862.732
10/07/2013  07:23:00      -78.518      -20.501       -8.741       19.414       12.305       14.125      376.886      151.424      199.524        0.369        0.036       81.150       12.820        0.025      336.583        7.983      862.752
10/07/2013  07:24:00     -101.026      -18.791      -12.868       20.297       13.052       10.586      411.972      170.367      112.058        0.571        0.035      102.758        6.889        0.004      336.439        7.740      862.773
10/07/2013  07:25:00      -87.010       -6.284       -8.214       46.550       29.529       21.871     2166.894      871.963      478.353        0.560        0.176       87.236       19.781        0.051      336.292        7.495      862.786
10/07/2013  07:26:00      -36.480        1.841       -3.843       40.295       28.532       24.574     1623.660      814.071      603.889        0.219        0.152       36.526       24.463        0.449      336.266        7.452      862.772
10/07/2013  07:27:00     -133.439        4.187      -10.975       50.738       36.071       17.898     2574.339     1301.097      320.355        1.107        0.210      133.505       19.063        0.020      336.336        7.569      862.770
10/07/2013  07:28:00     -107.583      -14.093      -15.964       35.680       30.306       19.224     1273.045      918.481      369.563        0.729        0.128      108.502       15.654        0.021      336.342        7.578      862.766
10/07/2013  07:29:00      -88.385      -39.480       -4.113       35.153       34.154       21.843     1235.700     1166.476      477.131        0.613        0.144       96.802       18.188        0.035      336.306        7.520      862.759
10/07/2013  07:30:00      -97.947      -11.263       -3.466       33.539       26.460       17.949     1124.837      700.129      322.175        0.594        0.107       98.593       14.430        0.021      336.328        7.555      862.746
10/07/2013  07:31:00      -85.582      -14.831       -4.393       39.959       36.041       23.009     1596.755     1298.969      529.434        0.549        0.171       86.857       15.295        0.031      336.335        7.568      862.724
10/07/2013  07:32:00     -100.831       -0.312      -10.701       51.960       30.585       17.640     2699.800      935.456      311.170        0.711        0.197      100.832        8.458        0.007      336.383        7.648      862.693
10/07/2013  07:33:00     -135.068       26.456      -11.559       43.423       40.362       25.308     1885.515     1629.063      640.473        1.162        0.208      137.635       18.727        0.019      336.399        7.675      862.660
10/07/2013  07:34:00      -59.114       16.723      -16.079       20.559       34.128       11.998      422.683     1164.699      143.960        0.288        0.087       61.434        9.014        0.022      336.459        7.775      862.646
10/07/2013  07:35:00      -83.386      -27.707       -6.203       42.322       35.536       22.677     1791.142     1262.793      514.266        0.566        0.178       87.869       22.780        0.067      336.458        7.772      862.665
10/07/2013  07:36:00        2.220      -22.254       -0.417       15.440       19.990       16.303      238.406      399.587      265.794        0.070        0.045       22.364        8.356        0.140      336.570        7.964      862.685
10/07/2013  07:37:00        7.196       -3.644       16.369       10.822       12.204        7.483      117.117      148.948       55.991        0.033        0.016        8.066        4.302        0.284      336.868        8.460      862.682
10/07/2013  07:38:00       18.662       11.117       13.003       22.809       13.266       13.634      520.258      175.993      185.874        0.076        0.044       21.722        9.786        0.203      336.991        8.663      862.696
10/07/2013  07:39:00       -0.906        9.265       44.238       10.171       15.108        9.971      103.459      228.255       99.419        0.124        0.022        9.309        7.529        0.654      337.044        8.750      862.723
10/07/2013  07:40:00        1.256      -11.620       16.661       12.325       24.091       18.310      151.913      580.368      335.274        0.074        0.053       11.688       10.322        0.780      337.029        8.725      862.750
10/07/2013  07:41:00       -1.432       -9.275       -2.223        5.484       13.242        7.344       30.075      175.358       53.931        0.018        0.013        9.385        3.253        0.120      337.187        8.992      862.748
10/07/2013  07:42:00      -30.258        1.057       -5.376       27.586       10.646        6.246      760.980      113.335       39.016        0.093        0.046       30.276        8.408        0.077      337.062        8.782      862.735
10/07/2013  07:43:00      -88.158        5.222      -12.592       15.189        7.854        7.682      230.715       61.681       59.010        0.415        0.018       88.313        7.022        0.006      336.775        8.303      862.730
10/07/2013  07:44:00     -117.028       -1.693      -16.484       11.864        8.430        8.270      140.743       71.065       68.390        0.713        0.014      117.040        4.819        0.002      336.742        8.248      862.716
10/07/2013  07:45:00      -99.055       -3.365      -17.633       34.179       16.431       11.601     1168.238      269.984      134.593        0.585        0.079       99.113        7.012        0.005      336.606        8.023      862.701
10/07/2013  07:46:00      -77.840       -2.621      -11.163       20.983       23.231       18.191      440.299      539.668      330.896        0.375        0.066       77.884       14.846        0.036      336.676        8.138      862.686
10/07/2013  07:47:00      -57.954       -2.323       -7.836       33.769       19.302       16.787     1140.320      372.561      281.788        0.261        0.090       58.001       18.821        0.105      336.859        8.444      862.687
10/07/2013  07:48:00      -50.190      -32.577      -12.132       24.625       14.293       13.092      606.398      204.293      171.410        0.235        0.049       59.835        8.269        0.019      336.838        8.407      862.707
10/07/2013  07:49:00      -20.707      -36.293       -8.386       46.959       15.934       21.539     2205.127      253.888      463.908        0.237        0.146       41.785       18.460        0.195      336.900        8.511      862.738
10/07/2013  07:50:00      -29.877      -25.162        3.466       22.675       14.319       25.284      514.158      205.046      639.262        0.145        0.068       39.061       19.875        0.259      336.939        8.575      862.747
10/07/2013  07:51:00       -0.037      -24.526       -1.792       15.425       13.760       13.970      237.940      189.340      195.159        0.061        0.031       24.526        8.950        0.133      337.004        8.684      862.742
10/07/2013  07:52:00        5.915      -10.761      -13.044       10.188       18.650        7.999      103.793      347.818       63.981        0.042        0.026       12.280        2.286        0.035      337.308        9.197      862.714
10/07/2013  07:53:00      -18.812       -3.284       -3.216       18.555        5.198        5.351      344.299       27.014       28.631        0.039        0.020       19.097        3.288        0.030      337.385        9.322      862.691
10/07/2013  07:54:00      -47.289      -18.397       -1.616       11.194        9.173        6.843      125.308       84.143       46.824        0.142        0.013       50.741        4.744        0.009      337.407        9.359      862.679
10/07/2013  07:55:00      -66.476      -19.032       -8.098       11.340        9.734        7.053      128.587       94.745       49.743        0.256        0.014       69.146        6.222        0.008      337.321        9.218      862.683
10/07/2013  07:56:00      -41.081       -5.270       -2.495        6.396        8.185        6.581       40.914       67.001       43.315        0.094        0.008       41.418        4.525        0.012      337.338        9.244      862.694
10/07/2013  07:57:00      -46.392      -17.209       -4.593        8.876        9.018        5.401       78.782       81.317       29.176        0.133        0.009       49.481        4.545        0.008      337.425        9.389      862.709
10/07/2013  07:58:00      -30.227      -19.241        3.430       17.690        9.843        8.071      312.930       96.892       65.140        0.089        0.024       35.832        8.613        0.058      337.506        9.526      862.725
10/07/2013  07:59:00      -11.242      -18.415       -6.803       11.810       12.912        8.855      139.479      166.724       78.412        0.045        0.019       21.576        3.899        0.033      337.573        9.636      862.738
10/07/2013  08:00:00       -7.912      -11.571        1.689       13.205       11.999       10.608      174.360      143.965      112.523        0.032        0.022       14.018        7.813        0.311      337.864       10.127      862.743
10/07/2013  08:01:00      -18.655      -28.282        0.084       21.561       20.076       14.531      464.885      403.055      211.154        0.111        0.054       33.880        8.876        0.069      337.901       10.188      862.774
10/07/2013  08:02:00      -35.114      -27.320       -1.271       34.176       21.664       17.028     1168.007      469.348      289.966        0.195        0.096       44.490       13.935        0.098      337.795       10.009      862.794
10/07/2013  08:03:00      -65.973      -49.977        3.881       52.201       33.028       20.168     2724.919     1090.841      406.756        0.554        0.211       82.766       14.695        0.032      337.643        9.757      862.794
10/07/2013  08:04:00      -63.527      -47.914        1.448       54.286       40.032       25.790     2946.935     1602.586      665.138        0.577        0.261       79.570       24.699        0.096      337.687        9.829      862.782
10/07/2013  08:05:00      -64.814      -57.372        7.277       50.617       37.848       28.984     2562.130     1432.497      840.064        0.619        0.242       86.558       24.171        0.078      337.621        9.718      862.778
10/07/2013  08:06:00      -73.578      -57.237        4.787       51.624       38.038       28.210     2665.067     1446.872      795.779        0.681        0.245       93.219       26.317        0.080      337.652        9.770      862.775
10/07/2013  08:07:00     -110.252      -56.284        0.296       31.028       39.666       21.332      962.759     1573.389      455.051        0.916        0.150      123.788       21.120        0.029      337.705        9.859      862.768
10/07/2013  08:08:00      -98.938      -25.682       -0.147       31.435       26.777       13.086      988.137      716.982      171.233        0.616        0.094      102.217       13.932        0.019      337.761        9.953      862.754
10/07/2013  08:09:00      -79.963      -31.866        6.575       45.901       22.338       18.485     2106.865      498.966      341.708        0.520        0.147       86.079       18.930        0.048      337.777        9.981      862.757
10/07/2013  08:10:00      -87.704      -45.890        0.774       35.187       25.615       20.293     1238.159      656.136      411.824        0.605        0.115       98.984       20.477        0.043      337.818       10.051      862.771
10/07/2013  08:11:00      -98.158      -46.720       -8.044       20.647       22.457       12.501      426.298      504.314      156.279        0.648        0.054      108.709        7.372        0.005      337.823       10.058      862.797
10/07/2013  08:12:00      -58.830      -13.026       -0.082       26.910       30.623       19.289      724.158      937.750      372.072        0.283        0.102       60.255       16.934        0.079      337.753        9.941      862.813
10/07/2013  08:13:00      -36.094      -30.412       -0.275       28.414       24.040       13.293      807.345      577.933      176.698        0.189        0.078       47.198       12.329        0.068      337.770        9.968      862.822
10/07/2013  08:14:00      -27.297       -9.287        4.061       18.309       22.906       14.067      335.224      524.706      197.874        0.095        0.053       28.833       12.662        0.193      337.864       10.128      862.823
10/07/2013  08:15:00      -22.843      -19.819        8.597       20.271       24.871       11.890      410.910      618.548      141.363        0.108        0.059       30.243       13.389        0.196      337.872       10.140      862.843
10/07/2013  08:16:00       -4.247        9.092       15.193       10.633       13.771       14.458      113.060      189.637      209.039        0.042        0.026       10.035       10.014        0.996      338.034       10.410      862.842
10/07/2013  08:17:00       -4.972       17.919       17.913        8.989       12.435       14.927       80.810      154.634      222.812        0.056        0.023       18.596        7.883        0.180      338.115       10.548      862.829
10/07/2013  08:18:00        0.956        4.976       23.177       12.252       14.094        9.540      150.118      198.647       91.003        0.050        0.022        5.067        7.557        2.224      338.194       10.680      862.826
10/07/2013  08:19:00       14.556       12.785       16.937       13.548        9.357       11.977      183.545       87.558      143.459        0.054        0.021       19.373        6.986        0.130      338.014       10.379      862.818
10/07/2013  08:20:00       13.814       22.758        6.279       12.315       11.533        6.922      151.662      133.006       47.908        0.054        0.017       26.623        7.421        0.078      337.989       10.335      862.807
10/07/2013  08:21:00      -56.876       51.796      -10.158       30.086       22.846       12.218      905.164      521.917      149.273        0.380        0.079       76.927       17.695        0.053      337.983       10.327      862.796
10/07/2013  08:22:00      -36.112       47.197       -0.497       25.414       22.535       14.298      645.873      507.842      204.427        0.244        0.068       59.428       14.384        0.059      338.081       10.490      862.794
10/07/2013  08:23:00       -9.099       24.346        9.377       16.954       24.899       15.768      287.422      619.973      248.641        0.096        0.058       25.990       14.697        0.320      338.216       10.716      862.791
10/07/2013  08:24:00       37.256       24.279       11.001       12.071       10.640       14.073      145.702      113.204      198.038        0.128        0.023       44.469        7.595        0.029      338.130       10.573      862.806
10/07/2013  08:25:00       53.360       23.262       -0.782       16.579       21.090       15.193      274.879      444.781      230.818        0.217        0.048       58.210        9.581        0.027      338.035       10.414      862.813
10/07/2013  08:26:00        8.614       12.981       19.602       17.595       19.038       18.682      309.588      362.438      349.004        0.082        0.051       15.579       13.155        0.713      338.205       10.697      862.832
10/07/2013  08:27:00       -3.844       14.991       25.482        7.164       19.281       15.797       51.327      371.759      249.534        0.078        0.034       15.476        7.553        0.238      338.286       10.833      862.854
10/07/2013  08:28:00       36.230       16.711       18.742       24.725       15.799       20.811      611.316      249.601      433.104        0.162        0.065       39.898       18.082        0.205      338.075       10.481      862.855
10/07/2013  08:29:00       35.666       42.817       -1.416       19.294       17.185       13.199      372.257      295.308      174.216        0.197        0.042       55.726       11.281        0.041      338.080       10.489      862.826
10/07/2013  08:30:00       -8.227       61.941      -10.544       24.185       29.656       10.444      584.936      879.472      109.078        0.279        0.079       62.485        9.754        0.024      338.055       10.447      862.818
10/07/2013  08:31:00      -26.073       42.274       -2.937       27.628       27.389       15.639      763.298      750.153      244.575        0.212        0.088       49.668       16.385        0.109      338.120       10.554      862.810
10/07/2013  08:32:00       22.576       19.882       10.955       17.851       20.565       18.796      318.674      422.925      353.303        0.106        0.055       30.082       14.576        0.235      338.322       10.894      862.817
10/07/2013  08:33:00       33.699       40.308       -1.788       23.218       22.537       15.246      539.067      507.921      232.438        0.202        0.064       52.538       12.363        0.055      338.219       10.723      862.810
10/07/2013  08:34:00       58.943       39.367        2.270       17.486       20.390       21.012      305.774      415.767      441.501        0.310        0.058       70.880        4.059        0.003      338.232       10.744      862.822
10/07/2013  08:35:00       58.151       59.678       27.955       34.919       33.433       24.314     1219.362     1117.771      591.161        0.533        0.146       83.325       14.409        0.030      338.337       10.920      862.837
10/07/2013  08:36:00        9.832        9.418       30.520       23.099       43.990       21.621      533.574     1935.145      467.477        0.203        0.147       13.615       25.708        3.565      338.547       11.272      862.872
10/07/2013  08:37:00       26.236      -21.304      -12.747       18.126       36.402       16.462      328.550     1325.092      271.014        0.161        0.096       33.797       11.790        0.122      338.346       10.935      862.898
10/07/2013  08:38:00       34.333       12.691       11.402       20.954       18.687       16.332      439.062      349.217      266.725        0.126        0.053       36.604       13.115        0.128      338.287       10.836      862.900
10/07/2013  08:39:00       55.814       30.874       17.924       17.342       25.270       24.267      300.757      638.560      588.896        0.296        0.076       63.784       19.661        0.095      338.177       10.653      862.895
10/07/2013  08:40:00      105.326       44.948       11.188       42.546       29.530       25.429     1810.121      872.000      646.615        0.828        0.166      114.516       23.520        0.042      338.239       10.755      862.877
10/07/2013  08:41:00      128.810       87.905       13.384       41.853       35.063       26.041     1751.710     1229.386      678.127        1.408        0.183      155.947       17.503        0.013      338.323       10.896      862.850
10/07/2013  08:42:00      135.897       71.772       -0.542       54.513       38.344       31.796     2971.678     1470.237     1010.959        1.454        0.273      153.685       25.340        0.027      338.320       10.890      862.822
10/07/2013  08:43:00      127.424       71.199       16.359       49.654       29.124       32.262     2465.516      848.207     1040.860        1.296        0.218      145.966       26.866        0.034      338.335       10.918      862.798
10/07/2013  08:44:00       85.470       44.979       15.019       49.854       33.197       27.184     2485.424     1102.018      738.982        0.694        0.216       96.583       20.247        0.044      338.482       11.165      862.782
10/07/2013  08:45:00       55.249       25.620       51.674       50.841       56.119       36.906     2584.797     3149.289     1362.086        0.674        0.355       60.900       37.185        0.373      338.531       11.245      862.777
10/07/2013  08:46:00       60.146       47.078       50.910       53.023       45.397       32.520     2811.466     2060.876     1057.553        0.718        0.296       76.380       20.485        0.072      338.347       10.937      862.774
10/07/2013  08:47:00       39.008       28.906       45.249       36.577       33.975       35.567     1337.871     1154.332     1265.037        0.408        0.188       48.551       27.793        0.328      338.537       11.256      862.754
10/07/2013  08:48:00       67.620       67.118       56.754       42.937       39.294       31.446     1843.557     1544.011      988.851        0.834        0.219       95.275       27.694        0.084      338.351       10.942      862.743
10/07/2013  08:49:00      101.135       90.240        7.885       43.021       35.643       31.195     1850.822     1270.399      973.105        1.126        0.205      135.542       21.685        0.026      338.286       10.834      862.747
10/07/2013  08:50:00       85.012       27.031       12.872       36.253       36.312       32.163     1314.250     1318.584     1034.488        0.589        0.183       89.206       14.218        0.025      338.401       11.028      862.780
10/07/2013  08:51:00       62.536       38.391       19.619       31.537       33.212       33.182      994.583     1103.070     1101.065        0.448        0.160       73.380       22.881        0.097      338.511       11.212      862.812
10/07/2013  08:52:00       98.406       74.599        0.769       30.807       28.459       25.649      949.091      809.936      657.849        0.883        0.121      123.486       12.787        0.011      338.243       10.761      862.809
10/07/2013  08:53:00       97.112       43.111       13.639       61.412       40.262       32.499     3771.426     1621.059     1056.164        0.896        0.322      106.251       17.478        0.027      338.380       10.993      862.787
10/07/2013  08:54:00      153.095       91.854       30.957       42.420       46.346       47.553     1799.470     2147.907     2261.332        1.952        0.310      178.537       26.665        0.022      338.323       10.897      862.753
10/07/2013  08:55:00      136.306       77.765        4.081       52.358       27.392       38.325     2741.348      750.326     1468.779        1.480        0.248      156.929       23.409        0.022      338.318       10.887      862.730
10/07/2013  08:56:00      113.004       84.584        3.889       54.371       33.355       28.902     2956.182     1112.535      835.330        1.242        0.245      141.154       15.203        0.012      338.315       10.882      862.729
10/07/2013  08:57:00       66.509       51.330        0.128       29.463       20.589       22.086      868.080      423.904      487.798        0.442        0.089       84.014        7.950        0.009      338.328       10.906      862.739
10/07/2013  08:58:00       77.396       50.053       19.219       19.486       23.695       19.219      379.716      561.471      369.363        0.509        0.066       92.171        4.874        0.003      338.331       10.911      862.729
10/07/2013  08:59:00      122.623       77.364       -0.658       43.616       26.408       24.585     1902.335      697.390      604.442        1.211        0.160      144.988       11.430        0.006      338.402       11.029      862.691
10/07/2013  09:00:00       44.763       52.862       28.326       46.681       45.876       31.843     2179.130     2104.575     1013.988        0.545        0.265       69.269       30.801        0.198      338.659       11.461      862.686
10/07/2013  09:01:00       30.933       51.136       57.067       45.605       40.589       39.712     2079.794     1647.450     1577.030        0.607        0.265       59.764       30.684        0.264      338.670       11.479      862.719
10/07/2013  09:02:00      113.298       46.019       22.427       46.941       42.858       33.075     2203.470     1836.796     1093.930        1.029        0.257      122.288       11.900        0.009      338.432       11.078      862.735
10/07/2013  09:03:00       98.802       62.647       57.383       63.386       39.659       34.000     4017.816     1572.813     1156.001        1.186        0.337      116.989       20.721        0.031      338.593       11.351      862.724
10/07/2013  09:04:00       47.045       39.609       60.926       58.896       41.232       29.100     3468.695     1700.101      846.835        0.675        0.301       61.499       23.621        0.148      338.747       11.609      862.732
10/07/2013  09:05:00       59.909       46.839       11.694       59.199       38.652       37.652     3504.488     1493.974     1417.673        0.617        0.321       76.046       15.978        0.044      338.516       11.220      862.746
10/07/2013  09:06:00       22.475       27.410        9.462       41.273       39.296       25.909     1703.455     1544.201      671.261        0.263        0.196       35.447       20.574        0.337      338.745       11.605      862.757
10/07/2013  09:07:00       20.330       32.433       16.938       25.550       36.922       25.399      652.806     1363.260      645.118        0.221        0.133       38.278       24.834        0.421      338.949       11.949      862.772
10/07/2013  09:08:00       23.265       15.062       26.018       31.999       26.385       20.439     1023.931      696.157      417.758        0.179        0.107       27.715       14.537        0.275      339.271       12.490      862.777
10/07/2013  09:09:00       97.510       42.477       40.757       44.684       33.985       35.283     1996.643     1154.970     1244.879        0.868        0.220      106.360       28.040        0.070      338.716       11.557      862.770
10/07/2013  09:10:00       53.124       31.929       26.022       36.479       24.465       34.765     1330.753      598.527     1208.598        0.383        0.157       61.981       24.637        0.158      338.656       11.456      862.750
10/07/2013  09:11:00        6.234       36.785       65.435       23.797       36.533       22.848      566.316     1334.687      522.023        0.405        0.121       37.310       17.555        0.221      338.973       11.987      862.734
10/07/2013  09:12:00       84.256       72.899       48.436       51.715       32.538       36.472     2674.466     1058.697     1330.188        0.991        0.253      111.415       29.216        0.069      338.714       11.553      862.727
10/07/2013  09:13:00       26.790        1.207       12.450       36.998       20.077       27.173     1368.828      403.087      738.350        0.169        0.126       26.817       12.299        0.210      338.822       11.734      862.742
10/07/2013  09:14:00       47.756       16.324        6.075       26.696       16.896       20.884      712.683      285.482      436.153        0.201        0.072       50.469       13.403        0.071      338.744       11.603      862.740
10/07/2013  09:15:00       20.770      -28.882       20.450       28.893       48.867       25.051      834.784     2387.942      627.540        0.277        0.193       35.575       20.592        0.335      339.064       12.142      862.735
10/07/2013  09:16:00       36.065      -26.605       18.107       43.984       57.533       30.188     1934.634     3310.013      911.336        0.424        0.308       44.817       27.918        0.388      338.964       11.973      862.738
10/07/2013  09:17:00       29.092      -29.308       16.406       32.997       44.185       27.533     1088.833     1952.355      758.077        0.289        0.190       41.295       26.148        0.401      339.029       12.084      862.762
10/07/2013  09:18:00       83.117        7.580        6.714       25.864       30.246       28.450      668.947      914.840      809.400        0.470        0.120       83.462       12.805        0.024      338.732       11.584      862.780
10/07/2013  09:19:00       53.031       27.279       14.475       28.574       24.422       25.587      816.489      596.455      654.686        0.292        0.103       59.636       12.980        0.047      339.025       12.075      862.787
10/07/2013  09:20:00       97.793       45.293       10.016       19.731       22.965       22.260      389.301      527.391      495.498        0.656        0.071      107.773       10.360        0.009      338.742       11.601      862.796
10/07/2013  09:21:00       73.199       58.751       12.698       21.021       19.084       35.430      441.889      364.186     1255.300        0.552        0.103       93.860       19.235        0.042      338.726       11.574      862.792
10/07/2013  09:22:00       78.927       76.359       24.933       14.039       12.068       23.704      197.090      145.645      561.866        0.679        0.045      109.819       12.654        0.013      338.647       11.440      862.784
10/07/2013  09:23:00       35.306       37.347       41.923       27.598       26.670       22.562      761.627      711.309      509.063        0.319        0.099       51.394       14.486        0.079      339.021       12.068      862.780
10/07/2013  09:24:00       67.333       48.787       10.272       22.591       21.085       25.836      510.350      444.594      667.523        0.432        0.081       83.150       16.150        0.038      338.850       11.782      862.776
10/07/2013  09:25:00       79.896       66.129        4.294       27.225       23.969       23.745      741.211      574.503      563.811        0.633        0.094      103.713       15.622        0.023      338.854       11.789      862.761
10/07/2013  09:26:00       58.836       49.674        9.234       19.723       18.900       26.015      389.004      357.212      676.804        0.372        0.071       77.001       16.321        0.045      338.994       12.023      862.737
10/07/2013  09:27:00       59.073       48.739        6.044       23.704       22.079       19.477      561.871      487.469      379.355        0.366        0.071       76.584       10.883        0.020      338.913       11.887      862.727
10/07/2013  09:28:00       58.048       51.768       -2.793       20.121       19.886       16.038      404.862      395.457      257.204        0.356        0.053       77.778       13.755        0.031      338.800       11.697      862.711
10/07/2013  09:29:00        9.882       26.083        5.151       18.344       21.955       13.205      336.516      482.003      174.377        0.090        0.050       27.892        9.082        0.106      339.038       12.097      862.688
10/07/2013  09:30:00       45.723       39.229       10.030       26.674       20.559       21.843      711.513      422.691      477.126        0.267        0.081       60.246       12.032        0.040      339.017       12.062      862.680
10/07/2013  09:31:00       37.307       46.065        4.469       24.372       21.482       22.090      593.991      461.484      487.957        0.254        0.077       59.277       17.621        0.088      339.049       12.117      862.667
10/07/2013  09:32:00       35.550       67.756      -10.253       14.100       20.471       16.717      198.815      419.077      279.470        0.343        0.045       76.516       10.371        0.018      339.031       12.087      862.650
10/07/2013  09:33:00       26.967       29.439        4.614       17.963       29.691       20.841      322.658      881.564      434.340        0.163        0.082       39.923       18.253        0.209      339.034       12.090      862.632
10/07/2013  09:34:00       65.151       59.868        2.739       33.125       27.910       24.025     1097.248      778.977      577.178        0.514        0.123       88.481       17.922        0.041      338.958       11.963      862.619
10/07/2013  09:35:00       12.268       43.926        2.487       32.764       22.476       14.406     1073.460      505.188      207.532        0.194        0.089       45.607       10.678        0.055      339.060       12.133      862.607
10/07/2013  09:36:00       -8.435        3.099       -7.465       15.940       19.385        9.827      254.084      375.760       96.578        0.043        0.036        8.987        8.682        0.933      339.088       12.182      862.625
10/07/2013  09:37:00       10.693      -14.649       11.780       21.382       22.135       19.043      457.171      489.954      362.641        0.089        0.065       18.137       18.664        1.059      339.127       12.247      862.644
10/07/2013  09:38:00        7.504       10.726       34.658       15.523       14.340       10.075      240.957      205.649      101.507        0.096        0.027       13.091        7.994        0.373      339.245       12.447      862.666
10/07/2013  09:39:00        8.080       26.910       19.697       14.771       25.684       24.171      218.196      659.685      584.248        0.132        0.073       28.097       18.688        0.442      338.953       11.956      862.666
10/07/2013  09:40:00       25.783       24.410        7.620       15.004       17.404       16.273      225.116      302.894      264.821        0.106        0.040       35.505       13.377        0.142      338.818       11.728      862.665
10/07/2013  09:41:00       18.356       18.335        5.873       16.415        9.856       11.725      269.439       97.139      137.485        0.061        0.025       25.945        7.493        0.083      339.010       12.050      862.659
10/07/2013  09:42:00       48.274       32.328        8.562       18.449       15.518       15.022      340.358      240.806      225.673        0.213        0.040       58.099        6.478        0.012      339.045       12.109      862.645
10/07/2013  09:43:00       38.961       28.509       -4.894       15.441       13.341       16.309      238.425      177.990      265.968        0.152        0.034       48.278       11.190        0.054      339.117       12.232      862.644
10/07/2013  09:44:00       57.715       22.174        6.482       19.856       14.461       17.951      394.242      209.116      322.223        0.239        0.046       61.828       11.844        0.037      339.080       12.166      862.644
10/07/2013  09:45:00       46.152       32.513       14.131       17.149       15.516       17.290      294.080      240.748      298.937        0.211        0.042       56.455        6.455        0.013      339.030       12.083      862.636
10/07/2013  09:46:00        7.787       20.845       19.632       14.575       18.820       16.248      212.440      354.196      264.006        0.086        0.042       22.252       13.023        0.343      339.308       12.553      862.638
10/07/2013  09:47:00       -6.033       -9.604        7.849       13.815        9.688        7.495      190.855       93.856       56.173        0.027        0.017       11.342        6.653        0.344      339.377       12.669      862.653
10/07/2013  09:48:00      -10.674      -25.913       -1.809       11.459       10.035       13.422      131.309      100.701      180.148        0.060        0.021       28.025        9.222        0.108      339.223       12.410      862.671
10/07/2013  09:49:00      -24.466      -11.920       -9.976       11.329       16.563        8.005      128.341      274.325       64.087        0.065        0.023       27.215        6.201        0.052      339.261       12.473      862.678
10/07/2013  09:50:00      -24.589       -3.384       -4.941        8.948        5.843        5.905       80.069       34.140       34.865        0.039        0.007       24.821        4.626        0.035      339.326       12.583      862.663
10/07/2013  09:51:00       -9.098        0.775       -1.310        5.334        4.135        6.217       28.454       17.101       38.652        0.008        0.004        9.131        2.852        0.098      339.612       13.064      862.640
10/07/2013  09:52:00      -11.888       -1.654        0.934       10.476        9.580        9.833      109.747       91.783       96.683        0.022        0.015       12.002        6.939        0.334      339.645       13.120      862.616
10/07/2013  09:53:00       10.955       12.538       -5.151       15.050       26.252       12.626      226.493      689.151      159.405        0.069        0.054       16.650        7.492        0.202      339.623       13.083      862.584
10/07/2013  09:54:00      -13.853       -5.759        1.412       11.893       15.631        8.165      141.448      244.340       66.667        0.034        0.023       15.002        5.000        0.111      339.519       12.907      862.539
10/07/2013  09:55:00      -32.050       -2.547       -1.931        7.433        7.751        5.358       55.251       60.085       28.704        0.059        0.007       32.151        3.589        0.012      339.453       12.797      862.499
10/07/2013  09:56:00        2.238        8.646        5.698       12.280       24.437       12.021      150.805      597.144      144.500        0.050        0.045        8.931       11.736        1.727      340.141       13.956      862.456
10/07/2013  09:57:00       14.202       71.975       -4.551       21.545       29.092       25.814      464.198      846.368      666.366        0.369        0.099       73.363       18.371        0.063      340.046       13.797      862.417
10/07/2013  09:58:00       -9.409       62.043        0.748       20.369       28.325       22.665      414.885      802.307      513.680        0.283        0.087       62.753       16.300        0.067      340.114       13.913      862.407
10/07/2013  09:59:00        1.062        8.607       11.109       11.988       24.316       20.736      143.709      591.269      429.978        0.068        0.058        8.672       17.461        4.054      340.470       14.514      862.416
10/07/2013  10:00:00       12.357        7.834       25.783       23.348       14.632       13.559      545.134      214.083      183.855        0.091        0.047       14.631        9.996        0.467      340.496       14.556      862.408
10/07/2013  10:01:00       19.725       37.395        8.331       26.365       20.228       30.491      695.129      409.159      929.676        0.194        0.102       42.278        8.449        0.040      340.286       14.202      862.396
10/07/2013  10:02:00       45.787       66.683       -0.384       32.299       30.119       30.472     1043.256      907.146      928.541        0.471        0.144       80.889       20.253        0.063      340.393       14.382      862.385
10/07/2013  10:03:00       34.995       42.088       -2.203       21.008       27.510       26.023      441.324      756.820      677.182        0.244        0.094       54.736       21.421        0.153      340.314       14.249      862.389
10/07/2013  10:04:00       -2.534      -11.146      -14.582       19.776       19.418       10.243      391.097      377.053      104.924        0.061        0.044       11.431        9.417        0.679      340.323       14.264      862.410
10/07/2013  10:05:00      -31.706       -7.685      -10.401       10.819        7.493        6.181      117.051       56.142       38.203        0.069        0.011       32.624        5.965        0.033      340.134       13.946      862.435
10/07/2013  10:06:00       -7.580      -29.570       -1.848       12.074       14.162       12.247      145.789      200.552      149.988        0.072        0.025       30.527        7.008        0.053      340.147       13.967      862.454
10/07/2013  10:07:00       -2.681      -18.249       -5.236        8.237       13.313       12.088       67.854      177.226      146.118        0.038        0.020       18.445        9.271        0.253      340.478       14.526      862.469
10/07/2013  10:08:00        4.687      -22.924       19.363       28.678       52.539       23.885      822.401     2760.361      570.506        0.254        0.208       23.398       27.700        1.402      340.926       15.284      862.474
10/07/2013  10:09:00       10.568      -37.916       31.192       26.867       35.713       29.488      721.841     1275.420      869.520        0.269        0.143       39.361       19.381        0.242      340.708       14.915      862.479
10/07/2013  10:10:00       45.894      -64.181       21.236       25.645       31.042       30.401      657.643      963.586      924.247        0.461        0.127       78.902       18.158        0.053      340.358       14.322      862.488
10/07/2013  10:11:00       39.551      -39.113       12.682       39.940       39.676       30.197     1595.231     1574.161      911.869        0.367        0.204       55.625       31.129        0.313      340.685       14.877      862.495
10/07/2013  10:12:00       20.537      -24.829       21.805       39.636       29.785       28.804     1571.003      887.138      829.646        0.240        0.164       32.222       22.880        0.504      340.810       15.088      862.507
10/07/2013  10:13:00      -15.007       18.833       50.324       21.364       29.237       20.680      456.436      854.794      427.678        0.243        0.087       24.081       19.169        0.634      340.929       15.288      862.524
10/07/2013  10:14:00       32.261        4.678       38.149       31.460       40.705       29.615      989.750     1656.916      877.022        0.302        0.176       32.599       24.480        0.564      340.541       14.633      862.529
10/07/2013  10:15:00       97.773       73.750       59.988       43.896       33.092       40.247     1926.897     1095.048     1619.825        1.162        0.232      122.469       28.217        0.053      340.420       14.429      862.527
10/07/2013  10:16:00      125.990       89.457       39.025       49.392       36.666       46.390     2439.603     1344.420     2152.061        1.567        0.297      154.519       26.519        0.029      340.346       14.302      862.508
10/07/2013  10:17:00       29.992       29.847       40.174       41.614       34.883       32.088     1731.692     1216.839     1029.645        0.369        0.199       42.312       20.260        0.229      340.653       14.822      862.484
10/07/2013  10:18:00       48.762       19.667       43.837       51.213       43.001       36.236     2622.725     1849.054     1313.039        0.523        0.289       52.579       29.288        0.310      340.760       15.003      862.451
10/07/2013  10:19:00       13.643       29.508       36.220       35.347       45.939       48.143     1249.386     2110.366     2317.758        0.402        0.284       32.509       41.500        1.630      340.947       15.319      862.430
10/07/2013  10:20:00       25.410      -31.623       18.997       24.436       32.335       27.641      597.116     1045.530      764.047        0.221        0.120       40.566       20.925        0.266      341.117       15.608      862.424
10/07/2013  10:21:00        5.812      -31.884       35.159       22.748       67.223       34.390      517.476     4518.890     1182.657        0.425        0.311       32.409       44.172        1.858      341.140       15.645      862.410
10/07/2013  10:22:00       -6.081       -5.387       30.706       18.148       29.082       20.830      329.342      845.785      433.875        0.131        0.080        8.124       18.171        5.003      341.533       16.312      862.409
10/07/2013  10:23:00       19.068       22.950       45.179       40.426       41.071       38.660     1634.241     1686.788     1494.596        0.387        0.241       29.838       35.520        1.417      341.042       15.481      862.393
10/07/2013  10:24:00       12.314       20.538       34.235       43.749       41.099       36.841     1913.967     1689.139     1357.240        0.335        0.248       23.947       37.985        2.516      341.056       15.503      862.369
10/07/2013  10:25:00       32.990      -61.727       10.318       36.226       47.990       35.312     1312.353     2303.013     1246.950        0.493        0.243       69.990       25.890        0.137      341.222       15.784      862.350
10/07/2013  10:26:00       22.019      -86.711       -5.177       35.633       23.631       22.679     1269.688      558.420      514.322        0.519        0.117       89.463        6.965        0.006      340.669       14.850      862.349
10/07/2013  10:27:00      -13.110      -10.756       18.006       29.798       29.985       24.840      887.941      899.129      617.050        0.151        0.120       16.957       23.194        1.871      341.002       15.414      862.343
10/07/2013  10:28:00      109.812       76.300       42.848       69.888       56.099       50.268     4884.366     3147.124     2526.890        1.514        0.528      133.717       42.590        0.101      340.679       14.865      862.326
10/07/2013  10:29:00      109.397       67.691       30.411       56.752       42.380       44.533     3220.773     1796.038     1983.219        1.224        0.350      128.645       32.560        0.064      341.027       15.454      862.302
10/07/2013  10:30:00       50.849       17.466       23.701       51.931       70.958       33.277     2696.854     5034.999     1107.362        0.614        0.442       53.765       36.811        0.469      341.152       15.667      862.296
10/07/2013  10:31:00        6.845       24.517       39.710       25.729       28.947       21.889      662.004      837.951      479.147        0.210        0.099       25.455       12.684        0.248      341.466       16.199      862.285
10/07/2013  10:32:00       10.287       31.811       33.495       21.478       28.720       27.775      461.291      824.832      771.439        0.215        0.103       33.433       19.667        0.346      341.465       16.197      862.273
10/07/2013  10:33:00       22.749       22.405       24.600       31.615       27.733       29.257      999.537      769.119      855.991        0.212        0.131       31.929       22.056        0.477      341.460       16.188      862.268
10/07/2013  10:34:00       48.952       36.595       16.385       27.400       21.634       22.980      750.742      468.047      528.099        0.288        0.087       61.118       13.808        0.051      341.131       15.631      862.275
10/07/2013  10:35:00       24.778       17.045       12.534       17.592       11.679       16.927      309.475      136.393      286.526        0.090        0.037       30.074        5.864        0.038      341.145       15.655      862.285
10/07/2013  10:36:00       12.152       -4.310       13.164       12.071       13.737       19.336      145.712      188.717      373.888        0.052        0.035       12.893        5.419        0.177      341.339       15.983      862.310
10/07/2013  10:37:00       39.398        3.929       11.587       15.704       28.810       16.133      246.605      830.009      260.271        0.152        0.067       39.594        8.986        0.052      340.985       15.384      862.327
10/07/2013  10:38:00       97.102       51.314        7.751       45.787       35.706       26.895     2096.426     1274.915      723.331        0.811        0.205      109.826       20.929        0.036      340.968       15.356      862.309
10/07/2013  10:39:00      103.169       55.068       14.003       56.924       42.552       32.776     3240.288     1810.658     1074.270        1.000        0.306      116.946       22.361        0.037      341.028       15.456      862.285
10/07/2013  10:40:00       85.801       48.409       25.907       51.547       41.846       34.941     2657.125     1751.089     1220.901        0.800        0.281       98.515       25.172        0.065      341.077       15.540      862.255
10/07/2013  10:41:00       46.508       42.455       64.332       31.721       32.231       19.125     1006.248     1038.811      365.778        0.526        0.121       62.971        3.910        0.004      341.126       15.623      862.249
10/07/2013  10:42:00       57.514       38.567       23.991       23.941       22.401       26.967      573.194      501.825      727.193        0.359        0.090       69.248       16.129        0.054      340.931       15.291      862.239
10/07/2013  10:43:00       12.898        3.201      -11.536       23.441       17.393       11.234      549.490      302.510      126.196        0.064        0.049       13.289       12.461        0.879      340.904       15.247      862.243
10/07/2013  10:44:00       20.555        2.972      -12.261       12.393       13.425        9.155      153.582      180.241       83.808        0.050        0.021       20.768        2.925        0.020      340.991       15.393      862.251
10/07/2013  10:45:00       47.576        0.156       17.065       26.212       20.035       16.931      687.083      401.400      286.671        0.196        0.069       47.576       15.807        0.110      341.085       15.553      862.257
10/07/2013  10:46:00       64.302       61.946       20.737       42.776       27.700       24.267     1829.807      767.316      588.888        0.579        0.159       89.287       14.701        0.027      340.979       15.373      862.231
10/07/2013  10:47:00      104.569       55.976       19.443       31.315       25.459       27.577      980.652      648.174      760.475        0.842        0.119      118.608       15.279        0.017      340.941       15.311      862.215
10/07/2013  10:48:00       20.050       -1.612        0.127       32.256       55.777       22.485     1040.455     3111.044      505.555        0.253        0.233       20.115       16.585        0.680      340.758       15.001      862.206
10/07/2013  10:49:00       57.723      -27.289        5.904       27.906       36.932       25.429      778.742     1363.955      646.658        0.345        0.139       63.849       18.909        0.088      340.663       14.839      862.186
10/07/2013  10:50:00       97.344       52.249       24.947       35.835       40.251       28.153     1284.159     1620.152      792.610        0.826        0.185      110.480       22.277        0.041      341.206       15.758      862.176
10/07/2013  10:51:00       31.758       22.847       18.518       60.174       26.908       21.726     3620.859      724.050      472.014        0.334        0.241       39.122        8.145        0.043      341.342       15.989      862.173
10/07/2013  10:52:00       86.597       56.000       16.817       33.129       20.329       27.655     1097.545      413.277      764.801        0.660        0.114      103.127       18.387        0.032      341.291       15.903      862.158
10/07/2013  10:53:00       66.508       49.604       15.906       29.283       21.522       19.501      857.506      463.188      380.305        0.442        0.085       82.969       11.003        0.018      341.358       16.014      862.141
10/07/2013  10:54:00       75.329       66.691        5.442       40.749       27.702       30.733     1660.487      767.400      944.514        0.676        0.169      100.609       15.613        0.024      341.266       15.860      862.130
10/07/2013  10:55:00       92.562       92.528       29.222       34.799       27.893       42.367     1210.964      778.038     1794.966        1.088        0.189      130.879       19.672        0.023      341.234       15.805      862.107
10/07/2013  10:56:00       58.047       68.088       55.501       48.480       27.907       28.934     2350.346      778.825      837.180        0.753        0.198       89.473        9.986        0.012      341.376       16.045      862.066
10/07/2013  10:57:00       52.065       66.960       53.246       48.553       48.396       34.541     2357.382     2342.130     1193.052        0.796        0.295       84.820       19.124        0.051      341.359       16.017      862.032
10/07/2013  10:58:00        0.879       25.025       32.831       19.733       38.933       30.120      389.403     1515.808      907.241        0.226        0.141       25.041       26.887        1.153      341.643       16.500      862.020
10/07/2013  10:59:00        3.040      -62.943        0.067       26.842       21.560       28.747      720.468      464.843      826.365        0.299        0.101       63.016       12.725        0.041      341.124       15.620      862.018
10/07/2013  11:00:00       23.189       -6.661       12.670       32.384       32.328       22.127     1048.745     1045.111      489.600        0.166        0.129       24.127       15.505        0.413      341.407       16.099      862.021
10/07/2013  11:01:00        5.841        0.123       11.431       20.561       21.083       14.863      422.754      444.482      220.899        0.063        0.054        5.842        9.702        2.757      341.692       16.579      862.035
10/07/2013  11:02:00       31.910       12.459       14.204       39.962       22.401       21.593     1596.936      501.811      466.252        0.197        0.128       34.256       21.356        0.389      341.630       16.475      862.054
10/07/2013  11:03:00       35.002       53.212      -12.998       21.521       35.308       29.194      463.137     1246.656      852.298        0.339        0.128       63.692       11.876        0.035      341.222       15.785      862.068
10/07/2013  11:04:00       58.774       41.741       -1.465       36.520       34.012       27.100     1333.730     1156.815      734.393        0.421        0.161       72.089       16.753        0.054      341.184       15.721      862.073
10/07/2013  11:05:00      126.055       88.615       18.535       23.014       19.548       27.692      529.647      382.118      766.836        1.288        0.084      154.086        9.664        0.004      341.342       15.987      862.049
10/07/2013  11:06:00      134.187       92.563       11.756       39.604       21.810       25.276     1568.469      475.684      638.873        1.470        0.134      163.015       15.181        0.009      341.310       15.932      862.027
10/07/2013  11:07:00       84.166       86.796        2.226       48.465       38.105       37.047     2348.841     1452.016     1372.474        0.990        0.259      120.903       27.415        0.051      341.409       16.101      861.993
10/07/2013  11:08:00       98.879       71.974       14.135       37.848       29.768       24.978     1432.496      886.113      623.910        0.905        0.147      122.300       14.719        0.014      341.451       16.173      861.983
10/07/2013  11:09:00       38.422       22.796       11.184       33.942       34.714       26.854     1152.031     1205.084      721.145        0.260        0.154       44.676       12.350        0.076      341.556       16.350      861.986
10/07/2013  11:10:00        3.608       -9.140       13.522       19.757       23.378       21.629      390.325      546.553      467.820        0.084        0.070        9.826       13.437        1.870      341.363       16.023      861.982
10/07/2013  11:11:00       33.342       27.985       15.720       33.006       39.844       23.816     1089.417     1587.582      567.194        0.269        0.162       43.531       10.754        0.061      341.492       16.242      861.962
10/07/2013  11:12:00       13.483       -1.405       35.459       23.308       19.775       20.434      543.276      391.042      417.539        0.140        0.068       13.556       13.788        1.035      341.753       16.684      861.964
10/07/2013  11:13:00       33.212      -11.485        8.767       27.093       23.128       22.412      734.031      534.918      502.282        0.154        0.089       35.142       12.239        0.121      341.153       15.669      861.965
10/07/2013  11:14:00       38.251        4.779       13.414       35.754       31.986       20.699     1278.324     1023.123      428.440        0.220        0.136       38.549       18.210        0.223      340.907       15.252      861.965
10/07/2013  11:15:00       46.308        4.982       13.660       26.082       31.137       27.316      680.283      969.484      746.178        0.238        0.120       46.575       15.596        0.112      341.177       15.709      861.949
10/07/2013  11:16:00       58.619      -27.746        5.519       27.730       27.304       34.412      768.971      745.487     1184.167        0.347        0.135       64.854       18.040        0.077      341.054       15.500      861.916
10/07/2013  11:17:00       35.280       -9.772       18.884       35.363       48.305       32.069     1250.533     2333.342     1028.408        0.315        0.231       36.609       31.416        0.736      341.128       15.625      861.892
10/07/2013  11:18:00        2.520      -22.232       17.882       21.063       36.937       18.987      443.671     1364.362      360.495        0.149        0.108       22.374       18.611        0.692      341.248       15.829      861.878
10/07/2013  11:19:00        1.182      -36.104       12.352       13.877       35.067       17.413      192.567     1229.662      303.206        0.159        0.086       36.123       10.657        0.087      341.238       15.812      861.873
10/07/2013  11:20:00       39.849       20.832       13.468       24.494       27.257       24.321      599.935      742.933      591.532        0.207        0.097       44.966       11.409        0.064      341.292       15.902      861.862
10/07/2013  11:21:00       28.274       -7.085        0.194       21.115       27.670       27.966      445.825      765.608      782.097        0.142        0.100       29.148       24.739        0.720      341.098       15.576      861.849
10/07/2013  11:22:00       24.499       -3.462      -15.189       15.951       18.225       12.524      254.430      332.160      156.839        0.079        0.037       24.743        6.473        0.068      340.975       15.366      861.831
10/07/2013  11:23:00       39.470      -16.781       -1.027       21.840       17.000       21.413      477.001      289.017      458.496        0.153        0.061       42.889       13.380        0.097      340.976       15.369      861.813
10/07/2013  11:24:00       64.374      -18.403        7.285       25.988       30.297       27.065      675.401      917.930      732.494        0.343        0.116       66.953        7.962        0.014      341.311       15.936      861.787
10/07/2013  11:25:00       56.757       63.946        6.561       33.819       28.910       26.587     1143.717      835.770      706.847        0.502        0.134       85.502       20.734        0.059      341.497       16.251      861.768
10/07/2013  11:26:00       24.876       86.191       -7.184       26.079       24.173       21.368      680.100      584.352      456.590        0.491        0.086       89.709       18.881        0.044      341.859       16.864      861.756
10/07/2013  11:27:00       62.042       44.135        7.867       36.849       21.528       24.609     1357.849      463.470      605.607        0.414        0.121       76.138       17.380        0.052      341.853       16.855      861.742
10/07/2013  11:28:00       27.854       34.490       13.760       27.408       31.083       31.258      751.191      966.180      977.035        0.242        0.135       44.333       22.725        0.263      342.191       17.427      861.734
10/07/2013  11:29:00       56.485       24.832       17.999       25.765       18.124       23.746      663.860      328.476      563.885        0.284        0.078       61.702       11.988        0.038      341.886       16.910      861.740
10/07/2013  11:30:00       68.045       50.576       20.979       18.998       14.077       22.279      360.928      198.168      496.348        0.434        0.053       84.782        6.345        0.006      341.873       16.890      861.731
10/07/2013  11:31:00       56.690       35.760        9.349       26.763       24.165       30.811      716.259      583.934      949.342        0.341        0.112       67.027       13.713        0.042      342.233       17.500      861.709
10/07/2013  11:32:00       44.021       66.449       24.236       51.997       52.690       40.053     2703.684     2776.274     1604.210        0.701        0.354       79.707       37.781        0.225      342.462       17.887      861.670
10/07/2013  11:33:00       12.296       31.044        5.190       26.865       48.078       29.929      721.738     2311.523      895.749        0.253        0.196       33.391       22.518        0.455      342.404       17.791      861.645
10/07/2013  11:34:00        8.347       84.220       -1.078       35.413       59.510       22.421     1254.058     3541.400      502.696        0.623        0.265       84.633       24.223        0.082      342.259       17.543      861.626
10/07/2013  11:35:00      -13.144       77.931        9.158       31.103       51.210       31.874      967.417     2622.461     1015.963        0.547        0.230       79.031       33.046        0.175      342.612       18.144      861.591
10/07/2013  11:36:00       38.474       29.052       37.397       33.737       29.648       31.313     1138.175      879.003      980.483        0.336        0.150       48.211       14.246        0.087      342.657       18.220      861.558
10/07/2013  11:37:00      109.773       68.683       21.286       53.082       35.431       38.349     2817.673     1255.391     1470.681        1.138        0.277      129.490       24.935        0.037      342.225       17.486      861.523
10/07/2013  11:38:00       92.675       75.489       36.266       42.418       39.886       40.740     1799.306     1590.887     1659.769        1.033        0.252      119.530       23.573        0.039      342.681       18.261      861.502
10/07/2013  11:39:00       34.844       42.641       32.161       32.169       34.428       39.600     1034.833     1185.313     1568.145        0.393        0.189       55.067       24.380        0.196      342.742       18.366      861.511
10/07/2013  11:40:00       21.751       18.621       -9.617       29.699       29.286       18.219      882.049      857.641      331.938        0.149        0.104       28.633       15.925        0.309      342.315       17.638      861.531
10/07/2013  11:41:00      -58.904       -0.533      -17.391       17.616       11.681       14.011      310.338      136.443      196.316        0.221        0.032       58.907        4.277        0.005      342.272       17.565      861.550
10/07/2013  11:42:00      -40.938       -1.546       -5.704       14.983       10.329       18.150      224.490      106.681      329.437        0.119        0.033       40.967       10.289        0.063      342.363       17.721      861.549
10/07/2013  11:43:00       21.463        1.964       34.013       35.883       27.422       26.320     1287.619      751.985      692.727        0.218        0.137       21.553       11.707        0.295      342.916       18.662      861.540
10/07/2013  11:44:00       73.398       24.249        2.063       41.886       22.263       26.432     1754.438      495.639      698.676        0.446        0.147       77.300       17.862        0.053      342.069       17.221      861.519
10/07/2013  11:45:00       30.697       24.358       12.314       19.914       20.633       19.299      396.564      425.712      372.435        0.144        0.060       39.187       13.752        0.123      342.406       17.795      861.504
10/07/2013  11:46:00       27.740       54.558        5.582       30.006       23.186       22.036      900.362      537.594      485.566        0.285        0.096       61.206       15.936        0.068      342.648       18.205      861.484
10/07/2013  11:47:00       42.450       59.662        9.172       24.941       33.921       31.125      622.061     1150.628      968.766        0.409        0.137       73.223       23.256        0.101      343.038       18.869      861.454
10/07/2013  11:48:00       41.255       -8.736       23.824       29.750       38.608       34.225      885.037     1490.551     1171.384        0.295        0.177       42.170       29.955        0.505      342.923       18.673      861.422
10/07/2013  11:49:00        7.596       20.829       46.380       33.276       37.493       27.685     1107.313     1405.730      766.437        0.296        0.164       22.171       28.268        1.626      343.380       19.452      861.409
10/07/2013  11:50:00       40.768      -80.122        1.446       31.505       61.439       37.587      992.564     3774.766     1412.749        0.713        0.309       89.897       37.889        0.178      342.919       18.667      861.379
10/07/2013  11:51:00       94.722     -106.663      -12.149       59.384       72.617       39.712     3526.422     5273.171     1577.070        1.543        0.519      142.651       42.817        0.090      342.900       18.632      861.349
10/07/2013  11:52:00       28.820       -3.627       31.038       53.250       58.529       34.295     2835.518     3425.679     1176.125        0.462        0.372       29.047       26.073        0.806      343.139       19.041      861.327
10/07/2013  11:53:00       24.366       -8.288       53.418       67.677       66.192       48.169     4580.187     4381.368     2320.248        0.740        0.564       25.737       43.889        2.908      343.296       19.309      861.305
10/07/2013  11:54:00       17.144        9.234       49.316       46.118       48.949       37.862     2126.829     2395.971     1433.495        0.438        0.298       19.473       36.019        3.421      343.279       19.279      861.315
10/07/2013  11:55:00       44.125      -25.467       -1.159       42.957       46.652       32.377     1845.266     2176.382     1048.300        0.383        0.253       50.947       28.179        0.306      342.986       18.781      861.316
10/07/2013  11:56:00       63.112      -65.297        7.359       50.830       45.508       41.861     2583.729     2070.964     1752.307        0.735        0.320       90.812       26.538        0.085      342.961       18.737      861.308
10/07/2013  11:57:00       52.408      -83.851       -6.671       35.080       50.350       29.806     1230.641     2535.170      888.412        0.724        0.233       98.882       24.716        0.062      343.177       19.104      861.293
10/07/2013  11:58:00       55.091      -39.155       17.053       50.699       96.079       41.561     2570.364     9231.095     1727.278        0.919        0.676       67.588       45.377        0.451      343.288       19.294      861.283
10/07/2013  11:59:00       18.192       11.926       46.278       50.599       59.271       44.360     2560.234     3513.079     1967.797        0.533        0.402       21.753       36.646        2.838      343.238       19.209      861.264
10/07/2013  12:00:00      105.588     -119.690        7.552       96.745      152.792       96.396     9359.593    23345.273     9292.140        3.376        2.100      159.607      114.721        0.517      343.303       19.316      861.255
10/07/2013  12:01:00       97.537      121.337       90.016       73.981       69.469       70.209     5473.162     4825.919     4929.270        2.378        0.761      155.680       63.286        0.165      342.904       18.638      861.252
10/07/2013  12:02:00       94.058       96.117       85.749       96.575       60.726       39.989     9326.721     3687.678     1599.083        2.002        0.731      134.482       26.440        0.039      343.205       19.151      861.232
10/07/2013  12:03:00        3.919       35.779       48.771       27.865       47.046       37.418      776.470     2213.355     1400.121        0.403        0.219       35.993       31.128        0.748      343.476       19.614      861.223
10/07/2013  12:04:00       85.950       88.876       95.944       52.075       46.801       39.762     2711.850     2190.316     1581.033        1.549        0.324      123.638       10.744        0.008      343.195       19.135      861.218
10/07/2013  12:05:00       44.793       28.740       39.523       56.733       60.337       36.468     3218.684     3640.566     1329.912        0.629        0.409       53.221       15.068        0.080      343.075       18.932      861.210
10/07/2013  12:06:00       70.020       41.556       20.100       59.791       50.999       24.482     3574.913     2600.850      599.376        0.690        0.339       81.423       20.014        0.060      343.119       19.006      861.205
10/07/2013  12:07:00       38.479       -9.465       28.799       44.281       47.269       36.378     1960.821     2234.342     1323.328        0.396        0.276       39.626       31.939        0.650      343.058       18.903      861.190
10/07/2013  12:08:00       76.323      -53.217        9.280       53.736       69.955       37.848     2887.585     4893.737     1432.495        0.898        0.461       93.045       42.284        0.207      343.001       18.805      861.170
10/07/2013  12:09:00       31.634       -6.825       23.372       29.361       30.605       33.046      862.078      936.677     1092.032        0.224        0.145       32.362       17.291        0.285      343.027       18.851      861.154
10/07/2013  12:10:00       69.295       64.299       49.257       43.587       29.832       27.839     1899.835      889.920      774.987        0.746        0.178       94.531       19.439        0.042      343.210       19.161      861.134
10/07/2013  12:11:00       22.173      -15.654       25.272       37.913       34.326       29.250     1437.373     1178.287      855.571        0.242        0.174       27.142       18.997        0.490      343.452       19.573      861.122
10/07/2013  12:12:00       25.596      -12.124       33.576       36.715       60.811       34.087     1347.968     3698.002     1161.890        0.407        0.310       28.322       25.963        0.840      343.399       19.484      861.134
10/07/2013  12:13:00       23.895      -37.885       16.085       35.355       46.716       28.760     1249.981     2182.340      827.161        0.326        0.213       44.791       28.170        0.396      343.759       20.097      861.125
10/07/2013  12:14:00       14.748      -24.616       36.907       37.029       65.748       49.399     1371.138     4322.810     2440.273        0.516        0.407       28.696       39.791        1.923      343.680       19.962      861.084
10/07/2013  12:15:00       69.498      -60.875       17.066       82.065      117.744       61.857     6734.716    13863.650     3826.298        1.662        1.221       92.389       65.333        0.500      343.590       19.806      861.029
10/07/2013  12:16:00       97.594      -88.940       16.706       57.211       79.436       58.495     3273.138     6310.052     3421.667        1.536        0.650      132.041       48.246        0.134      343.293       19.302      861.016
10/07/2013  12:17:00       95.197     -155.870      -15.972       48.486       46.159       27.773     2350.880     2130.622      771.357        1.943        0.263      182.642       15.183        0.007      343.501       19.656      861.018
10/07/2013  12:18:00      107.532     -181.792      -27.563       60.048       67.818       41.038     3605.804     4599.290     1684.077        2.763        0.494      211.214       33.969        0.026      343.610       19.840      860.998
10/07/2013  12:19:00      107.461     -121.638      -20.676       75.587       79.712       42.903     5713.380     6353.978     1840.695        2.034        0.695      162.307       42.517        0.069      343.581       19.792      860.973
10/07/2013  12:20:00       79.522     -168.729      -11.479       59.499       79.602       55.588     3540.082     6336.479     3090.066        2.394        0.648      186.530       41.556        0.050      343.606       19.835      860.963
10/07/2013  12:21:00      127.229     -144.600      -45.625       77.443      100.697       49.693     5997.481    10139.984     2469.385        2.889        0.930      192.605       48.256        0.063      343.627       19.868      860.915
10/07/2013  12:22:00      155.051     -212.072      -30.078       58.578       69.513       34.789     3431.420     4832.075     1210.266        3.969        0.474      262.707       32.281        0.015      343.474       19.607      860.884
10/07/2013  12:23:00      110.989     -144.303       -7.338       67.939       96.725       49.062     4615.714     9355.757     2407.091        2.478        0.819      182.049       61.797        0.115      343.720       20.028      860.857
10/07/2013  12:24:00      176.591     -221.091      -47.661       62.942       80.814       40.094     3961.744     6530.830     1607.554        4.722        0.605      282.959       38.045        0.018      343.564       19.760      860.809
10/07/2013  12:25:00       98.097      -92.948        4.243       89.407      127.392       77.808     7993.646    16228.712     6054.141        2.427        1.514      135.138       80.150        0.352      344.007       20.519      860.773
10/07/2013  12:26:00      124.332     -124.349       -4.928      102.747       96.531       67.682    10556.872     9318.252     4580.805        2.770        1.223      175.844       62.759        0.127      343.827       20.210      860.758
10/07/2013  12:27:00       27.652      -37.402        6.868       56.154       85.674       40.693     3153.248     7340.050     1655.938        0.718        0.607       46.514       41.841        0.809      343.883       20.309      860.767
10/07/2013  12:28:00       37.253        7.059       19.317       45.258       53.280       32.983     2048.246     2838.789     1087.867        0.389        0.299       37.915       19.152        0.255      343.722       20.034      860.775
10/07/2013  12:29:00       88.430      -84.400        5.265       76.022       51.251       38.608     5779.380     2626.643     1490.571        1.243        0.495      122.242       40.120        0.108      343.453       19.575      860.767
10/07/2013  12:30:00       51.487       34.644       44.450       56.847       55.513       35.632     3231.619     3081.733     1269.658        0.670        0.379       62.057       29.386        0.224      343.865       20.278      860.759
10/07/2013  12:31:00       14.505      -36.909        2.380       35.794       41.731       34.112     1281.229     1741.447     1163.650        0.288        0.209       39.656       28.673        0.523      343.754       20.090      860.741
10/07/2013  12:32:00       26.638      -38.329       15.335       46.332       49.570       42.438     2146.610     2457.228     1800.974        0.441        0.320       46.677       38.986        0.698      344.220       20.884      860.736
10/07/2013  12:33:00       41.548      -18.596      -18.434       30.338       27.999       24.251      920.374      783.949      588.090        0.235        0.115       45.519       15.608        0.118      343.480       19.621      860.737
10/07/2013  12:34:00      100.683       44.837        9.554       39.995       41.114       42.972     1599.600     1690.370     1846.575        0.869        0.257      110.215       31.951        0.084      343.705       20.004      860.720
10/07/2013  12:35:00     -126.402      -59.605        3.056      135.277       77.750       39.594    18299.800     6045.116     1567.661        2.272        1.296      139.751       52.647        0.142      344.175       20.805      860.713
10/07/2013  12:36:00     -242.433      -43.479       -7.825       89.177       79.565       42.510     7952.586     6330.636     1807.080        3.840        0.805      246.301       47.832        0.038      344.015       20.530      860.698
10/07/2013  12:37:00     -185.706      -83.211       -2.073       86.153       65.382       40.943     7422.316     4274.839     1676.317        2.739        0.669      203.497       40.941        0.040      344.137       20.739      860.653
10/07/2013  12:38:00      -45.969     -105.321       10.480       60.638       64.941       45.545     3676.974     4217.283     2074.374        1.164        0.498      114.916       38.981        0.115      344.379       21.156      860.625
10/07/2013  12:39:00      -22.740      -57.265       -1.357       72.653       94.916       40.557     5278.487     9009.113     1644.897        0.986        0.797       61.615       39.679        0.415      344.414       21.216      860.611
10/07/2013  12:40:00       10.799       30.798       13.643       34.458       28.463       30.905     1187.320      810.137      955.094        0.210        0.148       32.637       12.214        0.140      344.049       20.593      860.571
10/07/2013  12:41:00        3.265      -47.270       18.345       44.499       68.061       33.600     1980.194     4632.277     1128.964        0.516        0.387       47.383       31.714        0.448      344.447       21.273      860.561
10/07/2013  12:42:00      124.561     -235.030      -30.853       69.471       66.519       41.607     4826.171     4424.799     1731.168        4.134        0.549      265.998       29.099        0.012      343.996       20.498      860.543
10/07/2013  12:43:00       35.811      -55.977        7.309       65.788       73.354       35.958     4328.096     5380.766     1292.994        0.773        0.550       66.452       50.811        0.585      344.504       21.368      860.548
10/07/2013  12:44:00      -51.882       -1.119        0.640       50.795       48.711       27.846     2580.167     2372.782      775.416        0.421        0.286       51.894       29.509        0.323      344.468       21.307      860.530
10/07/2013  12:45:00       57.138       32.254       12.373       41.005       35.666       28.560     1681.432     1272.037      815.676        0.411        0.188       65.613       12.422        0.036      344.047       20.588      860.511
10/07/2013  12:46:00       44.890      -32.082       18.505       64.065       68.747       31.610     4104.340     4726.155      999.183        0.661        0.491       55.175       35.722        0.419      344.062       20.616      860.480
10/07/2013  12:47:00      -99.861     -107.636        7.646      106.508       80.906       45.687    11343.993     6545.831     2087.329        2.079        0.999      146.826       57.299        0.152      344.489       21.343      860.469
10/07/2013  12:48:00     -107.796     -114.276       -1.758       61.167       50.675       28.249     3741.394     2567.936      798.032        1.589        0.355      157.095       18.081        0.013      344.224       20.889      860.475
10/07/2013  12:49:00      -37.788     -211.841       -3.105       48.905       65.539       30.766     2391.748     4295.370      946.569        2.697        0.382      215.185       22.608        0.011      344.237       20.912      860.464
10/07/2013  12:50:00     -133.652     -113.292      -21.822      149.775       47.663       45.732    22432.574     2271.759     2091.379        2.898        1.340      175.208       34.650        0.039      344.547       21.442      860.431
10/07/2013  12:51:00     -215.262     -113.901        4.885      102.518       74.362       47.521    10509.985     5529.776     2258.283        3.881        0.915      243.538       51.839        0.045      344.623       21.569      860.426
10/07/2013  12:52:00     -178.369     -210.306        0.225      142.726      109.262       53.176    20370.834    11938.218     2827.716        5.558        1.757      275.761       60.236        0.048      344.348       21.101      860.426
10/07/2013  12:53:00     -111.579      -60.276      -15.761       59.491       87.966       29.526     3539.120     7737.980      871.794        1.424        0.607      126.819       26.324        0.043      344.272       20.974      860.392
10/07/2013  12:54:00     -160.922     -105.758        5.526      115.757       97.837       37.804    13399.673     9572.020     1429.179        3.075        1.220      192.564       42.683        0.049      344.487       21.339      860.359
10/07/2013  12:55:00      -75.898      -50.760        7.829       88.760       77.015       49.605     7878.354     5931.352     2460.631        1.233        0.814       91.307       54.732        0.359      344.613       21.555      860.321
10/07/2013  12:56:00     -135.510       44.458       -0.464      152.028       75.041       54.563    23112.382     5631.090     2977.130        2.602        1.586      142.616       65.569        0.211      344.868       21.992      860.328
10/07/2013  12:57:00     -413.329       17.745      -34.868      103.068      134.783       57.320    10623.029    18166.543     3285.583       10.222        1.604      413.710       52.218        0.016      344.690       21.685      860.310
10/07/2013  12:58:00     -290.501     -133.765        3.000      130.250      150.087       63.457    16965.099    22526.084     4026.764        7.290        2.176      319.818       62.431        0.038      344.758       21.800      860.298
10/07/2013  12:59:00     -185.389      -60.581       -1.335       81.169       78.089       43.489     6588.477     6097.928     1891.324        2.631        0.729      195.036       45.012        0.053      344.591       21.517      860.310
10/07/2013  13:00:00     -243.974     -104.562        5.464       99.051       95.309       50.937     9811.022     9083.779     2594.570        4.598        1.074      265.437       56.549        0.045      344.529       21.409      860.272
10/07/2013  13:01:00     -237.144      -87.574       -3.176      145.362      117.927       51.431    21130.098    13906.792     2645.112        5.079        1.884      252.797       59.878        0.056      344.416       21.217      860.271
10/07/2013  13:02:00      -69.659      -95.095        2.152       62.176       58.432       32.521     3865.848     3414.314     1057.648        1.112        0.417      117.878       33.879        0.083      344.427       21.238      860.246
10/07/2013  13:03:00     -120.273      -76.358       -7.677       76.153       58.978       40.614     5799.318     3478.463     1649.503        1.564        0.546      142.465       36.426        0.065      344.527       21.409      860.219
10/07/2013  13:04:00      -63.042      -35.373       19.039       74.441       63.371       42.954     5541.417     4015.854     1845.060        0.849        0.570       72.288       46.975        0.422      344.881       22.015      860.200
10/07/2013  13:05:00     -356.619        9.822      -37.555      182.741       71.149       55.947    33394.384     5062.236     3130.037        8.513        2.079      356.754       84.050        0.056      344.702       21.704      860.212
10/07/2013  13:06:00     -256.308        6.623      -27.408      101.882       82.663       47.509    10379.941     6833.199     2257.122        4.298        0.974      256.393       38.192        0.022      344.605       21.538      860.193
10/07/2013  13:07:00       34.337      -32.407       51.967       67.815       50.013       46.469     4598.905     2501.274     2159.339        0.709        0.463       47.215       39.576        0.703      344.890       22.029      860.150
10/07/2013  13:08:00       20.685       67.556       17.198       30.386       49.351       32.480      923.334     2435.540     1054.980        0.485        0.221       70.652       31.360        0.197      344.671       21.656      860.124
10/07/2013  13:09:00       -5.072      205.004      -19.579       67.998       70.478       43.491     4623.796     4967.173     1891.498        2.696        0.574      205.067       32.995        0.026      344.716       21.730      860.083
10/07/2013  13:10:00     -207.307     -130.469      -10.049      145.977       90.364       50.744    21309.225     8165.679     2574.957        4.607        1.602      244.945       51.328        0.044      344.817       21.903      860.065
10/07/2013  13:11:00      -63.570      -38.879       15.448      137.540       66.300       47.814    18917.165     4395.675     2286.191        1.569        1.280       74.516       55.802        0.561      344.764       21.813      860.040
10/07/2013  13:12:00     -401.479      -32.356      -26.781      134.735      117.879       65.522    18153.604    13895.436     4293.136        9.964        1.817      402.780       65.340        0.026      344.786       21.847      860.000
10/07/2013  13:13:00     -244.436      -69.871      -31.536      112.819       75.891       37.576    12728.047     5759.407     1411.945        4.276        0.995      254.226       36.658        0.021      344.493       21.348      859.999
10/07/2013  13:14:00     -252.297      -11.516      -23.602       98.556       97.303       55.012     9713.337     9467.825     3026.282        4.327        1.110      252.559       53.955        0.046      344.713       21.725      859.970
10/07/2013  13:15:00     -224.764       -9.716      -18.273      127.086       87.179       51.756    16150.732     7600.100     2678.639        3.868        1.321      224.974       55.318        0.060      344.799       21.872      859.937
10/07/2013  13:16:00     -280.646      -57.172       -9.248      132.949       85.688       50.539    17675.388     7342.511     2554.229        5.484        1.379      286.410       42.573        0.022      344.864       21.982      859.912
10/07/2013  13:17:00     -263.096     -118.548        0.550      157.427       93.754       62.166    24783.237     8789.856     3864.638        6.035        1.872      288.571       79.816        0.077      344.835       21.933      859.906
10/07/2013  13:18:00     -189.514      -88.803       10.647      130.247      101.035       62.389    16964.310    10208.121     3892.337        3.748        1.553      209.288       62.295        0.089      344.951       22.131      859.911
10/07/2013  13:19:00     -272.628     -130.910      -10.080       99.622      108.526       61.267     9924.501    11777.966     3753.646        5.851        1.273      302.429       51.788        0.029      344.705       21.709      859.912
10/07/2013  13:20:00     -197.921      -25.403       -1.667       55.702       68.421       37.223     3102.721     4681.466     1385.550        2.449        0.458      199.545       31.545        0.025      344.662       21.637      859.898
10/07/2013  13:21:00     -266.235      -98.125      -15.803      127.975      107.930       47.100    16377.569    11648.897     2218.390        5.550        1.512      283.742       41.900        0.022      344.761       21.806      859.879
10/07/2013  13:22:00     -206.862        4.744      -14.784      105.948      106.909       40.336    11224.876    11429.620     1627.033        3.365        1.214      206.917       46.269        0.050      344.782       21.841      859.875
10/07/2013  13:23:00     -170.802     -107.881       -8.250       91.290       76.384       51.295     8333.787     5834.454     2631.199        2.884        0.840      202.019       44.396        0.048      344.838       21.937      859.837
10/07/2013  13:24:00     -160.034       -3.775       -7.503       94.602       98.402       51.443     8949.620     9682.995     2646.418        2.348        1.064      160.078       44.857        0.079      345.092       22.374      859.822
10/07/2013  13:25:00     -290.688       52.847      -20.419      127.803       82.870       46.689    16333.696     6867.447     2179.849        5.654        1.269      295.453       50.695        0.029      345.008       22.229      859.805
10/07/2013  13:26:00     -274.097      -58.739      -31.672      146.444       84.243       46.659    21445.924     7096.962     2177.017        5.515        1.536      280.321       41.659        0.022      344.884       22.017      859.819
10/07/2013  13:27:00     -178.136      -57.413       -9.579       93.541       73.916       44.127     8750.011     5463.563     1947.227        2.564        0.808      187.159       46.867        0.063      345.032       22.271      859.789
10/07/2013  13:28:00     -122.547      -46.770       10.389       82.526       66.205       43.769     6810.563     4383.060     1915.704        1.521        0.655      131.169       48.848        0.139      345.021       22.252      859.764
10/07/2013  13:29:00      -13.049       41.803       12.551       55.413       75.275       33.632     3070.610     5666.282     1131.141        0.597        0.493       43.793       13.456        0.094      345.429       22.953      859.733
10/07/2013  13:30:00       -8.598       -9.066        6.570       62.693       53.708       34.758     3930.365     2884.514     1208.141        0.411        0.401       12.495       33.646        7.252      345.584       23.218      859.709
10/07/2013  13:31:00     -421.156     -130.430       -2.259      159.222      123.470       68.268    25351.783    15244.798     4660.513       11.981        2.263      440.891       61.637        0.020      345.296       22.721      859.697
10/07/2013  13:32:00     -314.358      -81.323       -6.150      157.326      143.729       67.839    24751.410    20658.036     4602.144        7.773        2.501      324.707       67.485        0.043      345.197       22.552      859.728
10/07/2013  13:33:00     -310.879     -105.649       -2.434      159.120      169.602       87.503    25319.168    28764.747     7656.753        8.476        3.087      328.341       79.040        0.058      345.233       22.614      859.681
10/07/2013  13:34:00     -306.035     -135.671       -3.239      162.797      121.858       67.052    26502.731    14849.479     4496.020        7.895        2.292      334.760       69.588        0.043      345.178       22.519      859.693
10/07/2013  13:35:00     -197.639     -138.911        2.814      164.612      149.780       71.107    27097.091    22434.125     5056.194        5.647        2.729      241.573       83.379        0.119      345.270       22.677      859.693
10/07/2013  13:36:00     -180.468     -163.705       31.401      257.705      130.789       86.353    66411.720    17105.825     7456.848        7.565        4.549      243.656      114.773        0.222      345.276       22.688      859.660
10/07/2013  13:37:00     -458.380     -135.044      -23.411      188.566      168.770       74.311    35557.181    28483.369     5522.053       14.922        3.478      477.859       75.666        0.025      344.874       22.001      859.679
10/07/2013  13:38:00     -336.748     -148.650       -0.229      233.485      134.658       79.990    54515.435    18132.855     6398.401       10.726        3.952      368.098       94.047        0.065      344.925       22.087      859.659
10/07/2013  13:39:00     -258.832     -156.211       -1.078      234.166      123.606       97.047    54833.868    15278.553     9418.069        8.545        3.977      302.317      108.864        0.130      345.003       22.220      859.615
10/07/2013  13:40:00     -196.269      -87.774        4.866      133.514      100.437       71.635    17826.026    10087.611     5131.552        3.964        1.652      215.002       56.071        0.068      345.146       22.466      859.591
10/07/2013  13:41:00     -210.332     -125.840      -13.459      174.211      109.790       58.300    30349.588    12053.779     3398.905        5.302        2.290      245.103       49.833        0.041      345.222       22.595      859.572
10/07/2013  13:42:00     -516.749     -101.054      -17.275      186.609      165.611       83.564    34822.992    27426.839     6982.909       17.337        3.462      526.537       81.168        0.024      345.086       22.361      859.578
10/07/2013  13:43:00     -304.996     -203.119        2.358      164.911      135.503       80.592    27195.722    18360.961     6495.063        9.316        2.603      366.443       84.694        0.053      345.036       22.275      859.591
10/07/2013  13:44:00     -402.460      -91.450      -14.057      199.545      159.285       78.563    39818.100    25371.760     6172.117       12.093        3.568      412.719       92.466        0.050      344.965       22.155      859.532
10/07/2013  13:45:00     -374.865      -30.457      -21.843      140.230      115.046       62.345    19664.395    13235.494     3886.916        8.935        1.839      376.100       70.501        0.035      344.983       22.186      859.485
10/07/2013  13:46:00     -440.331     -180.308      -18.751      171.990      128.683       84.309    29580.602    16559.312     7107.935       13.999        2.662      475.817       67.692        0.020      345.170       22.505      859.464
10/07/2013  13:47:00     -296.443      -84.734        7.679      161.827      127.209       81.351    26187.832    16182.096     6617.937        7.204        2.449      308.315       87.583        0.081      345.442       22.972      859.452
10/07/2013  13:48:00     -380.910     -212.573        3.348      210.486      142.800       80.077    44304.562    20391.958     6412.310       13.069        3.555      436.210       98.237        0.051      345.033       22.271      859.422
10/07/2013  13:49:00     -291.327     -207.819       11.394      215.405      132.511       88.502    46399.410    17559.292     7832.574        9.998        3.590      357.855      104.120        0.085      345.140       22.455      859.370
10/07/2013  13:50:00     -310.470     -230.235       19.256      249.527      193.700      114.427    62263.816    37519.547    13093.469       13.130        5.644      386.523      131.289        0.115      345.136       22.446      859.401
10/07/2013  13:51:00     -422.054     -248.405       -6.083      240.621      189.331       94.314    57898.244    35846.298     8895.138       17.124        5.132      489.729      113.292        0.054      345.117       22.415      859.388
10/07/2013  13:52:00     -188.615     -127.646        7.530      137.004      123.349       70.328    18770.040    15214.914     4946.049        4.542        1.947      227.748       81.976        0.130      345.251       22.645      859.407
10/07/2013  13:53:00     -258.282      -35.545        2.433      155.803      139.244       73.164    24274.717    19388.827     5352.939        5.849        2.451      260.717       80.882        0.096      345.251       22.644      859.382
10/07/2013  13:54:00     -276.359      -64.235      -15.048      119.501       77.922       67.957    14280.583     6071.897     4618.174        5.284        1.249      283.726       57.884        0.042      345.101       22.388      859.352
10/07/2013  13:55:00     -268.738        0.986      -20.170      150.952      116.341       61.940    22786.631    13535.304     3836.561        5.639        2.008      268.740       72.884        0.074      345.335       22.789      859.323
10/07/2013  13:56:00     -128.773      -98.572       10.525      115.298       99.451       59.533    13293.619     9890.601     3544.215        2.656        1.336      162.169       62.020        0.146      345.519       23.105      859.308
10/07/2013  13:57:00      -95.971     -133.725       24.719      127.681      128.966       61.645    16302.354    16632.347     3800.069        3.221        1.837      164.599       68.919        0.175      345.605       23.253      859.295
10/07/2013  13:58:00     -260.667      -44.195        7.360      249.400       96.033       70.412    62200.582     9222.347     4957.783        7.315        3.819      264.387       92.985        0.124      345.277       22.691      859.304
10/07/2013  13:59:00     -337.764      -37.162      -10.417      179.633      155.118       56.329    32268.099    24061.724     3173.000        8.753        2.975      339.802       77.013        0.051      345.309       22.745      859.294
10/07/2013  14:00:00     -367.399      -18.490      -25.452      159.951      120.623       69.939    25584.199    14549.795     4891.483        9.049        2.251      367.864       47.928        0.017      345.184       22.528      859.237
10/07/2013  14:01:00     -417.567      -68.030      -29.289      160.508      148.200       71.213    25762.872    21963.163     5071.253       11.631        2.640      423.072       68.465        0.026      345.198       22.554      859.204
10/07/2013  14:02:00     -223.203     -136.592       -0.109      159.798      123.158       70.918    25535.542    15167.953     5029.302        5.710        2.287      261.680       72.314        0.076      345.341       22.797      859.210
10/07/2013  14:03:00     -184.457      -38.116        3.000      137.949      120.675       65.842    19029.925    14562.477     4335.142        3.670        1.896      188.354       71.411        0.144      345.357       22.826      859.200
10/07/2013  14:04:00     -283.475      -17.072      -10.402      174.512      145.021       69.533    30454.410    21030.948     4834.841        6.853        2.816      283.988       76.288        0.072      345.380       22.865      859.186
10/07/2013  14:05:00     -236.677      -84.425       -7.309      110.339      113.300       61.776    12174.694    12836.918     3816.226        4.601        1.441      251.284       59.142        0.055      345.240       22.624      859.179
10/07/2013  14:06:00     -123.167     -102.664       15.789      103.518       87.517       46.756    10715.887     7659.274     2186.157        2.326        1.028      160.344       57.114        0.127      345.475       23.029      859.157
10/07/2013  14:07:00     -170.358     -126.398       -0.415      101.426       95.503       48.386    10287.175     9120.781     2341.223        3.337        1.087      212.128       49.014        0.053      345.478       23.033      859.158
10/07/2013  14:08:00     -130.958     -112.224        9.767      116.801      101.125       58.631    13642.586    10226.297     3437.615        2.857        1.365      172.465       60.992        0.125      345.625       23.285      859.138
10/07/2013  14:09:00     -185.793     -101.899        5.047      149.584       92.926       68.429    22375.362     8635.187     4682.559        4.030        1.785      211.902       67.781        0.102      345.672       23.366      859.143
10/07/2013  14:10:00     -313.800     -210.978      -16.307      166.870      143.077       73.184    27845.587    20471.061     5355.915        9.845        2.684      378.130       80.274        0.045      345.461       23.005      859.127
10/07/2013  14:11:00     -107.345     -123.358       24.027      142.127      120.533       77.942    20199.948    14528.240     6074.927        3.405        2.040      163.524       88.003        0.290      345.634       23.301      859.109
10/07/2013  14:12:00     -267.128     -209.375       -5.326      169.373      142.832       90.440    28687.077    20400.959     8179.477        8.623        2.863      339.404       93.402        0.076      345.337       22.790      859.093
10/07/2013  14:13:00     -477.535     -212.084      -37.577      199.374      130.316      102.133    39749.915    16982.325    10431.137       17.078        3.358      522.512      104.103        0.040      345.279       22.692      859.092
10/07/2013  14:14:00     -248.404     -115.097       -1.854      208.742      132.832       73.820    43573.391    17644.359     5449.320        7.080        3.333      273.773       97.404        0.127      345.257       22.656      859.097
10/07/2013  14:15:00     -181.302      -81.730        5.677      199.874      114.935       77.812    39949.713    13210.114     6054.743        4.939        2.961      198.873       92.602        0.217      345.479       23.035      859.049
10/07/2013  14:16:00     -178.237     -117.946       33.025      245.747      152.923      109.967    60391.695    23385.523    12092.722        7.130        4.793      213.728      129.324        0.366      345.602       23.248      859.052
10/07/2013  14:17:00     -198.043      -24.150       15.746      171.224      135.815       69.871    29317.724    18445.837     4882.020        4.634        2.632      199.510       85.969        0.186      345.637       23.307      859.082
10/07/2013  14:18:00     -211.071      -37.236        4.242      131.440      143.313       63.774    17276.431    20538.544     4067.183        4.391        2.094      214.330       62.274        0.084      345.432       22.956      859.081
10/07/2013  14:19:00     -407.871     -181.915      -13.928      177.451      161.373       87.941    31488.822    26041.338     7733.681       13.244        3.263      446.600       84.609        0.036      345.248       22.639      859.047
10/07/2013  14:20:00     -332.962     -176.015      -20.370      142.256      139.133       69.185    20236.757    19358.079     4786.526        9.331        2.219      376.623       65.689        0.030      345.250       22.643      859.017
10/07/2013  14:21:00     -342.923      -66.720        0.486      259.220      165.508      104.754    67195.043    27392.836    10973.504       11.378        5.278      349.354      128.811        0.136      345.311       22.747      858.980
10/07/2013  14:22:00     -471.316     -130.076      -37.179      154.227      117.040       65.533    23785.920    13698.471     4294.561       14.110        2.089      488.937       57.057        0.014      345.318       22.758      858.970
10/07/2013  14:23:00     -271.444     -193.910        5.209      185.733      122.934       88.566    34496.768    15112.653     7843.925        8.437        2.873      333.591      100.101        0.090      345.308       22.741      858.990
10/07/2013  14:24:00     -301.847     -234.931      -10.031      199.933      154.332       91.434    39973.263    23818.505     8360.130       10.926        3.608      382.497      100.559        0.069      345.190       22.540      858.961
10/07/2013  14:25:00     -334.822     -281.893       -6.231      215.344      173.996      108.397    46373.218    30274.590    11749.904       13.999        4.420      437.686      103.977        0.056      345.243       22.631      858.961
10/07/2013  14:26:00     -352.586     -169.361       -6.228      227.979      186.463       92.423    51974.588    34768.332     8542.013       12.414        4.764      391.152      118.874        0.092      345.250       22.642      858.970
10/07/2013  14:27:00     -335.744      -58.540       -8.121      185.930      165.777       76.266    34569.841    27481.887     5816.498        9.203        3.393      340.809       82.941        0.059      345.267       22.673      858.975
10/07/2013  14:28:00     -307.618      -72.385      -16.432      170.192      144.154       73.571    28965.318    20780.477     5412.653        7.764        2.758      316.020       84.890        0.072      345.297       22.722      858.958
10/07/2013  14:29:00     -515.745      -62.672      -38.859      217.628      184.826       96.398    47362.087    34160.596     9292.602       18.110        4.541      519.539      105.487        0.041      345.131       22.439      858.924
10/07/2013  14:30:00     -567.962     -110.128      -46.828      245.844      144.044       88.012    60439.131    20748.648     7746.038       21.290        4.447      578.540      105.453        0.033      345.141       22.456      858.928
10/07/2013  14:31:00     -328.481     -203.370       -1.994      169.986      147.336       79.153    28895.387    21707.873     6265.216       10.305        2.843      386.341       81.610        0.045      345.177       22.517      858.972
10/07/2013  14:32:00     -367.895     -218.750      -12.910      226.590      136.669       87.084    51343.022    18678.384     7583.573       13.047        3.880      428.017       95.776        0.050      345.128       22.435      858.954
10/07/2013  14:33:00     -341.509     -246.581      -24.036      196.890      167.262       86.650    38765.540    27976.497     7508.230       12.611        3.713      421.226       93.745        0.050      345.122       22.424      858.924
10/07/2013  14:34:00     -396.096     -161.431      -13.244      200.339      148.023       86.047    40135.742    21910.955     7404.061       12.628        3.473      427.729       98.754        0.053      345.251       22.644      858.928
10/07/2013  14:35:00     -247.769       12.568      -11.516      137.059      101.388       65.355    18785.259    10279.524     4271.313        4.750        1.667      248.087       69.229        0.078      345.305       22.737      858.927
10/07/2013  14:36:00     -297.365     -180.071        5.639      199.591      127.256       72.647    39836.480    16194.031     5277.583        9.108        3.065      347.637       85.651        0.061      345.302       22.732      858.927
10/07/2013  14:37:00     -473.019     -156.468      -19.803      206.132      149.017       85.224    42490.216    22206.090     7263.195       16.028        3.598      498.226       78.882        0.025      345.223       22.595      858.922
10/07/2013  14:38:00     -282.452     -115.242       -9.351      159.041      143.902       83.345    25293.973    20707.779     6946.358        7.304        2.647      305.057       89.652        0.086      345.247       22.638      858.924
10/07/2013  14:39:00     -316.495      -58.324       -2.464      188.954      113.719       75.980    35703.654    12932.065     5773.036        7.898        2.720      321.824       86.940        0.073      345.266       22.672      858.943
10/07/2013  14:40:00     -293.872     -147.789       -2.050      182.215      157.559       90.031    33202.381    24824.743     8105.520        8.716        3.307      328.941       95.317        0.084      345.190       22.539      858.925
10/07/2013  14:41:00     -312.477      -85.120       -9.244      145.280       93.213       71.575    21106.263     8688.706     5123.048        6.994        1.746      323.863       67.537        0.043      345.234       22.615      858.937
10/07/2013  14:42:00     -455.752     -108.753      -18.836      196.497      139.549       77.883    38611.154    19473.900     6065.695       14.201        3.208      468.548       95.665        0.042      345.138       22.452      858.942
10/07/2013  14:43:00     -345.033     -120.574        4.699      234.247      169.300       96.565    54871.755    28662.571     9324.875       11.321        4.643      365.494      103.160        0.080      345.069       22.333      858.929
10/07/2013  14:44:00     -451.718     -217.691      -23.371      202.702      158.978       83.317    41087.966    25274.002     6941.761       16.263        3.665      501.437       79.893        0.025      345.066       22.326      858.922
10/07/2013  14:45:00     -325.964      -28.902       -5.113      261.785      138.633       91.753    68531.647    19219.009     8418.681       10.162        4.808      327.243      109.625        0.112      345.145       22.463      858.900
10/07/2013  14:46:00     -391.165      -91.145      -11.633      173.735      125.219       79.710    30183.970    15679.788     6353.634       10.682        2.611      401.644       84.440        0.044      345.171       22.507      858.911
10/07/2013  14:47:00     -345.612        6.453      -20.399      217.201      134.286       79.589    47176.261    18032.849     6334.351        9.571        3.577      345.673      100.256        0.084      345.161       22.491      858.913
10/07/2013  14:48:00     -456.968      -78.135      -34.035      202.640      200.596       81.988    41063.146    40238.840     6721.952       15.204        4.401      463.600       80.861        0.030      345.040       22.285      858.888
10/07/2013  14:49:00     -298.963      -28.521       -3.427      175.408      122.797       73.085    30767.958    15079.065     5341.353        7.069        2.559      300.321       83.622        0.078      345.217       22.587      858.890
10/07/2013  14:50:00     -333.796     -149.486        3.644      212.083      172.241       93.400    44979.120    29667.069     8723.602       10.856        4.168      365.740      111.626        0.093      345.202       22.560      858.906
10/07/2013  14:51:00     -426.698     -276.729      -24.529      206.315      166.990       97.496    42565.843    27885.692     9505.555       16.959        3.998      508.577       97.795        0.037      345.060       22.318      858.890
10/07/2013  14:52:00     -407.445     -278.047      -13.258      217.624      193.028      114.420    47360.013    37259.840    13091.907       17.058        4.886      493.276      120.653        0.060      344.980       22.180      858.891
10/07/2013  14:53:00     -327.502     -167.608      -10.462      165.983      162.252       72.481    27550.396    26325.753     5253.555        9.728        2.956      367.899       72.421        0.039      345.002       22.218      858.920
10/07/2013  14:54:00     -387.988      -91.277      -10.813      167.952      190.010       81.390    28207.924    36103.655     6624.351       11.494        3.547      398.580       78.073        0.038      344.990       22.198      858.927
10/07/2013  14:55:00     -265.678      -81.064       -7.721      116.393      104.528       58.091    13547.278    10926.128     3374.535        5.253        1.392      277.770       46.428        0.028      345.069       22.331      858.931
10/07/2013  14:56:00     -486.345     -141.212      -14.831      162.467      190.064       81.907    26395.404    36124.272     6708.813       16.295        3.461      506.431       83.507        0.027      345.064       22.324      858.913
10/07/2013  14:57:00     -358.998      -62.169       -1.480      176.286      113.182       79.765    31076.813    12810.122     6362.515        9.149        2.512      364.341       86.777        0.057      344.956       22.140      858.887
10/07/2013  14:58:00     -335.295     -217.884        2.376      214.376      206.461      106.642    45957.189    42626.264    11372.614       12.991        4.998      399.870      121.939        0.093      345.008       22.229      858.863
10/07/2013  14:59:00     -301.147     -207.429       -1.313      211.019      179.615       85.434    44529.209    32261.540     7298.991       10.889        4.204      365.673      105.224        0.083      345.025       22.256      858.837
10/07/2013  15:00:00     -391.323      -70.282       -5.495      204.989      137.174       85.473    42020.565    18816.648     7305.604       11.311        3.407      397.584       80.704        0.041      345.066       22.327      858.894
10/07/2013  15:01:00     -270.379      -61.034      -10.343      149.976      137.751       71.443    22492.751    18975.407     5104.150        6.175        2.329      277.182       65.074        0.055      344.992       22.202      858.867
10/07/2013  15:02:00     -407.341     -178.414        5.496      212.427      208.537       86.299    45125.060    43487.711     7447.522       14.691        4.803      444.701       98.809        0.049      344.982       22.185      858.872
10/07/2013  15:03:00     -179.999      -29.241       17.041      162.983      113.950       78.278    26563.479    12984.601     6127.387        3.960        2.284      182.359       81.358        0.199      345.042       22.288      858.862
10/07/2013  15:04:00     -348.488      -21.256      -21.828      207.900      113.859       67.422    43222.595    12963.766     4545.761        9.154        3.037      349.136       85.562        0.060      344.966       22.158      858.877
10/07/2013  15:05:00     -331.801      -21.108       -9.284      229.128       97.436       75.026    52499.611     9493.690     5628.956        8.911        3.381      332.471       88.481        0.071      345.005       22.223      858.859
10/07/2013  15:06:00     -437.026      -83.758      -17.615      246.796      156.765       88.809    60908.177    24575.354     7886.981       14.583        4.669      444.980       96.201        0.047      344.915       22.070      858.854
10/07/2013  15:07:00     -282.521     -170.506       -6.965      216.437      179.501      120.096    46845.039    32220.725    14423.154       10.119        4.674      329.985      130.552        0.157      344.934       22.102      858.835
10/07/2013  15:08:00     -537.390     -145.088      -33.591      222.713      157.727       85.805    49600.942    24877.808     7362.473       19.639        4.092      556.631       93.811        0.028      344.871       21.994      858.853
10/07/2013  15:09:00     -326.384      -65.086       -2.125      182.178      109.702       75.872    33188.969    12034.583     5756.513        8.086        2.549      332.810       84.697        0.065      344.964       22.154      858.845
10/07/2013  15:10:00     -367.058      -73.906       -1.726      137.143      127.656       76.982    18808.331    16296.021     5926.221        9.061        2.052      374.424       66.334        0.031      344.938       22.108      858.835
10/07/2013  15:11:00     -504.064     -231.468      -32.934      177.576      158.347       88.940    31533.220    25073.731     7910.300       18.662        3.226      554.669       88.263        0.025      344.908       22.057      858.821
10/07/2013  15:12:00     -406.236      -44.969       -0.044      226.280      104.591       71.443    51202.605    10939.261     5104.135       11.713        3.362      408.717       83.999        0.042      344.997       22.210      858.826
10/07/2013  15:13:00     -122.187      -77.107       10.813      157.754      137.697       81.051    24886.215    18960.392     6569.333        3.569        2.521      144.482       89.828        0.387      345.031       22.270      858.821
10/07/2013  15:14:00     -229.694      -55.045       -6.200      150.097      148.408       84.510    22529.210    22024.979     7141.866        5.375        2.585      236.197       71.916        0.093      345.007       22.228      858.813
10/07/2013  15:15:00     -286.041      -76.744       -0.375      158.608      119.184       71.909    25156.358    14204.910     5170.834        6.611        2.227      296.157       83.691        0.080      344.999       22.212      858.842
10/07/2013  15:16:00     -276.645     -106.181       -8.772      228.175      129.800       63.931    52063.916    16847.969     4087.143        8.043        3.650      296.323       93.550        0.100      344.966       22.156      858.840
10/07/2013  15:17:00     -434.437      -76.865       -1.596      176.406      122.733       74.894    31119.146    15063.399     5609.182       12.321        2.590      441.185       82.989        0.035      344.915       22.069      858.805
10/07/2013  15:18:00     -420.565     -120.312      -12.332      177.509      131.131       75.665    31509.600    17195.406     5725.257       12.296        2.722      437.436       84.251        0.037      344.967       22.159      858.816
10/07/2013  15:19:00     -245.136     -117.613       11.981      179.123      122.261       90.749    32085.148    14947.678     8235.367        6.466        2.763      271.891       97.789        0.129      344.991       22.200      858.823
10/07/2013  15:20:00     -395.992     -184.569      -23.311      188.953      140.231       69.044    35703.401    19664.793     4767.115       12.577        3.007      436.893       81.230        0.035      344.984       22.188      858.840
10/07/2013  15:21:00     -334.015     -153.015      -15.450      135.817      141.912       76.444    18446.241    20138.896     5843.736        8.981        2.221      367.395       50.858        0.019      344.935       22.102      858.808
10/07/2013  15:22:00     -283.489      -89.445      -21.214      144.096      115.385       56.072    20763.651    13313.625     3144.051        6.301        1.861      297.264       52.400        0.031      345.001       22.216      858.795
10/07/2013  15:23:00     -328.204      -55.198      -17.144      169.067      122.328       77.527    28583.683    14964.119     6010.412        8.030        2.478      332.813       80.176        0.058      345.048       22.299      858.806
10/07/2013  15:24:00     -465.814      -55.447      -18.367      175.213      137.459       88.760    30699.465    18895.029     7878.318       13.892        2.874      469.102       97.308        0.043      344.935       22.103      858.824
10/07/2013  15:25:00     -446.539      -60.044      -15.827      274.693      215.705      109.781    75456.090    46528.755    12051.911       16.862        6.702      450.558      119.006        0.070      344.958       22.144      858.793
10/07/2013  15:26:00     -360.291     -162.173      -13.940      185.704      154.554       76.662    34486.106    23886.966     5877.107       11.026        3.213      395.107       95.652        0.059      344.927       22.089      858.812
10/07/2013  15:27:00     -361.695      -30.498      -13.703      148.596      104.552       74.220    22080.732    10931.171     5508.657        8.522        1.926      362.979       79.985        0.049      344.989       22.198      858.800
10/07/2013  15:28:00     -300.506      -84.730       -7.276      158.922      130.715       81.779    25256.159    17086.452     6687.826        7.327        2.452      312.223       87.308        0.078      345.005       22.225      858.772
10/07/2013  15:29:00     -298.856      -66.656       18.327      171.008      156.080       77.338    29243.897    24361.082     5981.106        7.683        2.979      306.199       70.089        0.052      345.007       22.227      858.777
10/07/2013  15:30:00     -526.270     -147.753      -40.399      249.122      161.354       91.298    62061.949    26035.273     8335.317       19.841        4.822      546.618       95.454        0.030      344.907       22.055      858.750
10/07/2013  15:31:00     -424.176     -209.704       -0.899      262.402      188.668      109.940    68854.697    35595.737    12086.724       17.020        5.827      473.182      136.272        0.083      344.942       22.117      858.710
10/07/2013  15:32:00     -124.627      -69.142        5.827      145.711      145.236       87.118    21231.695    21093.514     7589.468        3.512        2.496      142.522       83.204        0.341      345.116       22.415      858.706
10/07/2013  15:33:00     -272.164     -122.879       27.333      197.345      195.055       96.715    38945.082    38046.343     9353.707        8.811        4.317      298.617      112.252        0.141      345.090       22.370      858.696
10/07/2013  15:34:00     -278.580     -139.275        6.896      196.691      189.083      112.074    38687.389    35752.372    12560.615        9.201        4.350      311.455      109.218        0.123      345.104       22.392      858.705
10/07/2013  15:35:00     -409.718     -174.411      -33.375      248.878      187.923       85.638    61940.047    35315.215     7333.917       15.197        5.229      445.295       91.764        0.042      345.015       22.241      858.708
10/07/2013  15:36:00     -431.002      -85.311      -26.011      184.390      209.147       69.419    33999.774    43742.313     4819.005       13.812        4.128      439.364       80.561        0.034      344.975       22.172      858.682
10/07/2013  15:37:00     -427.892     -182.972      -23.469      221.896      189.920      115.381    49237.806    36069.676    13312.825       15.785        4.931      465.371      114.727        0.061      344.916       22.070      858.662
10/07/2013  15:38:00     -343.000     -136.578        9.683      211.174      164.520      102.438    44594.603    27066.948    10493.464       10.926        4.108      369.192      117.168        0.101      344.964       22.154      858.641
10/07/2013  15:39:00     -340.823     -231.591       -4.223      229.355      159.105      100.772    52603.623    25314.534    10154.920       12.892        4.404      412.061      118.344        0.082      344.960       22.147      858.621
10/07/2013  15:40:00     -422.305      -40.346      -34.786      190.465      134.852       71.416    36276.874    18185.090     5100.260       12.036        2.978      424.228       74.631        0.031      345.074       22.343      858.640
10/07/2013  15:41:00     -438.870      -67.689       -9.279      207.805      206.769       86.193    43182.843    42753.365     7429.170       14.530        4.668      444.059       91.851        0.043      345.105       22.393      858.623
10/07/2013  15:42:00     -593.806      -83.211      -31.343      170.781      185.514       82.214    29166.250    34415.388     6759.183       21.541        3.517      599.608       67.441        0.013      344.987       22.193      858.611
10/07/2013  15:43:00     -267.265      -17.110       -9.210      162.354      111.830       68.276    26358.789    12505.891     4661.661        5.766        2.176      267.812       67.077        0.063      345.081       22.354      858.624
10/07/2013  15:44:00     -192.047      -56.849       16.226      132.424      125.693       64.677    17536.242    15798.720     4183.139        3.894        1.876      200.285       65.967        0.108      345.181       22.524      858.611
10/07/2013  15:45:00     -395.572     -169.177        3.217      187.341      193.666       80.353    35096.784    37506.646     6456.609       13.207        3.953      430.230       63.524        0.022      345.072       22.338      858.603
10/07/2013  15:46:00     -492.878        0.238      -37.781      256.448      128.252       74.202    65765.542    16448.513     5505.937       16.602        4.386      492.878       71.949        0.021      345.018       22.246      858.583
10/07/2013  15:47:00     -464.604     -126.836      -23.002      181.261      193.144       75.983    32855.681    37304.706     5773.395       15.419        3.797      481.606       80.732        0.028      345.006       22.225      858.589
10/07/2013  15:48:00     -504.309     -267.530      -13.378      239.531      177.076       89.632    57375.066    31355.790     8033.831       21.140        4.838      570.877      106.462        0.035      345.000       22.216      858.588
10/07/2013  15:49:00     -388.002     -273.604       -3.702      213.687      182.229      101.549    45662.004    33207.413    10312.123       15.728        4.459      474.768      109.128        0.053      345.006       22.227      858.572
10/07/2013  15:50:00     -516.400     -107.073      -30.848      186.413      218.583       97.687    34749.912    47778.398     9542.753       18.556        4.604      527.384       91.078        0.030      345.116       22.412      858.588
10/07/2013  15:51:00     -493.233      -96.422      -13.085      198.177      164.523       90.309    39274.225    27067.879     8155.705       16.361        3.725      502.570       98.450        0.038      345.135       22.447      858.591
10/07/2013  15:52:00     -655.857     -157.423      -44.002      223.114      191.514       92.226    49780.062    36677.708     8505.666       27.590        4.748      674.486      111.169        0.027      345.075       22.343      858.571
10/07/2013  15:53:00     -550.390      -65.127      -39.168      266.343      184.891       89.283    70938.731    34184.705     7971.487       21.088        5.655      554.230      101.563        0.034      345.116       22.413      858.576
10/07/2013  15:54:00     -335.155      -59.690        4.234      234.990      133.168       92.848    55220.316    17733.674     8620.681        9.873        4.079      340.429       99.395        0.085      345.151       22.475      858.580
10/07/2013  15:55:00     -435.900     -230.092      -41.326      214.977      177.500       92.969    46215.053    31506.232     8643.145       16.549        4.318      492.901       92.466        0.035      345.061       22.321      858.545
10/07/2013  15:56:00     -286.896     -150.833      -13.430      179.153      169.718       80.361    32095.743    28804.332     6457.821        8.629        3.368      324.130       99.395        0.094      345.197       22.554      858.557
10/07/2013  15:57:00     -326.744      -33.662      -23.767      166.917      140.673       71.247    27861.250    19788.957     5076.176        8.058        2.636      328.474       80.866        0.061      345.276       22.686      858.542
10/07/2013  15:58:00     -479.266     -183.445      -35.975      295.117      170.373       80.041    87094.261    29026.857     6406.507       19.356        6.126      513.175       98.225        0.037      345.177       22.517      858.545
10/07/2013  15:59:00     -282.332     -184.258       -0.415      235.859      210.151      106.007    55629.463    44163.384    11237.547       11.232        5.552      337.138      131.237        0.152      345.162       22.493      858.527
10/07/2013  16:00:00     -673.148     -110.685      -36.756      254.797      190.571      105.287    64921.531    36317.317    11085.342       28.950        5.616      682.188      121.097        0.032      344.956       22.140      858.531
10/07/2013  16:01:00     -628.108     -116.994      -22.027      240.352      202.781      106.320    57769.321    41120.008    11304.030       25.942        5.510      638.911      114.442        0.032      344.913       22.067      858.509
10/07/2013  16:02:00     -633.054     -162.939      -19.684      322.894      152.853      103.647   104260.329    23363.898    10742.795       28.300        6.918      653.687      125.766        0.037      344.896       22.037      858.492
10/07/2013  16:03:00     -430.076     -153.768      -15.491      223.573      160.930       92.474    49985.073    25898.591     8551.502       14.663        4.222      456.738       95.184        0.043      344.977       22.176      858.502
10/07/2013  16:04:00     -639.562     -119.576      -43.663      204.522      183.215       82.474    41829.413    33567.636     6802.004       25.371        4.110      650.644       94.116        0.021      344.918       22.074      858.485
10/07/2013  16:05:00     -472.333      -70.074      -30.360      168.779      142.271       85.307    28486.440    20240.959     7277.271       14.246        2.800      477.503       87.025        0.033      344.999       22.214      858.488
10/07/2013  16:06:00     -373.319     -109.554       -6.573      208.341      173.382       96.088    43405.857    30061.212     9232.876       11.704        4.135      389.062      105.349        0.073      345.003       22.221      858.476
10/07/2013  16:07:00     -570.451     -200.265      -30.342      236.813      199.820       81.935    56080.179    39927.996     6713.327       23.456        5.136      604.583       91.101        0.023      344.945       22.121      858.467
10/07/2013  16:08:00     -423.474     -174.883      -21.097      229.750      145.463       79.252    52784.888    21159.360     6280.806       14.528        4.011      458.164       78.862        0.030      344.991       22.200      858.458
10/07/2013  16:09:00     -481.098      -61.094      -13.817      210.473      192.120       95.746    44298.879    36909.936     9167.356       16.286        4.519      484.962       94.791        0.038      344.909       22.060      858.471
10/07/2013  16:10:00     -619.282      -45.360      -41.659      244.023      188.113       95.554    59547.113    35386.669     9130.637       24.566        5.203      620.941       93.258        0.023      344.821       21.909      858.476
10/07/2013  16:11:00     -434.726     -192.432       11.324      277.166      208.269      127.123    76820.965    43375.920    16160.243       18.122        6.818      475.412      158.863        0.112      344.873       21.997      858.436
10/07/2013  16:12:00     -463.079     -221.933      -21.203      237.781      184.987       89.819    56540.030    34220.297     8067.536       18.147        4.941      513.514       87.479        0.029      344.841       21.943      858.451
10/07/2013  16:13:00     -420.532      -79.137       -8.095      229.876      186.019       99.903    52843.046    34603.198     9980.542       14.028        4.871      427.914      105.418        0.061      344.864       21.982      858.454
10/07/2013  16:14:00     -505.507     -182.545      -27.025      201.718      192.340       99.215    40689.993    36994.608     9843.624       18.854        4.376      537.457       92.674        0.030      344.765       21.811      858.463
10/07/2013  16:15:00     -441.499      -85.274      -20.410      174.613      149.881       65.883    30489.593    22464.420     4340.589       12.994        2.865      449.658       70.986        0.025      344.819       21.906      858.471
10/07/2013  16:16:00     -358.519      -87.198      -26.674      230.201      175.285       92.577    52992.637    30724.900     8570.558       11.455        4.614      368.971      113.550        0.095      344.867       21.987      858.451
10/07/2013  16:17:00     -531.592     -119.528      -26.686      162.148      134.168       79.820    26291.922    18001.050     6371.250       17.412        2.533      544.864       82.526        0.023      344.801       21.872      858.449
10/07/2013  16:18:00     -455.258     -150.033      -21.918      225.981      144.942       84.077    51067.229    21008.065     7068.980       15.468        3.957      479.344      100.157        0.044      344.870       21.994      858.464
10/07/2013  16:19:00     -567.638     -224.347      -10.151      262.348      194.252      124.225    68826.644    37733.748    15431.766       24.730        6.100      610.364      137.742        0.051      344.814       21.896      858.435
10/07/2013  16:20:00     -561.048      -96.755      -34.475      236.434      157.862       80.978    55901.216    24920.266     6557.427       20.633        4.369      569.330       96.709        0.029      344.845       21.950      858.472
10/07/2013  16:21:00     -353.844      -24.846       -3.402      251.198      165.154      104.008    63100.394    27275.743    10817.761       11.349        5.060      354.716      118.125        0.111      344.872       21.995      858.476
10/07/2013  16:22:00     -258.770      -99.711       -0.233      198.133      157.459       89.059    39256.558    24793.266     7931.457        7.443        3.599      277.316      103.954        0.141      344.915       22.070      858.496
10/07/2013  16:23:00     -495.166     -174.091      -16.922      198.447      206.189       99.978    39381.353    42513.885     9995.628       18.382        4.595      524.878      111.709        0.045      344.853       21.965      858.492
10/07/2013  16:24:00     -270.396     -147.025        3.754      239.030      182.234      115.255    57135.465    33209.221    13283.808        9.917        5.181      307.782      118.483        0.148      344.859       21.975      858.499
10/07/2013  16:25:00     -352.977     -181.107      -15.339      178.558      165.823      105.302    31883.136    27497.386    11088.428       11.403        3.523      396.727      110.183        0.077      344.819       21.904      858.501
10/07/2013  16:26:00     -475.634      -85.659      -31.125      177.364      242.180       93.851    31458.029    58651.323     8808.087       16.671        4.946      483.285      101.520        0.044      344.851       21.959      858.509
10/07/2013  16:27:00     -455.277     -182.922      -11.533      262.521      209.737       92.760    68917.080    43989.552     8604.366       18.117        6.076      490.650      124.863        0.065      344.777       21.834      858.477
10/07/2013  16:28:00     -391.369      -39.235       -8.286      186.732      137.781       70.637    34868.746    18983.518     4989.606       10.680        2.942      393.331       72.972        0.034      344.823       21.911      858.482
10/07/2013  16:29:00     -431.610     -141.649      -16.042      227.998      157.714       91.408    51983.153    24873.689     8355.381       14.589        4.261      454.260      112.927        0.062      344.842       21.944      858.489
10/07/2013  16:30:00     -368.144     -155.425      -14.698      164.400      128.015       81.595    27027.376    16387.904     6657.821       10.498        2.504      399.608       86.605        0.047      344.876       22.001      858.469
10/07/2013  16:31:00     -281.843     -140.434        7.615      206.765      166.920       94.149    42751.740    27862.223     8864.121        8.933        3.974      314.893      111.003        0.124      344.947       22.124      858.465
10/07/2013  16:32:00     -276.464     -238.140       -0.897      231.129      132.381       77.118    53420.464    17524.687     5947.206       10.500        3.845      364.888       89.424        0.060      344.874       22.000      858.476
10/07/2013  16:33:00     -359.645      -57.145      -12.520      188.241      120.614       76.679    35434.641    14547.852     5879.659        9.430        2.793      364.157       86.582        0.057      344.866       21.985      858.467
10/07/2013  16:34:00     -234.522      -54.822      -11.710      187.738      155.426       70.913    35245.728    24157.143     5028.632        6.127        3.222      240.845       77.082        0.102      344.881       22.011      858.466
10/07/2013  16:35:00     -261.248      -36.662       -0.703      177.123       95.604       62.033    31372.547     9140.111     3848.112        5.697        2.218      263.808       76.200        0.083      344.890       22.028      858.477
10/07/2013  16:36:00     -249.761      -88.860       -6.763      170.300      107.578       46.073    29002.220    11572.960     2122.698        5.650        2.135      265.097       57.691        0.047      344.877       22.005      858.474
10/07/2013  16:37:00     -285.791      -98.743        5.006      196.218      192.492       85.288    38501.529    37053.019     7274.051        8.712        4.141      302.368       93.443        0.096      344.811       21.891      858.446
10/07/2013  16:38:00     -277.439     -210.344       -5.775      209.163      158.374       65.597    43749.237    25082.260     4302.912        9.718        3.657      348.162       83.550        0.058      344.866       21.987      858.445
10/07/2013  16:39:00     -316.553     -185.527       -4.182      211.815      154.661       89.754    44865.488    23920.144     8055.828       10.573        3.842      366.914       85.803        0.055      344.781       21.841      858.441
10/07/2013  16:40:00     -460.923     -340.532       -5.800      219.828      171.472      114.612    48324.381    29402.712    13135.990       20.964        4.543      573.073      127.347        0.049      344.717       21.731      858.427
10/07/2013  16:41:00     -349.457     -165.811       -1.343      182.636      132.188       77.851    33355.957    17473.767     6060.811       10.324        2.845      386.799       91.656        0.056      344.753       21.792      858.439
10/07/2013  16:42:00     -222.993      -41.939       16.892      168.763      122.854       72.318    28480.801    15093.009     5229.902        5.028        2.440      226.902       77.001        0.115      344.756       21.798      858.443
10/07/2013  16:43:00     -299.641     -124.935       10.108      184.555      170.457       88.381    34060.474    29055.725     7811.190        8.820        3.546      324.643       85.739        0.070      344.737       21.766      858.445
10/07/2013  16:44:00     -267.531     -194.311       -4.121      165.074      155.658       76.398    27249.263    24229.442     5836.684        8.332        2.866      330.650       78.968        0.057      344.685       21.676      858.433
10/07/2013  16:45:00     -206.091      -26.516        7.646      159.032      103.373       59.319    25291.146    10685.988     3518.743        4.136        1.975      207.790       79.798        0.147      344.698       21.698      858.410
10/07/2013  16:46:00     -262.679      -60.548       -6.144      177.376      128.763       70.214    31462.205    16580.025     4930.046        6.283        2.649      269.567       84.216        0.098      344.719       21.734      858.400
10/07/2013  16:47:00     -305.806     -105.533       -8.006      199.031      146.461       76.409    39613.342    21450.736     5838.375        8.580        3.345      323.503       74.588        0.053      344.675       21.659      858.385
10/07/2013  16:48:00     -336.612     -206.563       -4.136      191.411      144.259       93.335    36638.107    20810.678     8711.504       11.106        3.308      394.938       98.192        0.062      344.664       21.638      858.380
10/07/2013  16:49:00     -419.466     -240.618      -13.417      214.434      180.695       96.311    45981.903    32650.560     9275.764       16.095        4.395      483.579      101.761        0.044      344.631       21.583      858.357
10/07/2013  16:50:00     -390.602     -103.588        3.706      144.010      118.761       73.136    20738.850    14104.180     5348.828       10.174        2.010      404.105       73.119        0.033      344.620       21.565      858.347
10/07/2013  16:51:00     -333.735     -165.713        4.002      169.990      132.507       71.886    28896.662    17558.236     5167.576        9.523        2.581      372.612       79.166        0.045      344.637       21.594      858.355
10/07/2013  16:52:00     -435.576     -117.414      -19.069      172.033       94.517       76.424    29595.276     8933.529     5840.570       12.411        2.218      451.124       88.827        0.039      344.652       21.619      858.345
10/07/2013  16:53:00     -316.511     -230.787      -16.699      151.023      113.390       87.210    22807.875    12857.224     7605.652        9.849        2.164      391.716       89.168        0.052      344.659       21.628      858.341
10/07/2013  16:54:00     -376.860     -238.234      -13.577      192.665       91.775       74.558    37119.958     8422.661     5558.939       12.502        2.555      445.846       76.985        0.030      344.650       21.616      858.343
10/07/2013  16:55:00     -213.056     -102.282        6.430      110.787      132.853       69.611    12273.799    17650.022     4845.642        4.533        1.738      236.336       60.483        0.065      344.659       21.632      858.336
10/07/2013  16:56:00     -270.798     -159.796      -11.162      167.573      106.263       65.308    28080.567    11291.905     4265.083        7.131        2.182      314.431       84.306        0.072      344.647       21.612      858.322
10/07/2013  16:57:00     -220.252     -116.181        9.755      131.897      121.295       61.802    17396.821    14712.394     3819.428        4.901        1.796      249.016       68.470        0.076      344.628       21.578      858.308
10/07/2013  16:58:00     -188.257     -159.036        2.549      134.465      101.224       71.931    18080.893    10246.290     5174.063        4.711        1.675      246.441       76.236        0.096      344.638       21.596      858.315
10/07/2013  16:59:00     -242.616     -145.515       -0.283      180.001      100.223       61.745    32400.423    10044.626     3812.455        6.314        2.313      282.908       70.610        0.062      344.628       21.579      858.313
10/07/2013  17:00:00     -278.083     -156.765       -3.595      117.771       96.012       59.028    13870.052     9218.324     3484.252        6.424        1.329      319.226       57.555        0.033      344.611       21.551      858.282
10/07/2013  17:01:00     -211.437      -68.413       -2.149      120.372       75.240       55.211    14489.370     5661.128     3048.242        3.629        1.160      222.230       44.128        0.039      344.632       21.584      858.306
10/07/2013  17:02:00     -272.432     -178.051       -5.199      181.609      124.949       65.999    32981.651    15612.243     4355.876        7.944        2.647      325.455       83.912        0.066      344.619       21.563      858.310
10/07/2013  17:03:00     -159.195     -119.979        1.200      125.245      117.760       67.300    15686.242    13867.301     4529.243        3.690        1.704      199.344       63.591        0.102      344.600       21.532      858.298
10/07/2013  17:04:00     -268.446      -72.075      -19.692      122.341      122.368       60.561    14967.301    14974.005     3667.685        5.562        1.680      277.954       51.264        0.034      344.613       21.551      858.301
10/07/2013  17:05:00     -242.046      -71.178        2.509      149.902      101.920       58.818    22470.501    10387.783     3459.538        4.998        1.816      252.294       68.685        0.074      344.587       21.509      858.280
10/07/2013  17:06:00     -236.192     -121.448      -17.534       95.562      114.671       45.775     9132.068    13149.433     2095.329        4.761        1.219      265.587       36.923        0.019      344.599       21.529      858.279
10/07/2013  17:07:00     -123.277      -22.439       12.881      112.087      105.310       50.547    12563.547    11090.132     2555.026        2.103        1.310      125.303       60.144        0.230      344.598       21.530      858.278
10/07/2013  17:08:00      -82.295      -67.950       15.922       90.259       80.835       52.914     8146.691     6534.274     2799.873        1.456        0.874      106.723       47.340        0.197      344.574       21.490      858.272
10/07/2013  17:09:00     -157.760      -77.716       12.740      102.920       82.971       55.132    10592.431     6884.198     3039.510        2.580        1.026      175.863       54.147        0.095      344.580       21.497      858.262
10/07/2013  17:10:00     -234.626     -174.841       -4.272      126.508      111.789       59.944    16004.339    12496.828     3593.270        5.886        1.605      292.607       67.728        0.054      344.586       21.507      858.258
10/07/2013  17:11:00     -192.974     -116.173       -4.902      127.666      120.933       61.498    16298.566    14624.729     3781.971        4.273        1.735      225.244       63.550        0.080      344.585       21.506      858.266
10/07/2013  17:12:00     -418.025      -52.679      -19.320      191.138      149.640       86.890    36533.553    22392.083     7549.889       12.217        3.324      421.331       95.641        0.052      344.549       21.443      858.250
10/07/2013  17:13:00     -472.777     -216.097      -13.344      197.997      185.676       98.756    39202.734    34475.742     9752.816       17.690        4.172      519.823      106.125        0.042      344.514       21.384      858.244
10/07/2013  17:14:00     -428.468     -110.254      -26.586      200.743      165.461       65.562    40297.851    27377.322     4298.369       13.420        3.599      442.426       90.480        0.042      344.504       21.367      858.241
10/07/2013  17:15:00     -183.875       12.776       14.271      172.102       84.223       75.926    29619.035     7093.552     5764.790        3.832        2.124      184.318       85.147        0.213      344.468       21.306      858.225
10/07/2013  17:16:00     -206.311     -117.482       13.134      183.016      156.745       82.034    33494.991    24569.086     6729.509        6.065        3.240      237.415      100.013        0.177      344.466       21.302      858.219
10/07/2013  17:17:00     -167.998     -152.398        2.847      107.701      176.423       61.469    11599.609    31124.961     3778.439        4.897        2.325      226.823       52.597        0.054      344.491       21.344      858.233
10/07/2013  17:18:00     -335.714     -176.876       -2.953      200.739      146.618       75.091    40296.113    21496.943     5638.694       10.570        3.372      379.459       73.828        0.038      344.472       21.312      858.242
10/07/2013  17:19:00     -371.764     -154.640        3.658      170.135      118.103       72.200    28945.915    13948.426     5212.904       10.511        2.405      402.644       89.818        0.050      344.449       21.273      858.237
10/07/2013  17:20:00     -318.656     -131.836       -4.757      154.562      109.630       72.675    23889.468    12018.632     5281.656        8.006        2.059      344.851       78.617        0.052      344.443       21.262      858.224
10/07/2013  17:21:00     -211.665     -155.892       11.904      132.743      124.016       70.813    17620.672    15379.906     5014.541        5.362        1.901      262.877       77.650        0.087      344.410       21.205      858.223
10/07/2013  17:22:00     -215.272     -128.827        6.408      103.251       96.223       47.565    10660.834     9258.869     2262.444        4.258        1.109      250.875       42.004        0.028      344.428       21.236      858.216
10/07/2013  17:23:00     -366.280     -148.440        7.757      187.299      130.939       77.893    35080.758    17144.927     6067.297       10.726        2.915      395.216       97.233        0.061      344.414       21.212      858.206
10/07/2013  17:24:00     -261.572     -157.229       -8.296      147.384      127.597       62.885    21722.130    16280.881     3954.467        6.758        2.098      305.190       62.461        0.042      344.409       21.203      858.214
10/07/2013  17:25:00     -347.012     -129.289       -8.005      182.580      142.036       77.375    33335.469    20174.342     5986.901        9.833        2.975      370.315       88.927        0.058      344.411       21.207      858.203
10/07/2013  17:26:00     -234.125     -130.455        8.449      187.293      120.562       82.127    35078.745    14535.279     6744.780        6.412        2.818      268.017       97.429        0.132      344.380       21.154      858.186
10/07/2013  17:27:00     -151.783      -92.815        4.525      113.135       66.179       57.117    12799.587     4379.692     3262.389        2.605        1.022      177.912       66.712        0.141      344.375       21.146      858.191
10/07/2013  17:28:00     -297.993     -192.170       -0.885      160.529      105.594       65.874    25769.420    11150.151     4339.334        8.349        2.063      354.583       71.756        0.041      344.368       21.133      858.187
10/07/2013  17:29:00     -256.349     -157.402      -12.155      138.349      106.335       58.547    19140.567    11307.227     3427.693        6.225        1.694      300.816       69.726        0.054      344.374       21.146      858.190
10/07/2013  17:30:00     -307.994     -138.974      -19.403      193.378      111.115       66.980    37394.905    12346.492     4486.300        8.438        2.711      337.896       71.549        0.045      344.352       21.108      858.183
10/07/2013  17:31:00     -254.158     -148.756       10.002      140.351      141.482       62.831    19698.538    20017.174     3947.735        6.524        2.183      294.490       64.890        0.049      344.337       21.081      858.179
10/07/2013  17:32:00     -354.894     -141.032       -4.372      172.149      134.759       78.860    29635.211    18160.105     6218.926        9.993        2.701      381.890       84.330        0.049      344.344       21.092      858.171
10/07/2013  17:33:00     -229.065     -111.667       -6.024      134.558      107.178       56.410    18105.918    11487.080     3182.114        4.887        1.639      254.833       61.758        0.059      344.318       21.049      858.168
10/07/2013  17:34:00     -174.677      -81.768       -2.447      128.031       80.254       47.806    16391.968     6440.641     2285.370        3.116        1.256      192.868       51.080        0.070      344.315       21.044      858.167
10/07/2013  17:35:00     -353.696     -247.899       -7.739      197.534      139.440       82.767    39019.810    19443.528     6850.331       12.595        3.266      431.920       89.387        0.043      344.296       21.010      858.143
10/07/2013  17:36:00     -172.080     -114.090        1.984      155.225      115.854       75.813    24094.783    13422.177     5747.637        4.294        2.163      206.466       69.217        0.112      344.260       20.951      858.141
10/07/2013  17:37:00     -105.166      -64.509       24.706      112.042       91.674       59.814    12553.441     8404.078     3577.726        2.018        1.227      123.375       63.057        0.261      344.198       20.846      858.148
10/07/2013  17:38:00     -111.414     -119.628       -3.319      108.950       95.181       51.535    11870.182     9059.428     2655.828        2.516        1.179      163.474       52.840        0.104      344.243       20.924      858.150
10/07/2013  17:39:00     -175.998     -117.795        0.428       84.771       73.203       49.011     7186.173     5358.720     2402.063        2.990        0.747      211.780       40.506        0.037      344.234       20.906      858.154
10/07/2013  17:40:00     -256.937     -170.260        0.579      164.531      131.349       62.503    27070.471    17252.434     3906.610        7.161        2.411      308.229       70.703        0.053      344.204       20.854      858.134
10/07/2013  17:41:00     -301.303      -63.324       -9.396      116.414      140.167       57.072    13552.260    19646.882     3257.188        6.566        1.823      307.886       58.456        0.036      344.223       20.885      858.138
10/07/2013  17:42:00     -121.404      -81.404       20.553      110.604       85.264       54.872    12233.317     7269.975     3010.909        2.215        1.126      146.170       54.674        0.140      344.164       20.788      858.150
10/07/2013  17:43:00     -342.076     -170.996       -9.811      176.069      138.561       77.900    31000.459    19199.055     6068.361       10.130        2.813      382.434       91.946        0.058      344.190       20.828      858.142
10/07/2013  17:44:00     -174.914     -126.365        6.170      131.432       97.543       52.084    17274.335     9514.638     2712.731        3.805        1.475      215.785       60.505        0.079      344.172       20.800      858.140
10/07/2013  17:45:00     -138.711      -93.182       14.885      124.668       71.948       45.745    15542.206     5176.568     2092.567        2.547        1.141      167.103       55.066        0.109      344.135       20.736      858.139
10/07/2013  17:46:00     -134.887     -109.684       -1.728      131.788       84.158       48.915    17367.968     7082.559     2392.675        2.853        1.342      173.854       61.223        0.124      344.148       20.758      858.132
10/07/2013  17:47:00     -284.841     -229.402       -8.288      167.958      124.610       82.689    28209.891    15527.603     6837.419        9.219        2.529      365.731       77.049        0.044      344.134       20.734      858.133
10/07/2013  17:48:00     -286.840     -184.292       -2.836      191.409      125.140       78.412    36637.314    15659.905     6148.456        8.734        2.922      340.941       93.621        0.075      344.113       20.700      858.123
10/07/2013  17:49:00     -283.484     -190.320       -2.757      151.454      130.767       68.447    22938.166    17100.045     4684.999        8.065        2.236      341.445       68.149        0.040      344.129       20.727      858.137
10/07/2013  17:50:00     -316.949     -199.064      -15.442      141.730      113.844       67.561    20087.325    12960.358     4564.426        8.896        1.881      374.276       63.002        0.028      344.106       20.688      858.127
10/07/2013  17:51:00     -252.386     -165.781       -6.241      196.978      146.427       60.301    38800.271    21441.008     3636.152        7.754        3.194      301.964       81.912        0.074      344.073       20.630      858.143
10/07/2013  17:52:00     -376.403     -111.813      -21.644      165.850      134.095       72.019    27506.329    17981.599     5186.749       10.265        2.534      392.660       84.131        0.046      344.048       20.587      858.129
10/07/2013  17:53:00     -263.338     -100.181      -10.184      121.441       78.964       59.217    14747.853     6235.281     3506.599        5.198        1.224      281.750       51.893        0.034      344.053       20.594      858.146
10/07/2013  17:54:00     -197.606     -127.856       -4.979      134.609      103.087       67.531    18119.678    10626.839     4560.468        4.436        1.665      235.362       70.629        0.090      344.026       20.551      858.168
10/07/2013  17:55:00     -159.259      -54.883        3.300      132.245       69.078       57.011    17488.714     4771.730     3250.283        2.694        1.276      168.451       74.616        0.196      343.998       20.503      858.190
10/07/2013  17:56:00     -360.509     -175.278      -17.820      236.088      131.992       71.151    55737.372    17421.924     5062.512       11.960        3.911      400.860       94.566        0.056      344.000       20.506      858.200
10/07/2013  17:57:00     -166.160     -173.978        2.179      149.381      140.781       79.906    22314.592    19819.318     6384.972        5.319        2.426      240.577       86.607        0.130      343.988       20.486      858.196
10/07/2013  17:58:00     -222.260     -127.730      -19.678      140.355      126.709       75.543    19699.634    16055.205     5706.729        5.377        2.073      256.349       61.728        0.058      343.986       20.481      858.208
10/07/2013  17:59:00     -250.876      -43.898      -14.689       97.483       63.414       43.097     9502.863     4021.295     1857.384        4.023        0.769      254.687       26.588        0.011      343.984       20.475      858.201
10/07/2013  18:00:00     -211.523     -127.385       -6.723      128.231       98.129       53.315    16443.240     9629.302     2842.502        4.496        1.446      246.919       47.322        0.037      343.938       20.399      858.205
10/07/2013  18:01:00     -176.946      -83.753        0.382       99.405       73.647       52.458     9881.424     5423.930     2751.840        2.819        0.903      195.766       55.941        0.082      343.923       20.374      858.221
10/07/2013  18:02:00     -218.519      -41.241       -9.355      125.610      103.787       48.935    15777.799    10771.688     2394.671        3.924        1.447      222.376       51.320        0.053      343.899       20.335      858.232
10/07/2013  18:03:00     -116.269        4.107        5.483       78.576       69.719       46.367     6174.211     4860.690     2149.884        1.337        0.659      116.342       40.088        0.119      343.816       20.194      858.229
10/07/2013  18:04:00     -273.581     -174.789      -20.481      116.051      128.341       56.659    13467.840    16471.296     3210.206        6.948        1.657      324.650       62.087        0.037      343.893       20.322      858.241
10/07/2013  18:05:00     -278.086      -96.118      -15.009      125.052      125.637       61.133    15638.043    15784.739     3737.183        6.097        1.758      294.228       63.789        0.047      343.897       20.328      858.264
10/07/2013  18:06:00     -228.445     -147.000       -2.981      151.206      146.738       79.148    22863.192    21532.069     6264.331        6.222        2.533      271.654       76.987        0.080      343.846       20.242      858.261
10/07/2013  18:07:00     -222.426      -99.212       -7.044      126.808      104.119       60.476    16080.379    10840.667     3657.350        4.497        1.529      243.550       63.440        0.068      343.855       20.257      858.277
10/07/2013  18:08:00     -245.664     -158.000       -3.845      162.099      141.522       73.871    26276.054    20028.395     5456.980        6.854        2.588      292.087       80.922        0.077      343.813       20.187      858.275
10/07/2013  18:09:00     -208.711       12.587      -11.406      126.900      125.776       63.872    16103.562    15819.642     4079.673        3.992        1.800      209.090       64.674        0.096      343.802       20.168      858.306
10/07/2013  18:10:00     -253.918      -56.320        6.759      149.603      106.112       59.999    22381.193    11259.789     3599.857        5.246        1.862      260.089       70.614        0.074      343.819       20.197      858.307
10/07/2013  18:11:00     -344.332      -97.548      -26.404      124.152      116.898       75.338    15413.746    13665.113     5675.834        8.176        1.738      357.883       78.363        0.048      343.848       20.245      858.302
10/07/2013  18:12:00     -155.025      -38.509       -1.275      114.037       96.773       57.028    13004.346     9364.949     3252.152        2.556        1.281      159.736       66.636        0.174      343.816       20.192      858.295
10/07/2013  18:13:00     -126.009      -14.731        8.179       66.733       48.939       38.799     4453.316     2395.017     1505.366        1.226        0.418      126.867       38.800        0.094      343.773       20.120      858.305
10/07/2013  18:14:00     -217.092      -16.990       -4.369       99.206       87.115       48.447     9841.889     7588.995     2347.111        3.360        0.989      217.755       42.662        0.038      343.760       20.098      858.310
10/07/2013  18:15:00     -308.072      -39.164      -20.033      227.962      141.682       64.805    51966.601    20073.708     4199.743        8.653        3.812      310.551       59.073        0.036      343.694       19.985      858.300
10/07/2013  18:16:00     -216.850      -43.615      -15.706      139.876      139.887       50.994    19565.166    19568.238     2600.381        4.544        2.087      221.192       55.314        0.063      343.749       20.077      858.289
10/07/2013  18:17:00      -52.946      -15.286       32.578       84.223       82.121       48.076     7093.550     6743.839     2311.336        1.012        0.807       55.108       45.894        0.694      343.616       19.853      858.271
10/07/2013  18:18:00      -32.636        8.035        5.743       74.817       69.995       44.259     5597.533     4899.309     1958.875        0.681        0.623       33.611       20.295        0.365      343.505       19.664      858.277
10/07/2013  18:19:00      -35.172      -10.133       11.521       69.219       51.947       36.629     4791.216     2698.452     1341.652        0.515        0.442       36.603       30.346        0.687      343.495       19.648      858.270
10/07/2013  18:20:00     -168.287       12.420       -0.967      124.814       63.474       48.506    15578.491     4028.935     2352.799        2.521        1.098      168.744       50.313        0.089      343.615       19.849      858.263
10/07/2013  18:21:00     -241.434      -18.181      -15.073      124.578      104.661       54.433    15519.590    10953.853     2962.903        4.414        1.472      242.118       52.486        0.047      343.647       19.903      858.267
10/07/2013  18:22:00     -334.576      -40.640      -26.295      163.430      131.757       66.178    26709.399    17359.955     4379.533        8.136        2.422      337.035       70.742        0.044      343.666       19.934      858.259
10/07/2013  18:23:00     -257.487      -79.973      -10.152       86.064       65.627       37.172     7407.057     4306.965     1381.729        4.294        0.655      269.621       38.780        0.021      343.647       19.902      858.244
10/07/2013  18:24:00     -147.666      -56.941       -0.431       61.967       80.333       35.053     3839.905     6453.404     1228.681        1.828        0.576      158.264       33.579        0.045      343.609       19.840      858.273
10/07/2013  18:25:00     -214.193      -91.703      -20.686       87.421       86.000       41.871     7642.486     7396.066     1753.194        3.575        0.840      232.998       42.992        0.034      343.666       19.936      858.261
10/07/2013  18:26:00      -76.816      -53.426       10.341       82.708       51.672       34.587     6840.597     2669.951     1196.289        0.978        0.535       93.569       38.586        0.170      343.557       19.752      858.241
10/07/2013  18:27:00      -33.358      -52.531        0.556       35.860       52.782       20.716     1285.947     2785.975      429.173        0.419        0.225       62.227       14.085        0.051      343.537       19.720      858.238
10/07/2013  18:28:00      -67.824     -101.284        2.251      109.553      100.134       42.047    12001.820    10026.745     1767.945        1.933        1.190      121.896       45.898        0.142      343.560       19.757      858.241
10/07/2013  18:29:00      -81.082      -22.741       13.578       56.886      113.330       40.334     3236.015    12843.621     1626.801        1.249        0.885       84.211       31.540        0.140      343.532       19.708      858.230
10/07/2013  18:30:00     -104.705       21.963       11.977      100.129       58.366       47.486    10025.770     3406.562     2254.891        1.363        0.784      106.984       50.259        0.221      343.489       19.635      858.240
10/07/2013  18:31:00      -93.110      -64.231       -1.233       56.222       38.170       26.383     3160.943     1456.935      696.066        0.905        0.266      113.116       13.872        0.015      343.527       19.701      858.262
10/07/2013  18:32:00      -73.523      -73.620       13.920       63.060       59.005       44.587     3976.511     3481.635     1987.956        1.023        0.472      104.046       31.228        0.090      343.551       19.742      858.270
10/07/2013  18:33:00      -40.309      -10.878        7.136       27.668       44.327       26.666      765.529     1964.890      711.086        0.262        0.172       41.751       24.351        0.340      343.183       19.115      858.264
10/07/2013  18:34:00      -67.545      -56.856      -19.878       70.714       82.162       41.635     5000.507     6750.639     1733.500        1.083        0.674       88.289       39.554        0.201      343.563       19.760      858.277
10/07/2013  18:35:00      -13.301       -3.809        3.540       38.113       75.015       42.901     1452.638     5627.236     1840.525        0.456        0.446       13.835       23.738        2.944      343.195       19.136      858.233
10/07/2013  18:36:00        2.127      -11.267       11.854       23.723       32.155       19.275      562.794     1033.969      371.507        0.112        0.098       11.466       19.674        2.944      342.791       18.447      858.219
10/07/2013  18:37:00      -48.340     -204.935       -7.468       82.206      117.140       44.332     6757.889    13721.710     1965.311        3.341        1.122      210.559       25.857        0.015      343.320       19.346      858.240
10/07/2013  18:38:00     -156.629      -92.397       11.177      174.240      118.480       58.846    30359.500    14037.475     3462.876        4.052        2.393      181.851       83.412        0.210      343.357       19.409      858.214
10/07/2013  18:39:00     -108.122      -91.993        1.865       89.741       71.671       40.744     8053.413     5136.746     1660.049        1.750        0.743      141.962       34.041        0.057      343.469       19.600      858.213
10/07/2013  18:40:00     -157.596     -125.211        3.468      166.348      105.382       50.486    27671.792    11105.273     2548.792        4.092        2.066      201.281       59.826        0.088      343.475       19.610      858.182
10/07/2013  18:41:00     -123.845      -27.726       -2.179      114.574       67.966       49.604    13127.118     4619.442     2460.527        1.816        1.010      126.911       57.429        0.205      343.465       19.593      858.185
10/07/2013  18:42:00      -31.396       21.807       17.288       40.316       28.880       29.650     1625.378      834.063      879.102        0.255        0.167       38.227       27.678        0.524      342.871       18.585      858.197
10/07/2013  18:43:00     -101.601        5.975       -8.126       94.260       63.445       46.548     8884.873     4025.283     2166.697        1.275        0.754      101.777       38.341        0.142      343.316       19.341      858.210
10/07/2013  18:44:00       18.194       14.894       35.949       51.075       59.736       53.848     2608.615     3568.377     2899.629        0.546        0.454       23.513       40.352        2.945      342.887       18.609      858.215
10/07/2013  18:45:00       54.995        6.654       30.263       40.811       49.006       49.373     1665.540     2401.603     2437.714        0.524        0.325       55.396       26.003        0.220      342.766       18.405      858.207
10/07/2013  18:46:00       32.692        8.111       16.257       34.061       28.743       25.513     1160.152      826.137      650.897        0.202        0.132       33.684       20.544        0.372      342.595       18.115      858.236
10/07/2013  18:47:00      -55.157        9.115       13.924       65.210       38.815       32.036     4252.348     1506.627     1026.308        0.505        0.339       55.905       40.194        0.517      343.188       19.124      858.256
10/07/2013  18:48:00     -115.244       71.715       -4.338      118.251       64.541       33.643    13983.373     4165.527     1131.862        1.886        0.964      135.736       36.393        0.072      343.327       19.357      858.253
10/07/2013  18:49:00      -18.695      116.004       -3.682       79.675       79.247       58.415     6348.182     6280.145     3412.312        1.493        0.802      117.500       48.670        0.172      343.311       19.331      858.230
10/07/2013  18:50:00      -96.768        4.830        1.792       66.293       58.823       33.846     4394.758     3460.178     1145.572        0.919        0.450       96.888       32.322        0.111      343.278       19.277      858.244
10/07/2013  18:51:00     -100.597      -34.320       -0.703       46.397       44.973       21.639     2152.704     2022.559      468.268        0.797        0.232      106.290       24.293        0.052      343.288       19.293      858.271
10/07/2013  18:52:00      -67.230       -9.513      -12.038       46.709       22.023       23.465     2181.690      485.032      550.594        0.399        0.161       67.899       16.886        0.062      343.335       19.375      858.308
10/07/2013  18:53:00      -20.285       30.711       -0.966       47.928       39.489       23.643     2297.138     1559.354      558.971        0.288        0.221       36.806       18.643        0.257      343.241       19.215      858.318
10/07/2013  18:54:00       41.288        4.624       -1.548       26.454       33.846       29.705      699.826     1145.557      882.368        0.223        0.136       41.546       24.386        0.345      342.695       18.284      858.346
10/07/2013  18:55:00       95.659      -74.155       30.868       69.900       91.648       52.193     4886.071     8399.344     2724.087        1.580        0.800      121.036       56.461        0.218      342.393       17.771      858.328
10/07/2013  18:56:00      -78.711      -72.042       26.403      122.291       68.237       39.779    14955.112     4656.327     1582.335        1.663        1.060      106.703       53.150        0.248      342.933       18.688      858.357
10/07/2013  18:57:00       34.425      -14.929       11.368       35.128       39.390       31.560     1233.942     1551.608      996.048        0.266        0.189       37.523       19.000        0.256      342.315       17.639      858.392
10/07/2013  18:58:00     -113.176       -7.408        0.951      124.253       59.130       49.099    15438.885     3496.321     2410.723        1.710        1.067      113.418       46.724        0.170      342.907       18.645      858.429
10/07/2013  18:59:00      -20.855      -19.332       51.379      113.198       79.076       52.248    12813.789     6253.067     2729.820        1.262        1.090       28.437       64.732        5.182      342.590       18.105      858.425
10/07/2013  19:00:00       51.416      -55.386       12.795       51.790       60.922       38.598     2682.182     3711.440     1489.800        0.688        0.394       75.572       32.645        0.187      342.568       18.069      858.418
10/07/2013  19:01:00       22.012        9.236        3.012       36.390       28.746       17.269     1324.201      826.351      298.223        0.151        0.122       23.871       19.135        0.643      342.759       18.395      858.470
10/07/2013  19:02:00       50.713        2.609        5.670       42.116       28.619       20.867     1773.769      819.052      435.446        0.282        0.151       50.780        8.950        0.031      342.312       17.632      858.475
10/07/2013  19:03:00      -71.418     -128.946       -4.191       60.913       70.834       39.338     3710.416     5017.429     1547.506        1.601        0.514      147.403       38.361        0.068      343.100       18.974      858.507
10/07/2013  19:04:00       16.331     -117.031        1.792       39.130       94.074       40.824     1531.193     8849.925     1666.601        1.300        0.602      118.165       18.655        0.025      343.003       18.810      858.514
10/07/2013  19:05:00       -8.334      -53.933        2.963       37.344       43.333       39.193     1394.559     1877.712     1536.055        0.390        0.240       54.573       24.620        0.204      343.163       19.082      858.509
10/07/2013  19:06:00      -72.995        5.623        0.999       55.808       40.770       29.865     3114.507     1662.180      891.934        0.551        0.283       73.211       24.316        0.110      343.125       19.017      858.536
10/07/2013  19:07:00     -125.568      -46.791       -5.382       74.299       75.753       28.971     5520.285     5738.555      839.348        1.504        0.605      134.002       23.402        0.030      343.197       19.137      858.554
10/07/2013  19:08:00      -72.767        5.876        0.780       46.001       33.268       27.636     2116.068     1106.728      763.758        0.466        0.199       73.004       20.914        0.082      343.194       19.135      858.559
10/07/2013  19:09:00       63.665       -4.515       25.722       67.321       37.845       33.025     4532.088     1432.225     1090.683        0.589        0.353       63.825       32.496        0.259      341.886       16.911      858.569
10/07/2013  19:10:00        4.725      -12.023       52.554      118.504       68.683       53.615    14043.313     4717.384     2874.558        1.228        1.082       12.918       66.212       26.272      342.538       18.018      858.561
10/07/2013  19:11:00      -71.694      -41.600       -0.911       55.595       27.346       21.528     3090.754      747.817      463.434        0.559        0.215       82.889       23.395        0.080      343.169       19.091      858.585
10/07/2013  19:12:00       -1.387      -15.355        0.546       53.594       26.892       24.631     2872.298      723.201      606.683        0.222        0.210       15.418       20.733        1.808      342.752       18.383      858.584
10/07/2013  19:13:00        5.339      -10.368       16.337       29.493       22.793       16.015      869.852      519.534      256.492        0.102        0.082       11.662       13.216        1.284      342.283       17.585      858.614
10/07/2013  19:14:00       21.310       -6.102       19.641       28.682       23.357       21.461      822.633      545.531      460.581        0.135        0.091       22.166       12.590        0.323      342.118       17.304      858.621
10/07/2013  19:15:00       89.511      -73.871       -0.029       50.370       53.673       31.062     2537.121     2880.774      964.842        0.992        0.319      116.057       32.021        0.076      342.818       18.494      858.629
10/07/2013  19:16:00       53.722      -48.335       -5.182       51.087       42.437       28.756     2609.916     1800.907      826.891        0.524        0.262       72.266       22.391        0.096      342.233       17.498      858.625
10/07/2013  19:17:00       82.617       61.232       24.535       67.406       42.899       24.719     4543.606     1840.296      611.011        0.908        0.350      102.834       19.324        0.035      342.422       17.820      858.606
10/07/2013  19:18:00      133.740       96.554       37.933       34.831       27.246       25.912     1213.172      742.332      671.444        1.564        0.131      164.952       17.891        0.012      342.892       18.619      858.589
10/07/2013  19:19:00       32.228       29.350       18.177       60.466       34.642       20.643     3656.078     1200.099      426.149        0.376        0.264       43.590        9.028        0.043      342.528       18.002      858.607
10/07/2013  19:20:00      -20.248      -26.173       -4.231       21.558       28.857       18.462      464.731      832.708      340.847        0.138        0.082       33.091       16.738        0.256      342.180       17.410      858.620
10/07/2013  19:21:00       30.667       40.038       21.702       23.532       18.225       24.082      553.744      332.133      579.960        0.224        0.073       50.433       17.206        0.116      341.931       16.987      858.607
10/07/2013  19:22:00        6.118       46.084       -8.869       28.758       25.235       10.791      827.001      636.786      116.436        0.191        0.079       46.488       11.230        0.058      342.500       17.954      858.621
10/07/2013  19:23:00        6.850       46.075       10.676       20.089       20.716       15.682      403.582      429.160      245.915        0.168        0.054       46.582        8.004        0.030      342.444       17.858      858.615
10/07/2013  19:24:00      -11.500       89.300       -9.551       75.423       42.577       27.373     5688.660     1812.789      749.285        0.822        0.413       90.037       26.530        0.087      342.674       18.249      858.594
10/07/2013  19:25:00     -173.296      -20.225      -13.398       44.034       63.786       24.540     1939.015     4068.594      602.197        1.861        0.330      174.473       18.208        0.011      342.896       18.625      858.616
10/07/2013  19:26:00     -125.413      -77.358        0.653       84.171       83.038       44.362     7084.780     6895.230     1968.024        1.883        0.797      147.352       56.657        0.148      342.906       18.642      858.608
10/07/2013  19:27:00     -175.056       83.129      -18.928       79.902      112.428       51.243     6384.256    12640.146     2625.864        2.978        1.083      193.791       23.537        0.015      342.984       18.774      858.563
10/07/2013  19:28:00     -170.524      -87.693      -17.454       58.189       75.612       30.812     3385.964     5717.232      949.396        2.356        0.503      191.751       23.706        0.015      342.904       18.638      858.546
10/07/2013  19:29:00     -169.078      -28.926       -1.843       64.797       55.742       37.655     4198.653     3107.189     1417.900        1.907        0.436      171.534       36.618        0.046      342.875       18.589      858.549
10/07/2013  19:30:00     -187.538      -34.736       -7.972       72.264       71.354       40.685     5222.145     5091.452     1655.236        2.420        0.598      190.728       35.808        0.035      342.917       18.660      858.546
10/07/2013  19:31:00     -459.145      -24.673      -38.545      115.167      104.382       65.599    13263.374    10895.695     4303.174       12.068        1.423      459.807       54.741        0.014      342.904       18.636      858.521
10/07/2013  19:32:00     -217.242      -40.571       -9.572      134.006       76.440       38.663    17957.515     5843.100     1494.801        3.711        1.265      220.998       35.670        0.026      342.879       18.595      858.522
10/07/2013  19:33:00     -166.589      -18.240       -8.199      121.109       74.301       34.633    14667.419     5520.633     1199.465        2.477        1.069      167.585       40.895        0.060      342.825       18.504      858.500
10/07/2013  19:34:00     -273.723       14.366      -11.977      112.740       95.329       51.878    12710.307     9087.617     2691.307        4.988        1.224      274.099       57.700        0.044      342.840       18.527      858.483
10/07/2013  19:35:00     -325.333      -92.690      -14.438      114.036      109.638       57.279    13004.266    12020.506     3280.842        7.147        1.415      338.279       44.813        0.018      342.801       18.461      858.510
10/07/2013  19:36:00     -276.594     -144.567      -11.012      131.951      111.284       59.407    17411.075    12384.190     3529.243        6.542        1.666      312.096       54.941        0.031      342.817       18.490      858.521
10/07/2013  19:37:00     -232.331      -54.947        2.258      133.949       86.251       55.741    17942.465     7439.288     3107.045        4.274        1.424      238.740       57.464        0.058      342.797       18.455      858.469
10/07/2013  19:38:00     -307.865     -130.208        5.167      133.674       96.570       54.229    17868.772     9325.738     2940.811        7.094        1.507      334.268       57.137        0.029      342.770       18.410      858.473
10/07/2013  19:39:00     -188.841      -55.466       17.705      108.102      112.673       61.782    11686.115    12695.122     3817.021        3.362        1.410      196.819       66.973        0.116      342.735       18.350      858.468
10/07/2013  19:40:00     -141.844      -36.287       -6.923       92.143       54.564       44.991     8490.401     2977.266     2024.228        1.749        0.675      146.412       42.009        0.082      342.704       18.299      858.429
10/07/2013  19:41:00     -334.457      -10.257       -3.930      203.885      153.688       77.868    41569.220    23619.853     6063.424        9.160        3.563      334.614       84.787        0.064      342.719       18.323      858.417
10/07/2013  19:42:00     -244.823      -31.300       -7.071      152.804      101.364       65.350    23349.084    10274.567     4270.591        4.942        1.895      246.816       63.842        0.067      342.679       18.254      858.388
10/07/2013  19:43:00     -317.770      -65.644       14.602      182.100      156.301       85.161    33160.392    24429.990     7252.431        8.516        3.242      324.480       91.366        0.079      342.766       18.403      858.395
10/07/2013  19:44:00     -212.521      -99.749       11.182      148.920      165.688       78.331    22177.290    27452.410     6135.715        5.549        2.788      234.766       83.501        0.127      342.723       18.328      858.376
10/07/2013  19:45:00     -361.592     -125.460       -0.703      201.116      128.749       72.603    40447.709    16576.211     5271.196       10.438        3.115      382.739       82.277        0.046      342.719       18.322      858.342
10/07/2013  19:46:00     -468.723     -232.859      -28.319      203.784      181.729       92.808    41527.962    33025.387     8613.278       17.893        4.158      523.378       99.568        0.036      342.746       18.368      858.379
10/07/2013  19:47:00     -339.605      -70.369      -16.159      152.742      118.149       63.861    23330.259    13959.102     4078.198        8.095        2.068      346.819       67.420        0.038      342.746       18.368      858.397
10/07/2013  19:48:00     -260.004     -150.846        6.816      174.368      152.602       81.398    30404.027    23287.452     6625.633        7.535        3.016      300.594       94.360        0.099      342.737       18.353      858.387
10/07/2013  19:49:00     -258.477     -112.998      -20.925      123.636      109.715       66.621    15285.812    12037.436     4438.293        5.588        1.588      282.097       65.800        0.054      342.748       18.372      858.364
10/07/2013  19:50:00     -225.192      -15.842       -2.641      104.005       82.427       49.332    10816.999     6794.148     2433.636        3.550        1.002      225.749       49.649        0.048      342.724       18.331      858.358
10/07/2013  19:51:00     -487.048     -193.437      -17.180      206.731      175.428       96.112    42737.547    30775.053     9237.528       17.882        4.138      524.055       99.589        0.036      342.736       18.352      858.393
10/07/2013  19:52:00     -360.583      -92.890        4.096      196.284      139.033       77.059    38527.564    19330.303     5938.085       10.122        3.190      372.356       76.867        0.043      342.726       18.335      858.421
10/07/2013  19:53:00     -401.774      -68.590       -0.974      188.669      152.780       72.241    35596.021    23341.873     5218.808       11.513        3.208      407.587       86.154        0.045      342.739       18.356      858.476
10/07/2013  19:54:00     -559.813     -134.784      -28.921      212.189      162.618       79.285    45024.376    26444.722     6286.114       20.506        3.888      575.810       95.566        0.028      342.734       18.348      858.472
10/07/2013  19:55:00     -360.393      -20.626      -14.391      214.326      127.933       81.444    45935.420    16366.964     6633.075        9.971        3.447      360.982      105.106        0.085      342.715       18.317      858.489
10/07/2013  19:56:00     -355.014      -34.119       -9.962      213.807      124.010       85.733    45713.224    15378.464     7350.221        9.786        3.422      356.649       99.269        0.077      342.651       18.206      858.484
10/07/2013  19:57:00     -410.953      -26.986       -4.424      237.378      125.396       86.529    56348.285    15724.115     7487.222       12.458        3.978      411.838      118.593        0.083      342.669       18.238      858.452
10/07/2013  19:58:00     -566.330     -109.621       -7.066      283.665      173.627       99.879    80465.821    30146.244     9975.809       22.667        6.029      576.841      124.686        0.047      342.677       18.250      858.450
10/07/2013  19:59:00     -442.364     -128.715       -2.784      194.705      124.686       83.677    37909.970    15546.681     7001.891       13.635        3.023      460.710       82.275        0.032      342.723       18.330      858.551
10/07/2013  20:00:00     -339.593     -164.746      -12.333      159.574      147.669       81.254    25463.783    21806.232     6602.159        9.823        2.694      377.445       87.016        0.053      342.736       18.350      858.576
10/07/2013  20:01:00     -196.230      -58.806        4.259      121.362      110.098       57.876    14728.813    12121.571     3349.629        3.609        1.510      204.852       58.139        0.081      342.661       18.224      858.565
10/07/2013  20:02:00     -178.352       -1.864       -2.898      144.337       98.043       58.090    20833.244     9612.508     3374.425        3.281        1.691      178.361       69.511        0.152      342.635       18.179      858.530
10/07/2013  20:03:00     -283.120        9.425      -25.714      169.762      139.908       66.798    28819.132    19574.316     4462.032        6.687        2.643      283.277       75.125        0.070      342.654       18.212      858.489
10/07/2013  20:04:00     -356.324      -78.138      -11.179      252.250      186.971       86.191    63629.992    34958.220     7428.814       11.959        5.301      364.791      102.347        0.079      342.627       18.167      858.399
10/07/2013  20:05:00     -501.820     -184.841       -4.569      259.130      169.709      106.580    67148.470    28801.012    11359.360       19.664        5.365      534.779      130.572        0.060      342.680       18.256      858.454
10/07/2013  20:06:00     -220.749     -108.702        0.267      157.576      115.234       65.263    24830.172    13278.862     4259.279        5.145        2.118      246.061       72.054        0.086      342.697       18.285      858.516
10/07/2013  20:07:00     -313.211     -116.817        6.398      271.228      171.845       90.610    73564.516    29530.836     8210.089       11.152        5.565      334.286      115.199        0.119      342.659       18.220      858.499
10/07/2013  20:08:00     -386.044     -162.055      -28.214      268.184      165.982      102.948    71922.809    27549.894    10598.307       14.306        5.504      418.678      126.349        0.091      342.679       18.255      858.569
10/07/2013  20:09:00     -341.337     -183.421        1.731      247.774      164.936       99.963    61391.887    27203.763     9992.659       12.435        4.929      387.497      121.979        0.099      342.700       18.292      858.534
10/07/2013  20:10:00     -559.507      -86.549      -32.690      241.415      161.921       98.216    58281.117    26218.559     9646.406       20.786        4.707      566.161      104.738        0.034      342.675       18.247      858.538
10/07/2013  20:11:00     -419.418      -94.167      -18.905      194.913      131.994       73.250    37990.952    17422.538     5365.625       12.295        3.039      429.859       86.978        0.041      342.679       18.254      858.577
10/07/2013  20:12:00     -406.801      -33.541      -26.379      115.236      117.564       59.610    13279.391    13821.364     3553.332        9.897        1.533      408.181       53.743        0.017      342.675       18.249      858.569
10/07/2013  20:13:00     -384.987     -142.923      -16.040      160.369      106.219       64.869    25718.112    11282.470     4207.935       10.505        2.060      410.660       72.317        0.031      342.658       18.218      858.542
10/07/2013  20:14:00     -317.548      -92.864      -16.082      113.936      110.756       61.859    12981.314    12266.947     3826.590        6.939        1.454      330.848       43.608        0.017      342.631       18.172      858.571
10/07/2013  20:15:00     -271.792      -94.960      -20.299      113.598      103.186       58.806    12904.575    10647.294     3458.138        5.515        1.351      287.903       38.399        0.018      342.586       18.098      858.553
10/07/2013  20:16:00     -441.106      -63.355      -17.599      198.087      187.588       96.113    39238.471    35189.300     9237.616       14.127        4.183      445.633       89.308        0.040      342.566       18.064      858.534
10/07/2013  20:17:00     -297.101     -122.029        4.093      185.366      148.783       73.752    34360.719    22136.448     5439.299        8.254        3.097      321.185       82.257        0.066      342.564       18.059      858.586
10/07/2013  20:18:00     -344.787      -63.448      -35.764      189.149      126.235       61.546    35777.283    15935.388     3787.850        8.983        2.775      350.576       69.954        0.040      342.597       18.113      858.604
10/07/2013  20:19:00     -427.624        1.505      -27.415      174.084      120.296       71.710    30305.338    14471.099     5142.299       11.676        2.496      427.626       81.922        0.037      342.581       18.089      858.612
10/07/2013  20:20:00     -234.269      -19.479      -18.113      138.387       76.356       50.696    19151.012     5830.221     2570.114        4.156        1.378      235.077       59.503        0.064      342.564       18.060      858.576
10/07/2013  20:21:00     -207.911      -30.185       -1.536      112.590      133.719       63.506    12676.492    17880.804     4033.041        3.936        1.730      210.091       54.314        0.067      342.549       18.033      858.532
10/07/2013  20:22:00     -448.725      -18.399      -19.772      240.313      166.629       91.707    57750.437    27765.127     8410.179       14.799        4.696      449.102      100.130        0.050      342.535       18.011      858.522
10/07/2013  20:23:00     -501.400      -95.030      -25.170      268.987      143.104       88.991    72353.814    20478.666     7919.465       18.089        5.038      510.326      128.045        0.063      342.560       18.053      858.553
10/07/2013  20:24:00     -213.233     -103.670       -6.295      171.963      128.377       67.245    29571.149    16480.584     4521.878        5.340        2.529      237.099       70.007        0.087      342.486       17.927      858.555
10/07/2013  20:25:00     -476.204      -93.860      -52.015      210.363      154.944       83.860    44252.683    24007.750     7032.421       15.677        3.765      485.366       92.504        0.036      342.566       18.062      858.536
10/07/2013  20:26:00     -224.132      -42.265       22.797      167.549      134.821       73.791    28072.593    18176.601     5445.113        5.211        2.585      228.082       68.948        0.091      342.485       17.924      858.583
10/07/2013  20:27:00     -156.027      -27.391       -8.090      107.069      100.657       63.726    11463.735    10131.839     4061.048        2.540        1.283      158.413       65.894        0.173      342.537       18.014      858.583
10/07/2013  20:28:00     -331.804      -48.340      -11.982      247.683      126.136       71.670    61346.754    15910.265     5136.659        9.747        4.120      335.306       73.044        0.047      342.532       18.007      858.544
10/07/2013  20:29:00     -368.905      -66.726       -2.487      165.139      131.553       70.785    27270.811    17306.148     5010.528        9.506        2.479      374.891       74.451        0.039      342.524       17.991      858.573
10/07/2013  20:30:00     -441.020        3.087      -35.555      135.412      148.050       81.516    18336.511    21918.694     6644.903       12.133        2.345      441.031       76.981        0.030      342.564       18.057      858.570
10/07/2013  20:31:00     -296.821     -118.218        4.285      206.798      145.419       74.919    42765.245    21146.606     5612.786        8.580        3.476      319.497       88.422        0.077      342.483       17.922      858.565
10/07/2013  20:32:00     -146.769      -97.832       23.814      174.964      137.194       71.848    30612.289    18822.100     5162.155        4.313        2.730      176.387       72.406        0.169      342.471       17.902      858.563
10/07/2013  20:33:00     -135.799       13.180       -3.219       94.270       93.369       49.560     8886.872     8717.840     2456.184        1.934        1.003      136.437       50.065        0.135      342.474       17.907      858.547
10/07/2013  20:34:00     -190.759      -75.658       -6.108      142.741      114.510       61.353    20374.868    13112.544     3764.251        3.969        1.863      205.215       65.549        0.102      342.473       17.904      858.523
10/07/2013  20:35:00     -433.393        0.411      -43.636      199.614      163.712       84.116    39845.811    26801.587     7075.460       13.171        3.686      433.393       89.068        0.042      342.496       17.943      858.495
10/07/2013  20:36:00     -406.389     -153.537        8.197      240.111      183.205      105.223    57653.223    33564.246    11071.950       14.552        5.114      434.426      106.879        0.061      342.513       17.973      858.511
10/07/2013  20:37:00     -257.396      -28.482        6.829      181.568      112.328       85.067    32966.866    12617.480     7236.412        5.995        2.641      258.967       84.054        0.105      342.580       18.087      858.547
10/07/2013  20:38:00     -303.493     -111.396        2.968      185.490      152.160       98.146    34406.584    23152.538     9632.594        8.585        3.360      323.291      112.401        0.121      342.533       18.007      858.555
10/07/2013  20:39:00     -457.187     -225.832      -30.738      188.933      169.479       90.337    35695.704    28723.212     8160.839       16.676        3.629      509.921       91.119        0.032      342.565       18.062      858.569
10/07/2013  20:40:00     -472.377      -30.619      -26.730      269.513      128.063       98.019    72637.355    16400.155     9607.799       16.170        4.932      473.368      114.857        0.059      342.520       17.985      858.544
10/07/2013  20:41:00     -389.926      -28.968      -26.038      201.045      106.147       79.817    40418.899    11267.216     6370.735       10.580        2.903      391.000       76.018        0.038      342.538       18.015      858.568
10/07/2013  20:42:00     -366.165      -68.905      -23.328      168.811      139.871       70.315    28497.165    19563.994     4944.201        9.618        2.650      372.592       71.692        0.037      342.506       17.962      858.574
10/07/2013  20:43:00     -281.702      -82.347      -12.597      164.520      144.159       73.622    27066.993    20781.934     5420.162        6.977        2.663      293.491       69.280        0.056      342.517       17.978      858.572
10/07/2013  20:44:00     -297.029      -91.364       13.765      260.745      177.960       98.355    67987.796    31669.616     9673.779       10.303        5.467      310.763      115.833        0.139      342.473       17.905      858.550
10/07/2013  20:45:00     -272.153      -90.322       -1.204      186.183      189.193       92.178    34664.022    35793.957     8496.874        8.057        3.948      286.749       86.716        0.091      342.536       18.011      858.548
10/07/2013  20:46:00     -399.320     -169.230        5.156      230.716      161.872       85.289    53229.909    26202.642     7274.262       13.740        4.335      433.699      108.264        0.062      342.504       17.958      858.537
10/07/2013  20:47:00     -526.486     -114.583      -44.812      162.798      143.599       81.534    26503.086    20620.570     6647.725       17.304        2.689      538.811       87.936        0.027      342.528       17.997      858.549
10/07/2013  20:48:00     -396.704       -1.982      -27.722      190.713      178.237       82.036    36371.346    31768.588     6729.928       11.649        3.743      396.709       80.062        0.041      342.500       17.951      858.530
10/07/2013  20:49:00     -357.966      -39.722      -25.665      227.405      150.473       90.343    51713.211    22642.185     8161.857       10.643        4.126      360.163       84.227        0.055      342.469       17.899      858.519
10/07/2013  20:50:00     -325.504      -75.369       -0.411      163.860      166.097       70.493    26850.227    27588.293     4969.319        8.551        2.970      334.116       61.421        0.034      342.443       17.852      858.525
10/07/2013  20:51:00     -436.800     -110.368      -10.238      156.587      164.380       85.396    24519.613    27020.754     7292.451       13.094        2.942      450.527       76.299        0.029      342.462       17.888      858.520
10/07/2013  20:52:00     -394.796     -103.200      -21.286      222.551      155.316       87.130    49529.042    24122.917     7591.656       12.409        4.062      408.061       96.673        0.056      342.462       17.887      858.546
10/07/2013  20:53:00     -368.933      -49.154       -7.151      157.135      135.941       68.388    24691.386    18479.919     4676.915        9.320        2.392      372.193       74.021        0.040      342.446       17.857      858.548
10/07/2013  20:54:00     -315.069      -10.460      -19.557      171.305      140.405       75.788    29345.467    19713.694     5743.890        7.727        2.740      315.243       64.161        0.041      342.411       17.797      858.550
10/07/2013  20:55:00     -331.963        5.964      -33.128      141.446      117.670       65.900    20006.977    13846.274     4342.804        7.476        1.910      332.016       76.273        0.053      342.433       17.836      858.553
10/07/2013  20:56:00     -337.673      -36.220      -13.892      124.578       94.205       54.963    15519.584     8874.495     3020.922        7.147        1.371      339.610       56.405        0.028      342.433       17.834      858.543
10/07/2013  20:57:00     -433.300       31.958      -17.124      176.121      146.489       66.061    31018.562    21458.901     4364.009       12.294        2.842      434.477       60.560        0.019      342.433       17.836      858.548
10/07/2013  20:58:00     -330.857      -60.742      -12.296      155.746      134.749       68.234    24256.856    18157.278     4655.919        8.018        2.354      336.387       75.775        0.051      342.409       17.796      858.543
10/07/2013  20:59:00     -326.186     -167.481        2.098      214.447      156.621       84.035    45987.469    24530.112     7061.897       10.600        3.879      366.671      103.295        0.079      342.419       17.813      858.548
10/07/2013  21:00:00     -210.604       25.483       -3.878      111.055      101.548       56.287    12333.120    10311.932     3168.248        3.541        1.291      212.141       60.203        0.081      342.367       17.723      858.572
10/07/2013  21:01:00     -229.244       26.634      -10.598      110.365       82.600       56.073    12180.495     6822.796     3144.213        3.776        1.107      230.786       50.210        0.047      342.384       17.753      858.609
10/07/2013  21:02:00     -261.620       18.580       -0.213      130.672       89.883       64.435    17075.147     8078.877     4151.931        4.904        1.465      262.279       64.404        0.060      342.336       17.670      858.602
10/07/2013  21:03:00     -388.295      -50.349       -9.563      166.759      144.469       88.304    27808.431    20871.396     7797.537       10.493        2.824      391.546       95.263        0.059      342.396       17.774      858.617
10/07/2013  21:04:00     -292.975      -49.371      -10.891      158.919      113.543       64.279    25255.101    12892.115     4131.757        6.533        2.114      297.106       49.311        0.028      342.393       17.768      858.630
10/07/2013  21:05:00     -413.678        0.504      -22.776      158.971      139.956       72.003    25271.856    19587.585     5184.384       11.084        2.502      413.678       66.354        0.026      342.397       17.776      858.636
10/07/2013  21:06:00     -387.470      -98.546      -20.642      115.954      152.933       61.223    13445.424    23388.370     3748.212       10.042        2.029      399.806       49.802        0.016      342.404       17.787      858.643
10/07/2013  21:07:00     -395.697      -98.823      -33.795      142.122       92.701       59.265    20198.697     8593.512     3512.347        9.989        1.615      407.851       55.907        0.019      342.382       17.749      858.635
10/07/2013  21:08:00     -306.288     -103.562       -3.199      197.398      115.913       66.633    38965.820    13435.719     4439.925        8.068        2.842      323.322       89.666        0.077      342.345       17.686      858.635
10/07/2013  21:09:00     -357.863      -46.360      -11.261      252.688      126.137       85.132    63851.239    15910.550     7247.411       10.866        4.350      360.853      103.653        0.083      342.360       17.712      858.634
10/07/2013  21:10:00     -382.173     -127.958       -0.172      195.236      138.686       83.903    38116.945    19233.759     7039.694       11.340        3.220      403.025       97.613        0.059      342.418       17.810      858.651
10/07/2013  21:11:00     -445.732     -163.714      -26.854      251.458      157.598       81.495    63230.994    24837.174     6641.489       16.044        4.735      474.847      109.936        0.054      342.429       17.828      858.641
10/07/2013  21:12:00     -138.273      -65.414       -6.845      203.115      134.086       79.600    41255.625    17979.021     6336.095        4.449        3.279      152.966      101.947        0.444      342.387       17.760      858.663
10/07/2013  21:13:00     -418.476     -152.806      -14.532      159.098      125.770       74.564    25312.218    15818.076     5559.822       12.268        2.335      445.502       81.872        0.034      342.363       17.717      858.658
10/07/2013  21:14:00     -424.565      -43.671      -23.375      200.522      118.973       89.751    40208.971    14154.516     8055.189       12.255        3.121      426.805      103.315        0.059      342.360       17.712      858.680
10/07/2013  21:15:00     -476.161     -101.730      -18.187      226.988      136.468       86.417    51523.764    18623.591     7467.941       15.750        3.881      486.907       99.386        0.042      342.372       17.733      858.642
10/07/2013  21:16:00     -462.878     -116.046      -24.173      179.415      165.617       91.413    32189.600    27428.941     8356.363       14.813        3.399      477.203       92.602        0.038      342.398       17.777      858.688
10/07/2013  21:17:00     -178.416     -109.376       20.145      157.403      115.723       90.631    24775.703    13391.712     8213.889        4.528        2.319      209.274      104.775        0.251      342.378       17.743      858.705
10/07/2013  21:18:00     -309.394     -196.479      -16.769      202.464      156.928      100.690    40991.733    24626.518    10138.544       10.517        3.788      366.509      112.519        0.094      342.368       17.725      858.728
10/07/2013  21:19:00     -190.834      -37.403       12.252      174.956       97.086       67.248    30609.702     9425.654     4522.307        4.125        2.228      194.464       89.285        0.211      342.365       17.720      858.756
10/07/2013  21:20:00     -205.396      -26.919       -8.696       97.636       81.506       41.710     9532.863     6643.219     1739.752        3.045        0.896      207.153       38.541        0.035      342.360       17.712      858.727
10/07/2013  21:21:00     -377.642     -112.043        6.846      206.637      138.743       69.738    42698.939    19249.631     4863.332       11.100        3.341      393.912       81.498        0.043      342.346       17.687      858.709
10/07/2013  21:22:00     -490.651     -161.226      -41.806      212.682      177.012       82.083    45233.824    31333.329     6737.637       17.588        4.165      516.462       91.907        0.032      342.323       17.650      858.690
10/07/2013  21:23:00     -500.535     -167.965      -30.342      162.547      179.345       81.722    26421.611    32164.785     6678.440       17.245        3.263      527.965       84.331        0.026      342.341       17.679      858.742
10/07/2013  21:24:00     -431.033       -4.020      -20.803      238.107      161.929       80.654    56694.847    26220.875     6505.113       13.781        4.471      431.052      109.119        0.064      342.352       17.699      858.757
10/07/2013  21:25:00     -471.248        7.378      -31.571      226.511      163.405       84.608    51307.179    26701.106     7158.510       15.413        4.258      471.306       88.219        0.035      342.343       17.682      858.733
10/07/2013  21:26:00     -426.482      -71.794      -28.798      232.566      156.223       74.250    54087.137    24405.512     5513.021       13.592        4.200      432.483       84.642        0.038      342.344       17.685      858.719
10/07/2013  21:27:00     -245.015      -62.563      -13.351      196.677      129.541       75.459    38681.905    16780.903     5694.080        6.263        3.058      252.876       76.744        0.092      342.310       17.627      858.744
10/07/2013  21:28:00     -285.280      -27.231      -23.157      131.967      129.922       63.463    17415.369    16879.779     4027.506        6.048        1.916      286.577       61.523        0.046      342.310       17.628      858.725
10/07/2013  21:29:00     -342.943      -87.004      -17.263      179.804      137.931       72.734    32329.637    19024.869     5290.287        9.105        2.832      353.807       68.387        0.037      342.299       17.607      858.731
10/07/2013  21:30:00     -150.433      -59.964       35.610      215.638      114.532       80.086    46499.745    13117.516     6413.842        4.675        3.302      161.944      110.333        0.464      342.280       17.578      858.748
10/07/2013  21:31:00     -384.096     -102.508       -2.404      196.401      133.154       73.867    38573.183    17730.044     5456.365       10.989        3.088      397.539       83.576        0.044      342.341       17.681      858.794
10/07/2013  21:32:00     -284.389      -78.440       -5.448      124.491      102.422       54.293    15498.106    10490.346     2947.696        5.799        1.447      295.008       46.862        0.025      342.337       17.672      858.804
10/07/2013  21:33:00     -384.749      -15.262      -38.061      137.209      119.557       61.801    18826.363    14293.849     3819.370        9.332        1.847      385.051       65.057        0.029      342.372       17.732      858.770
10/07/2013  21:34:00     -316.009      -86.187        0.385      173.603      148.920       82.403    30137.965    22177.257     6790.300        8.319        2.955      327.552       88.069        0.072      342.323       17.649      858.768
10/07/2013  21:35:00     -384.757      -45.987      -32.702      188.865      107.302       70.127    35669.932    11513.819     4917.748       10.165        2.605      387.496       87.972        0.052      342.343       17.683      858.805
10/07/2013  21:36:00     -252.417     -105.170        2.152      124.734      130.833       74.923    15558.554    17117.381     5613.477        5.653        1.914      273.450       67.681        0.061      342.378       17.741      858.791
10/07/2013  21:37:00     -270.810      -42.578      -12.570      109.576      113.711       55.240    12006.838    12930.195     3051.410        5.164        1.399      274.137       47.106        0.030      342.327       17.656      858.814
10/07/2013  21:38:00     -239.441     -109.231       -0.988      145.318      107.606       65.574    21117.239    11579.080     4299.985        5.312        1.850      263.180       77.516        0.087      342.313       17.633      858.798
10/07/2013  21:39:00     -264.139      -47.534      -12.446      165.845      141.219       64.442    27504.512    19942.723     4152.712        6.188        2.580      268.382       65.586        0.060      342.335       17.670      858.823
10/07/2013  21:40:00     -302.603      -62.480       -7.270      179.992      124.001       65.750    32396.987    15376.209     4322.998        7.380        2.605      308.986       56.944        0.034      342.356       17.705      858.800
10/07/2013  21:41:00     -274.143      -88.467       -0.731      140.202       99.528       69.651    19656.639     9905.899     4851.293        5.869        1.721      288.064       76.929        0.071      342.296       17.604      858.804
10/07/2013  21:42:00     -269.584      -83.289       -0.194      184.054      128.961       70.382    33876.010    16630.861     4953.657        6.753        2.773      282.157       89.446        0.100      342.260       17.543      858.806
10/07/2013  21:43:00     -297.985      -42.973       -3.066      179.716      105.405       76.664    32297.682    11110.233     5877.307        6.996        2.464      301.067       86.717        0.083      342.286       17.588      858.840
10/07/2013  21:44:00     -253.736      -47.670      -18.139      168.180       80.143       49.955    28284.635     6422.828     2495.524        5.209        1.860      258.175       59.673        0.053      342.336       17.672      858.827
10/07/2013  21:45:00     -382.200      -38.652      -16.530      128.936      130.742       62.865    16624.506    17093.471     3952.030        9.275        1.884      384.149       64.714        0.028      342.282       17.579      858.844
10/07/2013  21:46:00     -320.541      -60.912      -16.452      131.508      139.096       58.049    17294.455    19347.604     3369.656        7.336        2.001      326.278       50.397        0.024      342.270       17.560      858.850
10/07/2013  21:47:00     -256.876      -91.355       -3.925      132.478       93.102       55.402    17550.424     8667.989     3069.377        5.181        1.464      272.637       54.603        0.040      342.283       17.580      858.873
10/07/2013  21:48:00     -187.817       -5.601        0.186       79.336       70.032       63.373     6294.267     4904.417     4016.111        2.526        0.761      187.901       39.651        0.045      342.318       17.640      858.830
10/07/2013  21:49:00     -182.838      -51.591       -3.347      133.557      100.140       57.086    17837.368    10027.968     3258.846        3.361        1.556      189.977       63.724        0.113      342.221       17.477      858.839
10/07/2013  21:50:00     -361.447     -151.715        2.733      178.510      149.495       77.845    31865.863    22348.882     6059.862       10.696        3.014      391.996       84.765        0.047      342.237       17.502      858.871
10/07/2013  21:51:00     -345.130      -10.751      -37.808      126.019       90.938       59.510    15880.879     8269.643     3541.388        7.417        1.385      345.297       67.643        0.038      342.306       17.620      858.913
10/07/2013  21:52:00     -191.596      -94.625        2.367      108.922       81.546       42.771    11863.958     6649.714     1829.378        3.300        1.017      213.689       48.230        0.051      342.281       17.578      858.885
10/07/2013  21:53:00     -207.687     -114.531      -14.575      141.606       94.450       58.367    20052.335     8920.747     3406.759        4.442        1.619      237.173       74.435        0.098      342.266       17.553      858.906
10/07/2013  21:54:00     -236.678      -95.288        5.453      182.058      133.185       61.055    33145.082    17738.268     3727.652        5.986        2.731      255.140       78.584        0.095      342.136       17.333      858.910
10/07/2013  21:55:00     -420.268      -57.465      -27.989      153.908      113.128       65.060    23687.590    12797.948     4232.796       11.071        2.036      424.179       68.374        0.026      342.177       17.401      858.945
10/07/2013  21:56:00     -275.952      -51.096      -15.310       99.810      131.057       55.148     9962.087    17175.829     3041.304        5.458        1.509      280.643       53.114        0.036      342.219       17.473      858.906
10/07/2013  21:57:00     -363.708     -185.028      -32.160      152.817      114.110       75.878    23353.097    13020.994     5757.544       10.483        2.107      408.068       83.168        0.042      342.188       17.418      858.866
10/07/2013  21:58:00     -302.792      -58.668        2.753      154.007      139.697       72.939    23718.081    19515.157     5320.163        7.183        2.428      308.424       74.729        0.059      342.117       17.299      858.899
10/07/2013  21:59:00     -487.325       20.718      -24.593      190.911      137.643       82.685    36447.148    18945.539     6836.787       15.036        3.111      487.765       92.890        0.036      342.167       17.384      858.855
10/07/2013  22:00:00     -377.037      -37.432      -17.055      184.720      102.836       70.525    34121.659    10575.302     4973.810        9.675        2.484      378.890       83.353        0.048      342.094       17.260      858.877
10/07/2013  22:01:00     -335.968     -107.593       -5.628      185.571      141.401       74.683    34436.522    19994.295     5577.567        9.223        3.000      352.776       93.489        0.070      342.081       17.238      858.875
10/07/2013  22:02:00     -340.098       51.395      -30.038      110.712      119.763       56.507    12257.067    14343.100     3192.988        7.450        1.490      343.960       48.361        0.020      342.087       17.248      858.893
10/07/2013  22:03:00     -239.822      -67.850       -8.970      105.002       92.975       50.161    11025.420     8644.369     2516.172        4.219        1.109      249.236       55.143        0.049      342.043       17.172      858.882
10/07/2013  22:04:00     -401.849      -72.885      -29.353       99.556      111.945       58.822     9911.387    12531.766     3460.020        9.677        1.295      408.405       39.987        0.010      342.085       17.245      858.871
10/07/2013  22:05:00     -339.403     -106.318      -14.002      129.777      103.996       60.367    16842.172    10815.080     3644.173        7.899        1.565      355.666       57.769        0.026      342.033       17.156      858.877
10/07/2013  22:06:00     -289.376      -69.852        3.536       90.650       97.575       53.051     8217.373     9520.891     2814.395        5.459        1.028      297.687       42.895        0.021      341.993       17.088      858.899
10/07/2013  22:07:00     -292.424      -36.974      -18.753      136.866      102.222       56.913    18732.287    10449.387     3239.114        5.982        1.621      294.753       61.161        0.043      342.005       17.108      858.884
10/07/2013  22:08:00     -444.731      -93.513      -32.504      160.296      130.568       75.570    25694.783    17048.077     5710.799       12.801        2.423      454.457       69.887        0.024      342.012       17.120      858.883
10/07/2013  22:09:00     -397.318      -54.978      -36.308       97.628      130.718       55.011     9531.229    17087.281     3026.257        9.592        1.482      401.104       40.865        0.010      342.057       17.197      858.874
10/07/2013  22:10:00     -322.134      -28.042      -13.671      195.798      154.416       73.554    38337.001    23844.219     5410.254        8.615        3.380      323.352       83.400        0.067      342.005       17.108      858.846
10/07/2013  22:11:00     -293.653      -36.821      -22.050      126.715      106.927       50.378    16056.788    11433.463     2537.970        5.905        1.501      295.952       38.752        0.017      342.015       17.123      858.844
10/07/2013  22:12:00     -301.876      -70.762      -15.620      111.340      102.193       42.564    12396.703    10443.385     1811.699        6.051        1.233      310.059       44.670        0.021      341.978       17.061      858.851
10/07/2013  22:13:00     -437.785      -56.232      -33.154      122.905      109.679       60.522    15105.561    12029.398     3662.866       11.335        1.540      441.382       62.415        0.020      341.953       17.020      858.874
10/07/2013  22:14:00     -429.407       44.915      -38.293      141.555       79.798       69.775    20037.702     6367.774     4868.611       10.957        1.564      431.750       78.780        0.033      341.962       17.034      858.879
10/07/2013  22:15:00     -297.769       -0.938      -27.258       75.713       97.876       56.382     5732.415     9579.713     3178.909        5.395        0.925      297.770       46.363        0.024      341.928       16.978      858.875
10/07/2013  22:16:00     -264.853      -21.828      -34.757       99.460       95.191       57.300     9892.308     9061.393     3283.311        4.703        1.112      265.751       32.536        0.015      341.893       16.919      858.873
10/07/2013  22:17:00     -345.778      -83.810      -15.545      169.933       93.735       69.193    28877.252     8786.235     4787.626        8.463        2.123      355.790       84.477        0.056      341.844       16.835      858.886
10/07/2013  22:18:00     -386.051     -147.225      -33.599       87.787       91.116       51.675     7706.541     8302.041     2670.296        9.526        0.934      413.171       35.807        0.008      341.838       16.825      858.892
10/07/2013  22:19:00     -356.013      -83.844      -22.316      125.401      104.947       67.660    15725.332    11013.901     4577.859        8.279        1.566      365.753       68.183        0.035      341.865       16.870      858.913
10/07/2013  22:20:00     -356.569      -59.189      -23.819      133.235      107.903       66.068    17751.575    11642.969     4364.923        8.248        1.688      361.448       71.376        0.039      341.839       16.828      858.942
10/07/2013  22:21:00     -359.495      -94.759      -23.473      126.248       97.799       60.050    15938.498     9564.558     3605.980        8.393        1.455      371.774       38.494        0.011      341.840       16.828      858.954
10/07/2013  22:22:00     -313.630      -46.691      -19.832      116.261      123.033       53.730    13516.647    15137.039     2886.963        6.623        1.577      317.086       41.736        0.017      341.815       16.786      858.973
10/07/2013  22:23:00     -181.970       59.913      -39.724       86.151      132.003       58.996     7421.978    17424.917     3480.506        3.330        1.416      191.580       33.197        0.030      341.789       16.743      859.001
10/07/2013  22:24:00     -196.595       81.534      -28.152      120.253      129.795       63.414    14460.821    16846.768     4021.383        4.070        1.766      212.832       67.233        0.100      341.733       16.649      859.010
10/07/2013  22:25:00     -149.564       64.215      -19.916      108.218      110.524       60.450    11711.073    12215.454     3654.202        2.723        1.379      162.767       64.954        0.159      341.674       16.551      859.010
10/07/2013  22:26:00     -197.734        5.860      -35.441      120.065      112.717       75.279    14415.567    12705.170     5666.907        3.658        1.639      197.821       55.502        0.079      341.643       16.498      858.985
10/07/2013  22:27:00     -375.537       53.788      -49.741      196.645      132.217       76.817    38669.167    17481.245     5900.799       10.421        3.103      379.370       88.965        0.055      341.663       16.529      858.973
10/07/2013  22:28:00     -428.510      -49.332      -37.307      169.403      114.177       77.525    28697.545    13036.413     6010.104       11.759        2.387      431.341       70.742        0.027      341.685       16.566      858.962
10/07/2013  22:29:00     -405.877     -115.097      -27.524      157.714      123.145       73.968    24873.595    15164.571     5471.270       11.212        2.275      421.881       83.337        0.039      341.660       16.526      858.958
10/07/2013  22:30:00     -287.052       10.097      -11.300      110.640      107.375       52.757    12241.120    11529.365     2783.250        5.459        1.328      287.229       48.956        0.029      341.632       16.477      858.947
10/07/2013  22:31:00     -258.734      -74.915       -4.026      134.832       94.889       54.772    18179.697     9003.943     2999.954        5.137        1.509      269.361       61.230        0.052      341.607       16.434      858.973
10/07/2013  22:32:00     -302.713      190.218      -72.903      125.160      151.818       65.443    15664.901    23048.834     4282.738        8.806        2.150      357.516       64.561        0.033      341.788       16.739      858.959
10/07/2013  22:33:00     -230.543       55.977      -20.721      104.209      125.986       59.815    10859.414    15872.438     3577.822        4.351        1.515      237.242       59.158        0.062      341.779       16.725      858.960
10/07/2013  22:34:00     -229.328      -57.402      -15.291      113.266      107.974       50.304    12829.148    11658.484     2530.455        4.156        1.351      236.403       41.107        0.030      341.737       16.656      858.947
10/07/2013  22:35:00     -310.000      -92.751      -17.904      143.397      128.792       71.489    20562.599    16587.321     5110.638        7.363        2.113      323.578       59.456        0.034      341.648       16.504      858.954
10/07/2013  22:36:00     -403.255      -41.850      -27.289      170.387      146.281       70.889    29031.606    21398.101     5025.215       11.027        2.773      405.420       81.296        0.040      341.545       16.328      858.975
10/07/2013  22:37:00     -350.120      -82.757      -17.430      127.193      120.894       63.329    16178.089    14615.374     4010.623        8.226        1.740      359.767       56.087        0.024      341.508       16.264      858.992
10/07/2013  22:38:00     -225.070      -44.094        2.097      148.647      118.454       69.634    22096.001    14031.370     4848.942        4.678        2.049      229.349       73.698        0.103      341.454       16.175      858.998
10/07/2013  22:39:00     -216.230      -53.125      -19.292      112.361      105.268       55.367    12624.886    11081.332     3065.495        3.836        1.339      222.660       49.219        0.049      341.460       16.185      858.983
10/07/2013  22:40:00     -265.367       86.037      -46.253      107.455      113.602       60.438    11546.676    12905.518     3652.784        5.403        1.405      278.966       32.752        0.014      341.619       16.453      858.980
10/07/2013  22:41:00     -160.397       24.922      -13.538      108.721      105.730       80.362    11820.266    11178.877     6458.083        2.799        1.473      162.322       75.864        0.218      341.635       16.481      858.972
10/07/2013  22:42:00     -317.327      133.000      -50.254      134.356      183.061       76.010    18051.597    33511.349     5777.512        8.911        2.867      344.072       80.306        0.054      341.623       16.460      858.966
10/07/2013  22:43:00     -321.875      149.765      -66.170      144.307      139.169       73.327    20824.371    19368.041     5376.778        8.798        2.278      355.011       71.155        0.040      341.676       16.551      858.955
10/07/2013  22:44:00     -220.528        7.340      -29.506       98.704      155.916       56.242     9742.542    24309.911     3163.156        4.338        1.861      220.650       53.581        0.059      341.592       16.408      858.914
10/07/2013  22:45:00     -176.719       26.170      -26.049       97.147       81.508       52.111     9437.517     6643.611     2715.529        2.569        0.940      178.646       26.918        0.023      341.622       16.461      858.906
10/07/2013  22:46:00     -178.770      -18.463      -14.144      129.804       99.715       63.043    16849.051     9943.003     3974.460        3.163        1.538      179.721       63.004        0.123      341.623       16.462      858.888
10/07/2013  22:47:00     -272.533      -18.048       -0.029      157.287      118.839       63.352    24739.356    14122.677     4013.457        5.873        2.144      273.130       58.279        0.046      341.600       16.421      858.873
10/07/2013  22:48:00     -430.144     -145.877      -38.618      134.884      115.864       64.811    18193.614    13424.481     4200.490       12.180        1.791      454.207       50.999        0.013      341.430       16.134      858.865
10/07/2013  22:49:00     -207.687      -55.711      -31.811      123.100      104.758       63.058    15153.662    10974.169     3976.354        3.867        1.505      215.030       41.132        0.037      341.365       16.025      858.871
10/07/2013  22:50:00     -289.273     -128.027      -24.171      145.267       97.896       70.119    21102.380     9583.647     4916.736        6.812        1.780      316.338       55.312        0.031      341.326       15.957      858.889
10/07/2013  22:51:00     -309.468      -82.808      -13.125      112.356      118.899       59.037    12623.810    14137.007     3485.374        6.652        1.512      320.356       55.860        0.030      341.300       15.914      858.894
10/07/2013  22:52:00     -243.368       27.753      -28.825      144.854      152.249       69.638    20982.803    23179.761     4849.484        5.491        2.451      244.945       82.619        0.114      341.255       15.836      858.876
10/07/2013  22:53:00     -189.462      -32.204      -23.251      103.350       85.980       52.398    10681.294     7392.538     2745.554        2.914        1.041      192.180       48.393        0.063      341.286       15.891      858.858
10/07/2013  22:54:00     -296.113      -61.227       -7.593       94.693       83.268       50.232     8966.840     6933.505     2523.247        5.495        0.921      302.377       44.380        0.022      341.179       15.709      858.889
10/07/2013  22:55:00     -337.206      -55.388      -12.206      129.129      105.343       61.490    16674.241    11097.065     3780.963        7.423        1.578      341.725       61.420        0.032      341.170       15.693      858.856
10/07/2013  22:56:00     -174.394       21.326      -14.933      100.402       97.371       57.112    10080.546     9481.073     3261.777        2.695        1.141      175.693       42.146        0.058      341.293       15.903      858.844
10/07/2013  22:57:00      -99.191      -33.867       -4.394       90.596       73.281       51.484     8207.668     5370.076     2650.585        1.361        0.811      104.813       50.637        0.233      341.254       15.839      858.833
10/07/2013  22:58:00     -183.542      -47.178       -4.722      125.002       70.653       45.404    15625.597     4991.786     2061.553        2.930        1.134      189.509       51.539        0.074      341.205       15.755      858.848
10/07/2013  22:59:00     -231.238      -45.192      -23.477      142.337      134.901       68.107    20259.886    18198.282     4638.543        4.957        2.155      235.613       69.752        0.088      341.315       15.940      858.840
10/07/2013  23:00:00     -231.288      -72.942       -5.665      145.255      125.454       69.228    21098.951    15738.731     4792.448        5.023        2.082      242.517       75.755        0.098      341.323       15.951      858.822
10/07/2013  23:01:00     -242.986      -46.807      -14.638      112.689      106.591       60.329    12698.824    11361.675     3639.532        4.457        1.385      247.453       40.838        0.027      341.324       15.955      858.847
10/07/2013  23:02:00     -208.890      -78.956      -28.234       99.969       97.013       55.618     9993.822     9411.445     3093.326        3.658        1.125      223.314       40.170        0.032      341.328       15.960      858.841
10/07/2013  23:03:00     -291.073      -91.452       -9.756       96.989       92.273       59.494     9406.944     8514.224     3539.584        5.732        1.073      305.101       55.592        0.033      341.308       15.927      858.857
10/07/2013  23:04:00     -346.450     -111.716      -21.410       84.308       92.122       57.736     7107.902     8486.419     3333.388        7.594        0.946      364.016       46.425        0.016      341.345       15.989      858.872
10/07/2013  23:05:00     -309.019      -81.128      -15.822       88.795       81.525       56.280     7884.560     6646.290     3167.437        6.001        0.885      319.491       43.274        0.018      341.349       15.997      858.867
10/07/2013  23:06:00     -283.422     -134.740      -10.870      124.793      105.139       69.923    15573.387    11054.188     4889.184        6.505        1.576      313.819       66.258        0.045      341.323       15.953      858.867
10/07/2013  23:07:00     -335.133      -78.622      -35.171       98.993      112.861       69.924     9799.544    12737.675     4889.337        7.357        1.371      344.232       37.316        0.012      341.347       15.993      858.854
10/07/2013  23:08:00     -372.462     -111.478      -25.346      130.708       86.674       53.223    17084.703     7512.407     2832.662        8.961        1.371      388.787       54.182        0.019      341.405       16.091      858.868
10/07/2013  23:09:00     -409.967      -27.839      -40.912      115.005       85.239       66.614    13226.039     7265.613     4437.472        9.772        1.246      410.911       58.316        0.020      341.447       16.161      858.848
10/07/2013  23:10:00     -218.772      -25.575      -16.562      121.063       89.421       59.052    14656.310     7996.168     3487.165        3.746        1.307      220.262       60.521        0.075      341.367       16.027      858.827
10/07/2013  23:11:00     -313.302      -58.917      -19.414       97.017      103.408       54.819     9412.213    10693.221     3005.156        6.255        1.156      318.794       38.627        0.015      341.394       16.073      858.815
10/07/2013  23:12:00     -334.875      -99.400       -4.377      160.530      105.613       71.369    25769.770    11154.029     5093.550        8.202        2.101      349.316       75.499        0.047      341.459       16.182      858.812
10/07/2013  23:13:00     -261.026      -99.402      -10.879      109.132       91.190       63.194    11909.742     8315.643     3993.507        5.117        1.211      279.312       59.810        0.046      341.414       16.106      858.822
10/07/2013  23:14:00     -234.330      -79.615      -17.079      131.387       91.803       63.317    17262.587     8427.722     4009.062        4.561        1.485      247.486       62.832        0.064      341.389       16.063      858.802
10/07/2013  23:15:00     -252.778      -51.166      -15.458      152.107       75.481       49.721    23136.508     5697.411     2472.210        4.902        1.565      257.905       26.038        0.010      341.371       16.035      858.824
10/07/2013  23:16:00     -377.573      -65.036      -30.977      158.933       94.517       69.205    25259.710     8933.419     4789.303        9.336        1.949      383.133       69.512        0.033      341.394       16.072      858.838
10/07/2013  23:17:00     -267.941        3.996      -24.790      101.881      107.511       54.288    10379.775    11558.567     2947.138        4.865        1.244      267.971       38.755        0.021      341.322       15.951      858.869
10/07/2013  23:18:00      -93.522       11.777        9.113       90.316       82.065       53.243     8157.039     6734.634     2834.782        1.334        0.886       94.261       46.798        0.246      341.264       15.855      858.904
10/07/2013  23:19:00     -189.897       28.930      -23.732      133.825      117.975       69.435    17909.078    13918.012     4821.226        3.705        1.832      192.088       71.547        0.139      341.152       15.662      858.907
10/07/2013  23:20:00     -333.647      142.670      -43.993      150.979      110.772       77.565    22794.680    12270.360     6016.282        8.734        2.054      362.871       61.727        0.029      341.060       15.506      858.918
10/07/2013  23:21:00     -236.013      169.561      -40.261      116.776       98.846       64.336    13636.653     9770.584     4139.072        5.680        1.377      290.608       54.728        0.035      340.988       15.385      858.907
10/07/2013  23:22:00     -210.893       67.270      -24.828      146.879      140.006       81.317    21573.383    19601.781     6612.410        4.869        2.389      221.362       78.674        0.126      340.968       15.353      858.913
10/07/2013  23:23:00     -223.589      129.967      -29.338      182.455      111.070       82.281    33289.961    12336.470     6770.148        6.006        2.620      258.618       81.671        0.100      340.977       15.368      858.926
10/07/2013  23:24:00      -97.126       46.188       -4.476       84.464       89.005       54.470     7134.191     7921.896     2966.948        1.480        0.901      107.549       39.404        0.134      340.966       15.350      858.897
10/07/2013  23:25:00     -141.004       50.908      -27.493       95.264       89.071       44.236     9075.313     7933.680     1956.841        2.109        0.948      149.912       17.146        0.013      340.984       15.381      858.882
10/07/2013  23:26:00     -110.359       42.697       -9.524       57.255       70.826       38.366     3278.084     5016.368     1471.940        1.193        0.488      118.331       25.982        0.048      340.955       15.333      858.878
10/07/2013  23:27:00     -160.087       39.744      -16.463       82.698       82.258       54.762     6838.916     6766.450     2998.853        2.204        0.830      164.947       50.641        0.094      341.041       15.477      858.854
10/07/2013  23:28:00     -250.766       -3.328      -22.984      140.266       86.128       52.026    19674.535     7418.038     2706.734        4.661        1.490      250.788       57.499        0.053      340.946       15.314      858.892
10/07/2013  23:29:00     -209.124      -10.717      -12.089      133.377      131.678       73.464    17789.529    17339.182     5396.946        4.225        2.026      209.399       78.931        0.142      341.128       15.622      858.869
10/07/2013  23:30:00     -143.897       51.462       -9.787       92.517      113.371       55.917     8559.427    12852.890     3126.749        2.399        1.227      152.823       57.616        0.142      341.099       15.573      858.885
10/07/2013  23:31:00     -232.164       28.269       -7.362      142.023      107.461       72.923    20170.457    11547.859     5317.767        4.589        1.852      233.879       66.936        0.082      341.022       15.445      858.855
10/07/2013  23:32:00     -237.666      -31.259      -32.514      163.354      107.092       51.466    26684.623    11468.641     2648.700        4.965        2.040      239.713       60.068        0.063      340.992       15.392      858.838
10/07/2013  23:33:00     -155.108       69.037      -23.384      200.442      124.597       68.593    40176.922    15524.368     4704.985        4.488        3.020      169.778      101.312        0.356      341.059       15.508      858.828
10/07/2013  23:34:00     -217.252      137.293      -13.870      165.118      133.185       75.266    27263.929    17738.333     5664.958        5.844        2.533      256.998       69.580        0.073      341.150       15.662      858.808
10/07/2013  23:35:00     -242.146      135.891      -40.845      133.771      133.301       69.992    17894.635    17769.033     4898.932        5.966        2.028      277.670       47.193        0.029      341.028       15.453      858.819
10/07/2013  23:36:00      -99.586       -6.789       10.104      101.997       83.687       68.745    10403.298     7003.555     4725.906        1.609        1.107       99.817       57.155        0.328      340.861       15.173      858.831
10/07/2013  23:37:00     -136.740       25.576      -22.753       73.238      111.813       48.022     5363.754    12502.201     2306.090        2.002        1.009      139.111       48.670        0.122      340.849       15.154      858.850
10/07/2013  23:38:00      -67.367      128.538      -20.172       55.557       76.249       49.892     3086.569     5813.839     2489.219        1.643        0.569      145.122       41.849        0.083      340.886       15.216      858.873
10/07/2013  23:39:00      -86.171      -24.097       -5.199       81.024       90.758       44.457     6564.819     8237.079     1976.397        1.240        0.839       89.477       36.780        0.169      340.857       15.166      858.861
10/07/2013  23:40:00     -206.328       25.512      -13.866       92.971       82.883       44.973     8643.643     6869.531     2022.579        3.047        0.877      207.899       32.252        0.024      340.763       15.006      858.873
10/07/2013  23:41:00     -189.360       70.196      -32.573      118.716       65.141       37.667    14093.554     4243.310     1418.823        3.080        0.988      201.952       41.498        0.042      340.791       15.056      858.901
10/07/2013  23:42:00     -157.266      131.467      -16.920      110.842       99.659       46.912    12285.878     9931.880     2200.770        3.336        1.221      204.979       41.721        0.041      340.855       15.161      858.896
10/07/2013  23:43:00     -202.462      144.245      -33.458      124.624       76.529       50.760    15531.195     5856.719     2576.556        4.344        1.198      248.591       46.274        0.035      340.845       15.144      858.915
10/07/2013  23:44:00     -167.704       91.573      -28.220       87.142       81.938       48.197     7593.798     6713.809     2322.981        2.697        0.832      191.077       45.375        0.056      340.800       15.067      858.903
10/07/2013  23:45:00     -106.915       58.128       -7.225       79.608       99.723       51.824     6337.462     9944.612     2685.750        1.691        0.948      121.696       47.997        0.156      340.766       15.012      858.894
10/07/2013  23:46:00     -165.502      188.216      -35.109      116.696       96.261       50.727    13617.953     9266.122     2573.228        4.475        1.273      250.631       49.455        0.039      340.857       15.163      858.894
10/07/2013  23:47:00     -186.998      183.244      -36.725      118.994      122.580       72.508    14159.472    15025.812     5257.390        5.216        1.722      261.814       69.250        0.070      340.811       15.085      858.882
10/07/2013  23:48:00      -84.752      257.253      -26.752       97.030      100.174       50.648     9414.853    10034.767     2565.259        4.804        1.101      270.854       40.349        0.022      340.766       15.008      858.851
10/07/2013  23:49:00     -185.618      145.116      -30.179      112.496      110.308       70.769    12655.238    12167.833     5008.276        4.312        1.492      235.611       74.479        0.100      340.739       14.966      858.854
10/07/2013  23:50:00     -115.580       77.171      -11.724       59.586      101.807       49.630     3550.464    10364.741     2463.098        1.791        0.819      138.975       41.861        0.091      340.720       14.934      858.866
10/07/2013  23:51:00     -217.131      128.484      -43.258      125.341       94.959       52.749    15710.278     9017.175     2782.432        4.651        1.375      252.298       64.337        0.065      340.819       15.101      858.889
10/07/2013  23:52:00     -121.521      128.129       -2.657       76.171       66.252       55.916     5801.965     4389.362     3126.629        2.225        0.666      176.591       36.956        0.044      340.760       15.002      858.887
10/07/2013  23:53:00     -160.472      122.242      -21.234      107.832      127.103       62.622    11627.696    16155.295     3921.517        3.642        1.585      201.728       51.348        0.065      340.734       14.956      858.888
10/07/2013  23:54:00      -99.396       61.833       -9.816       71.501       64.753       51.122     5112.383     4192.987     2613.472        1.286        0.596      117.060       32.355        0.076      340.673       14.856      858.922
10/07/2013  23:55:00     -104.346      125.047      -26.397       70.391       88.342       41.790     4954.860     7804.359     1746.425        2.086        0.725      162.864       53.164        0.107      340.639       14.798      858.949
10/07/2013  23:56:00     -175.223       -1.143      -16.705       81.073       68.171       47.865     6572.797     4647.350     2291.031        2.224        0.676      175.227       24.921        0.020      340.613       14.752      858.953
10/07/2013  23:57:00     -186.395       28.958      -26.286       96.971      160.975       55.420     9403.329    25913.059     3071.406        3.732        1.919      188.631       49.371        0.069      340.535       14.620      858.955
10/07/2013  23:58:00     -207.277      110.101      -28.494       90.224       86.572       50.962     8140.437     7494.753     2597.152        3.706        0.912      234.704       48.917        0.043      340.514       14.584      858.944
10/07/2013  23:59:00     -161.232      148.151      -24.360       61.032       88.141       39.724     3724.869     7768.796     1578.017        3.080        0.654      218.962       34.477        0.025      340.520       14.594      858.942
